[[{"header":{"parameterUnit":"m.s-1","parameterCategory":1,"la1":30.6,"la2":29.2853,"lo1":-89.7004,"lo2":-87.6739,"dx":0.0162,"dy":0.0183,"nx":112,"ny":82,"refTime":"2022-12-28T06:00:00:Z","depth":0,"parameterNumber":2,"parameterNumberName":"U-component_of_WINDS"},"data":[0.0,0.0,0.0,0.0,0.0,0.0,0.0,0.0,0.0,0.0,0.0,0.0,0.0,0.0,0.0,0.0,0.0,0.0,0.0,0.0,0.0,0.0,0.0,0.0,0.0,0.0,0.0,0.0,0.0,0.0,0.0,0.0,0.0,0.0,0.0,0.0,0.0,0.0,0.0,0.0,0.0,0.0,0.0,0.0,0.0,0.0,0.0,0.0,0.0,0.0,0.0,0.0,0.0,0.0,0.0,0.0,0.0,0.0,0.0,0.0,0.0,0.0,0.0,0.0,0.0,0.0,0.0,0.0,0.0,0.0,0.0,0.0,0.0,0.0,0.0,0.0,0.0,0.0,0.0,0.0,0.0,0.0,0.0,0.0,0.0,0.0,0.0,0.0,0.0,0.0,-4.868,-5.0067,-5.2761,-5.418,-5.3448,-5.2394,-4.9211,-4.3131,0.0,0.0,0.0,0.0,0.0,0.0,0.0,0.0,0.0,0.0,0.0,0.0,0.0,0.0,0.0,0.0,0.0,0.0,0.0,0.0,0.0,0.0,0.0,0.0,0.0,0.0,0.0,0.0,0.0,0.0,0.0,0.0,0.0,0.0,0.0,0.0,0.0,0.0,0.0,0.0,0.0,0.0,0.0,0.0,0.0,0.0,0.0,0.0,0.0,0.0,0.0,0.0,0.0,0.0,0.0,0.0,0.0,0.0,0.0,0.0,0.0,0.0,0.0,0.0,0.0,0.0,0.0,0.0,0.0,0.0,0.0,0.0,0.0,0.0,0.0,0.0,0.0,0.0,0.0,0.0,0.0,0.0,0.0,0.0,0.0,0.0,0.0,0.0,0.0,0.0,0.0,0.0,0.0,0.0,0.0,0.0,0.0,0.0,0.0,0.0,0.0,0.0,0.0,0.0,-4.7192,-5.4803,-5.4845,-5.428,-5.4121,-5.2135,-4.8769,-4.3778,0.0,0.0,0.0,0.0,0.0,0.0,0.0,0.0,0.0,0.0,0.0,0.0,0.0,0.0,0.0,0.0,0.0,0.0,0.0,0.0,0.0,0.0,0.0,0.0,0.0,0.0,0.0,0.0,0.0,0.0,0.0,0.0,0.0,0.0,0.0,0.0,0.0,0.0,0.0,0.0,0.0,0.0,0.0,0.0,0.0,0.0,0.0,0.0,0.0,0.0,0.0,0.0,0.0,0.0,0.0,0.0,0.0,0.0,0.0,0.0,0.0,0.0,0.0,0.0,0.0,0.0,0.0,0.0,0.0,0.0,0.0,0.0,0.0,0.0,0.0,0.0,0.0,0.0,0.0,0.0,0.0,0.0,0.0,0.0,0.0,0.0,0.0,0.0,0.0,0.0,0.0,0.0,0.0,0.0,0.0,0.0,0.0,0.0,0.0,0.0,0.0,0.0,0.0,-4.621,-4.9504,-5.598,-5.6002,-5.5187,-5.4214,-5.3123,-5.0071,-4.4524,-4.2879,0.0,0.0,0.0,0.0,0.0,0.0,0.0,0.0,0.0,0.0,0.0,0.0,0.0,0.0,0.0,0.0,0.0,0.0,0.0,0.0,0.0,0.0,0.0,0.0,0.0,0.0,0.0,0.0,0.0,0.0,0.0,0.0,0.0,0.0,0.0,0.0,0.0,0.0,0.0,0.0,0.0,0.0,0.0,0.0,0.0,0.0,0.0,0.0,0.0,0.0,0.0,0.0,0.0,0.0,0.0,0.0,0.0,0.0,0.0,0.0,0.0,0.0,0.0,0.0,0.0,0.0,0.0,0.0,0.0,0.0,0.0,0.0,0.0,0.0,0.0,0.0,0.0,0.0,0.0,0.0,0.0,0.0,0.0,0.0,0.0,0.0,0.0,0.0,0.0,0.0,0.0,0.0,0.0,0.0,0.0,0.0,0.0,0.0,0.0,0.0,0.0,0.0,-5.0473,-5.3011,-5.6525,-5.6536,-5.5756,-5.4443,-5.3922,-5.1101,-4.4987,-4.334,0.0,0.0,0.0,0.0,0.0,0.0,0.0,0.0,0.0,0.0,0.0,0.0,0.0,0.0,0.0,0.0,0.0,0.0,0.0,0.0,0.0,0.0,0.0,0.0,0.0,0.0,0.0,0.0,0.0,0.0,0.0,0.0,0.0,0.0,0.0,0.0,0.0,0.0,0.0,0.0,0.0,0.0,0.0,0.0,0.0,0.0,0.0,0.0,0.0,0.0,0.0,0.0,0.0,0.0,0.0,0.0,0.0,0.0,0.0,0.0,0.0,0.0,0.0,0.0,0.0,0.0,0.0,0.0,0.0,0.0,0.0,0.0,0.0,0.0,0.0,0.0,0.0,0.0,0.0,0.0,0.0,0.0,0.0,0.0,0.0,0.0,0.0,0.0,0.0,0.0,0.0,0.0,0.0,0.0,0.0,0.0,0.0,0.0,0.0,0.0,0.0,0.0,-5.1589,-5.6696,-5.7707,-5.6348,-5.5353,-5.5231,-5.3707,-5.0475,-4.4979,-4.334,0.0,0.0,0.0,0.0,0.0,0.0,0.0,0.0,0.0,0.0,0.0,0.0,0.0,0.0,0.0,0.0,0.0,0.0,0.0,0.0,0.0,0.0,0.0,0.0,0.0,0.0,0.0,0.0,0.0,0.0,0.0,0.0,0.0,0.0,0.0,0.0,0.0,0.0,0.0,0.0,0.0,0.0,0.0,0.0,0.0,0.0,0.0,0.0,0.0,0.0,0.0,0.0,0.0,0.0,0.0,0.0,0.0,0.0,0.0,0.0,0.0,0.0,0.0,0.0,0.0,0.0,0.0,0.0,0.0,0.0,0.0,0.0,0.0,0.0,0.0,0.0,0.0,0.0,0.0,0.0,0.0,0.0,0.0,0.0,0.0,0.0,0.0,0.0,0.0,0.0,0.0,0.0,0.0,0.0,0.0,0.0,0.0,0.0,0.0,0.0,0.0,0.0,-4.9965,-5.4258,-5.6809,-5.6034,-5.5108,-5.4527,-5.339,-5.0389,-4.4949,0.0,0.0,0.0,0.0,0.0,0.0,0.0,0.0,0.0,0.0,0.0,0.0,0.0,0.0,0.0,0.0,0.0,0.0,0.0,0.0,0.0,0.0,0.0,0.0,0.0,0.0,0.0,0.0,0.0,0.0,0.0,0.0,0.0,0.0,0.0,0.0,0.0,0.0,0.0,0.0,0.0,0.0,0.0,0.0,0.0,0.0,0.0,0.0,0.0,0.0,0.0,0.0,0.0,0.0,0.0,0.0,0.0,0.0,0.0,0.0,0.0,0.0,0.0,0.0,0.0,0.0,0.0,0.0,0.0,0.0,0.0,0.0,0.0,0.0,0.0,0.0,0.0,0.0,0.0,0.0,0.0,0.0,0.0,0.0,0.0,0.0,0.0,0.0,0.0,0.0,0.0,0.0,0.0,0.0,0.0,0.0,0.0,0.0,0.0,0.0,0.0,0.0,-4.5162,-4.9965,-5.4022,-5.67,-5.6231,-5.5353,-5.4485,-5.3577,-5.0514,-4.4363,0.0,0.0,0.0,0.0,0.0,0.0,0.0,0.0,0.0,0.0,0.0,0.0,0.0,0.0,0.0,0.0,0.0,0.0,0.0,0.0,0.0,0.0,0.0,0.0,0.0,0.0,0.0,0.0,0.0,0.0,0.0,0.0,0.0,0.0,0.0,0.0,0.0,0.0,0.0,0.0,0.0,0.0,0.0,0.0,0.0,0.0,0.0,0.0,0.0,0.0,0.0,0.0,0.0,0.0,0.0,0.0,0.0,0.0,0.0,0.0,0.0,0.0,0.0,0.0,0.0,0.0,0.0,0.0,0.0,0.0,0.0,0.0,0.0,0.0,0.0,0.0,0.0,0.0,0.0,0.0,0.0,0.0,0.0,0.0,0.0,0.0,0.0,0.0,0.0,0.0,0.0,0.0,0.0,0.0,0.0,0.0,0.0,0.0,0.0,0.0,0.0,0.0,-4.5432,-5.2198,-5.707,-5.7814,-5.711,-5.6231,-5.5361,-5.4495,-5.0712,0.0,0.0,0.0,0.0,0.0,0.0,0.0,0.0,0.0,0.0,0.0,0.0,0.0,0.0,0.0,0.0,0.0,0.0,0.0,0.0,0.0,0.0,0.0,0.0,0.0,0.0,0.0,0.0,0.0,0.0,0.0,0.0,0.0,0.0,0.0,0.0,0.0,0.0,0.0,0.0,0.0,0.0,0.0,0.0,0.0,0.0,0.0,0.0,0.0,0.0,0.0,0.0,0.0,0.0,0.0,0.0,0.0,0.0,0.0,0.0,0.0,0.0,0.0,0.0,0.0,0.0,0.0,0.0,0.0,0.0,0.0,0.0,0.0,0.0,0.0,0.0,0.0,0.0,0.0,0.0,0.0,0.0,0.0,0.0,0.0,0.0,0.0,0.0,0.0,0.0,0.0,0.0,0.0,0.0,0.0,0.0,0.0,0.0,0.0,0.0,0.0,0.0,0.0,-4.6177,-5.2503,-5.69,-5.7103,-5.587,-5.5175,-5.5441,-5.4081,-5.0452,-4.3913,0.0,0.0,0.0,0.0,0.0,0.0,0.0,0.0,0.0,0.0,0.0,0.0,0.0,0.0,0.0,0.0,0.0,0.0,0.0,0.0,0.0,0.0,0.0,0.0,0.0,0.0,0.0,0.0,0.0,0.0,0.0,0.0,0.0,0.0,0.0,0.0,0.0,0.0,0.0,0.0,0.0,0.0,0.0,0.0,0.0,0.0,0.0,0.0,0.0,0.0,0.0,0.0,0.0,0.0,0.0,0.0,0.0,0.0,0.0,0.0,0.0,0.0,0.0,0.0,0.0,0.0,0.0,0.0,0.0,0.0,0.0,0.0,0.0,0.0,0.0,0.0,0.0,0.0,0.0,0.0,0.0,0.0,0.0,0.0,0.0,0.0,0.0,0.0,0.0,0.0,0.0,0.0,0.0,0.0,0.0,0.0,0.0,0.0,0.0,0.0,0.0,0.0,-4.6447,-5.2909,-5.7239,-5.7239,-5.6365,-5.5858,-5.5918,-5.4665,-5.1439,-4.5854,0.0,0.0,0.0,0.0,0.0,0.0,0.0,0.0,0.0,0.0,0.0,0.0,0.0,0.0,0.0,0.0,0.0,0.0,0.0,0.0,0.0,0.0,0.0,0.0,0.0,0.0,0.0,0.0,0.0,0.0,0.0,0.0,0.0,0.0,0.0,0.0,0.0,0.0,0.0,0.0,0.0,0.0,0.0,0.0,0.0,0.0,0.0,0.0,0.0,0.0,0.0,0.0,0.0,0.0,0.0,0.0,0.0,0.0,0.0,0.0,0.0,0.0,0.0,0.0,0.0,0.0,0.0,0.0,0.0,0.0,0.0,0.0,0.0,0.0,0.0,0.0,0.0,0.0,0.0,0.0,0.0,0.0,0.0,0.0,0.0,0.0,0.0,0.0,0.0,0.0,0.0,0.0,0.0,0.0,0.0,0.0,0.0,0.0,0.0,0.0,0.0,0.0,-4.6413,-5.3213,-5.778,-5.778,-5.7712,-5.7349,-5.6591,-5.5698,-5.3085,-4.8193,0.0,0.0,0.0,0.0,0.0,0.0,0.0,0.0,0.0,0.0,0.0,0.0,0.0,0.0,0.0,0.0,0.0,0.0,0.0,0.0,0.0,0.0,0.0,0.0,0.0,0.0,0.0,0.0,0.0,0.0,0.0,0.0,0.0,0.0,0.0,0.0,0.0,0.0,0.0,0.0,0.0,0.0,0.0,0.0,0.0,0.0,0.0,0.0,0.0,0.0,0.0,0.0,0.0,0.0,0.0,0.0,0.0,0.0,0.0,0.0,-3.5824,-3.0794,0.0,0.0,0.0,0.0,0.0,0.0,0.0,0.0,0.0,0.0,0.0,0.0,0.0,0.0,0.0,0.0,0.0,0.0,0.0,0.0,0.0,0.0,0.0,0.0,0.0,0.0,0.0,0.0,0.0,0.0,0.0,0.0,0.0,0.0,0.0,0.0,0.0,0.0,0.0,0.0,-4.6481,-5.2773,-5.7036,-5.7036,-5.6528,-5.6071,-5.5762,-5.4907,-5.257,-4.8193,-4.6244,0.0,0.0,0.0,0.0,0.0,0.0,0.0,0.0,0.0,0.0,0.0,0.0,0.0,0.0,0.0,0.0,0.0,0.0,0.0,0.0,0.0,0.0,0.0,0.0,0.0,0.0,0.0,0.0,0.0,0.0,0.0,0.0,0.0,0.0,0.0,0.0,0.0,0.0,0.0,0.0,0.0,0.0,0.0,0.0,0.0,0.0,0.0,0.0,0.0,0.0,0.0,0.0,0.0,0.0,0.0,0.0,0.0,0.0,0.0,-3.9566,-3.6829,0.0,0.0,0.0,0.0,0.0,0.0,0.0,0.0,0.0,0.0,0.0,0.0,0.0,0.0,0.0,0.0,0.0,0.0,0.0,0.0,0.0,0.0,0.0,0.0,0.0,0.0,0.0,0.0,0.0,0.0,0.0,0.0,0.0,0.0,0.0,0.0,0.0,0.0,0.0,0.0,-4.6989,-5.3484,-5.7881,-5.7881,-5.8186,-5.819,-5.7608,-5.6776,-5.5104,-5.2448,-4.9324,0.0,0.0,0.0,0.0,0.0,0.0,0.0,0.0,0.0,0.0,0.0,0.0,0.0,0.0,0.0,0.0,0.0,0.0,0.0,0.0,0.0,0.0,0.0,0.0,0.0,0.0,0.0,0.0,0.0,0.0,0.0,0.0,0.0,0.0,0.0,0.0,0.0,0.0,0.0,0.0,0.0,0.0,0.0,0.0,0.0,0.0,0.0,0.0,0.0,0.0,0.0,0.0,0.0,-3.8774,-4.0821,-4.3159,-4.3007,-4.4635,-4.7378,-4.3681,-4.3881,-4.6355,-3.921,0.0,0.0,0.0,0.0,0.0,0.0,0.0,0.0,0.0,0.0,0.0,0.0,0.0,0.0,0.0,0.0,0.0,0.0,0.0,0.0,0.0,0.0,-5.0593,-5.0063,-5.2704,-5.4343,-5.0534,0.0,0.0,0.0,0.0,0.0,0.0,0.0,0.0,0.0,0.0,0.0,-4.868,-5.5243,-5.9607,-5.9607,-6.0723,-6.1004,-5.9845,-5.9011,-5.804,-5.7021,-5.2492,-4.9404,0.0,0.0,0.0,0.0,0.0,0.0,0.0,0.0,0.0,0.0,0.0,0.0,0.0,0.0,0.0,0.0,0.0,0.0,0.0,0.0,0.0,0.0,0.0,0.0,0.0,0.0,0.0,0.0,0.0,0.0,0.0,0.0,-3.1531,-3.3097,0.0,0.0,0.0,0.0,0.0,0.0,0.0,0.0,0.0,0.0,0.0,0.0,0.0,-3.6624,-3.9218,-4.2033,-4.4194,-4.5786,-4.7466,-4.9197,-5.0903,-5.0207,-5.0903,-5.2698,-5.2087,0.0,-4.6021,-4.5574,0.0,0.0,0.0,0.0,0.0,0.0,0.0,0.0,0.0,0.0,0.0,0.0,0.0,0.0,0.0,0.0,0.0,0.0,0.0,0.0,0.0,0.0,-5.8365,-5.8374,-5.8843,-5.8927,-5.7694,-5.1336,-4.5648,-4.506,-4.4282,-4.2516,0.0,0.0,0.0,0.0,0.0,0.0,-5.3145,-5.8524,-6.1941,-6.1941,-6.211,-6.1542,-5.9762,-5.8929,-5.8,-5.6881,-5.5532,-5.3683,-5.1251,-4.9712,0.0,0.0,0.0,0.0,0.0,0.0,0.0,0.0,0.0,0.0,0.0,0.0,0.0,0.0,0.0,0.0,0.0,0.0,0.0,0.0,0.0,0.0,0.0,0.0,0.0,0.0,0.0,0.0,0.0,-3.1237,-3.3737,-3.4853,-3.2453,-2.9963,0.0,0.0,0.0,0.0,0.0,0.0,0.0,0.0,0.0,-4.0773,-4.074,-4.2245,-4.5662,-4.7024,-4.8325,-4.9538,-5.0296,-5.1509,-5.3139,-5.276,-5.3252,-5.4389,-5.4927,-5.3836,-5.1462,-4.8619,-4.5633,-4.2662,0.0,0.0,0.0,0.0,-4.1361,-4.223,-4.6359,-4.7772,-4.7627,-4.6721,0.0,0.0,0.0,0.0,0.0,0.0,0.0,-4.9125,-5.2462,-5.5089,-5.725,-5.8992,-5.938,-5.9214,-5.8493,-5.5281,-5.1928,-4.983,-4.8477,-4.594,-4.0553,-4.1373,0.0,0.0,0.0,-5.2841,-5.6021,-6.0283,-6.3024,-6.3024,-6.3768,-6.3717,-6.2333,-6.1389,-6.0454,-5.9422,-5.812,-5.673,-5.5161,-5.3008,-4.9849,0.0,0.0,0.0,0.0,0.0,0.0,0.0,0.0,0.0,0.0,0.0,0.0,0.0,0.0,0.0,0.0,0.0,0.0,0.0,0.0,0.0,0.0,0.0,0.0,0.0,0.0,0.0,0.0,-3.4075,-3.6391,-3.71,-3.6112,-3.4042,0.0,0.0,0.0,0.0,0.0,0.0,-3.9422,-3.8806,-4.0931,-4.657,-4.6252,-4.7554,-5.081,-5.0697,-5.1047,-5.185,-5.185,-5.2608,-5.401,-5.4253,-5.467,-5.5261,-5.6223,-5.655,-5.6178,-5.1952,-4.9957,-4.9202,-4.5809,-4.4197,-4.4077,-4.6323,-4.7156,-4.7772,-5.219,-5.382,-5.382,-5.2589,-5.1746,-5.061,-4.7791,0.0,0.0,0.0,0.0,-5.102,-5.4036,-5.5213,-5.615,-5.8153,-5.8805,-5.8767,-5.8298,-5.8186,-5.734,-5.4566,-5.3112,-5.0541,-4.4818,-4.6278,0.0,-4.6722,-5.1792,-5.6664,-5.9268,-6.2381,-6.4343,-6.4343,-6.5324,-6.5556,-6.4542,-6.3485,-6.2438,-6.1627,-5.998,-5.8824,-5.8201,-5.6168,-5.3759,-5.11,0.0,0.0,0.0,0.0,0.0,0.0,0.0,0.0,0.0,0.0,0.0,0.0,0.0,0.0,0.0,0.0,0.0,0.0,0.0,0.0,0.0,0.0,0.0,0.0,0.0,0.0,0.0,0.0,0.0,-4.1679,-4.1571,0.0,0.0,0.0,0.0,-3.7623,-3.9146,-4.1254,-4.3921,-4.551,-4.7576,-5.0345,-5.1183,-5.1918,-5.2577,-5.2565,-5.2905,-5.3556,-5.3556,-5.401,-5.4882,-5.5753,-5.6171,-5.6171,-5.7059,-5.7385,-5.7308,-5.7104,-5.4754,-5.1301,-5.1768,-4.9636,-4.6794,-5.0705,-5.2118,-5.2589,-5.5848,-5.7442,-5.8094,-5.8021,-5.6176,-5.3862,-5.3041,-5.0927,0.0,0.0,-5.3621,-5.4903,-5.7873,-5.8633,-5.8565,-5.8067,-5.8496,-5.9001,-5.8964,-5.8964,-5.8896,-5.8727,-5.8626,-5.7577,-5.4397,0.0,-5.5175,-5.5073,-5.7205,-6.0114,-6.3802,-6.5662,-6.6643,-6.6643,-6.6711,-6.633,-6.5349,-6.3747,-6.2631,-6.2274,-6.0664,-5.9614,-5.9328,-5.9205,-5.6998,-5.2601,-5.2017,0.0,0.0,0.0,0.0,0.0,0.0,0.0,0.0,0.0,0.0,0.0,0.0,0.0,0.0,0.0,0.0,0.0,0.0,0.0,0.0,0.0,0.0,0.0,0.0,0.0,0.0,0.0,0.0,-4.2917,-4.3906,0.0,-4.0875,-4.2628,-4.3686,-4.3137,-4.5595,-4.7844,-4.9396,-4.9498,-5.0386,-5.2425,-5.2675,-5.3377,-5.4693,-5.4944,-5.55,-5.6255,-5.6133,-5.6543,-5.7423,-5.7711,-5.7894,-5.7969,-5.8798,-5.8859,-5.8426,-5.8935,-5.7786,-5.5603,-5.5012,-5.4385,-5.3953,-5.5099,-5.5522,-5.574,-5.7406,-5.8166,-5.8565,-5.9615,-5.9256,-5.851,-5.8799,-5.814,-5.7476,-5.8149,-5.8561,-5.8892,-5.9518,-5.9675,-5.9602,-5.9377,-5.9505,-5.9708,-5.9708,-5.9708,-6.0013,-6.0994,-6.0385,-5.893,-5.6427,-5.8626,-6.0042,-5.8118,-6.096,-6.3971,-6.5797,-6.6474,-6.6812,-6.6812,-6.6812,-6.6652,-6.6311,-6.5105,-6.4367,-6.4262,-6.2458,-6.1377,-6.1277,-6.0445,-5.9286,-5.7649,-5.7122,-5.3567,0.0,0.0,0.0,0.0,0.0,0.0,0.0,0.0,0.0,0.0,0.0,0.0,0.0,0.0,0.0,0.0,0.0,0.0,0.0,0.0,0.0,0.0,0.0,0.0,0.0,-4.1349,-4.4543,-4.3889,-4.5919,-4.6445,-4.4038,-4.6932,-4.869,-4.8083,-5.04,-5.2198,-5.3119,-5.2825,-5.3257,-5.4735,-5.4948,-5.5682,-5.7068,-5.7263,-5.7745,-5.8515,-5.8342,-5.8553,-5.9185,-5.9488,-5.9649,-5.9764,-6.0578,-6.067,-6.0213,-6.0551,-6.0274,-5.9415,-5.7617,-5.7524,-5.829,-5.7862,-5.7819,-5.813,-5.8927,-5.9216,-5.9434,-6.0774,-6.1181,-6.1299,-6.1901,-6.2061,-6.1946,-6.13,-6.1113,-6.0946,-6.0282,-6.0114,-6.0114,-6.0114,-6.0486,-6.0892,-6.0892,-6.1264,-6.1975,-6.326,-6.2076,-6.0554,-5.9607,-6.211,-6.3396,-6.0892,-6.37,-6.617,-6.6406,-6.688,-6.7286,-6.7557,-6.759,-6.759,-6.759,-6.5581,-6.4869,-6.5989,-6.31,-6.179,-6.2833,-6.0753,-5.9549,-5.9444,-5.8942,-5.5722,-4.9688,0.0,0.0,0.0,0.0,0.0,0.0,0.0,0.0,0.0,0.0,0.0,0.0,0.0,0.0,0.0,0.0,0.0,0.0,0.0,0.0,0.0,0.0,0.0,-4.1131,-4.3338,-4.4911,-4.4948,-4.7922,-4.9315,-4.7611,-5.0476,-5.2421,-5.2394,-5.3201,-5.4025,-5.4829,-5.5634,-5.6476,-5.7366,-5.8226,-5.8974,-5.9672,-5.943,-5.9612,-6.0299,-6.0083,-5.9977,-6.0053,-6.101,-6.146,-6.1435,-6.2275,-6.2649,-6.2687,-6.2138,-6.2208,-6.2433,-5.9834,-5.9038,-5.92,-5.8786,-5.9066,-5.976,-6.0557,-6.0846,-6.1027,-6.1797,-6.205,-6.2112,-6.2224,-6.226,-6.2098,-6.1432,-6.1255,-6.1041,-6.0374,-6.0182,-6.0182,-6.0216,-6.1332,-6.2415,-6.2448,-6.3599,-6.485,-6.5561,-6.4005,-6.3024,-6.4444,-6.529,-6.529,-6.3903,-6.5527,0.0,-6.5899,-6.7049,-6.8233,-6.8944,-6.8968,-6.9002,-6.9045,-6.5054,-6.404,-6.7426,-6.2626,-6.101,-6.3992,-6.0311,-5.8073,-5.7794,-5.7281,-5.596,-5.367,0.0,0.0,0.0,0.0,0.0,0.0,0.0,0.0,0.0,0.0,0.0,0.0,0.0,0.0,0.0,0.0,0.0,0.0,0.0,0.0,0.0,-4.1289,-4.3825,-4.3749,-4.6021,-4.7893,-4.8428,-5.0491,-5.1647,-5.1035,-5.2414,-5.3629,-5.4274,-5.5048,-5.5853,-5.6696,-5.7557,-5.8428,-5.9218,-5.9545,-6.0383,-6.1826,-6.1534,-6.1697,-6.235,-6.2156,-6.233,-6.2829,-6.309,-6.3283,-6.3413,-6.3558,-6.3307,-6.2818,-6.2611,-6.2499,-6.2256,-6.077,-6.0336,-6.0462,-5.9737,-5.9891,-6.0593,-6.1362,-6.2041,-6.2657,-6.349,-6.3744,-6.3752,-6.3762,-6.3418,-6.2978,-6.2813,-6.2404,-6.1968,-6.1796,-6.1772,-6.1907,-6.2448,-6.2888,-6.3362,-6.3869,-6.4715,-6.5628,-6.6339,-6.644,-6.6508,-6.6914,-6.7151,-6.7354,-6.7523,-6.8098,-6.8402,-6.8199,-6.8504,-6.8436,-6.7523,-6.6829,-6.6698,-6.7379,-6.5702,-6.5768,-6.8505,-6.6582,-6.5701,-6.6493,-6.4461,-6.268,-6.1414,-5.8127,-5.5888,0.0,0.0,0.0,0.0,0.0,0.0,0.0,0.0,0.0,0.0,0.0,0.0,0.0,0.0,0.0,0.0,0.0,0.0,0.0,0.0,0.0,0.0,-4.5306,-4.7301,-4.8007,-4.9452,-5.0581,-5.1025,-5.2301,-5.3103,-5.3022,-5.4168,-5.5097,-5.5569,-5.6673,-5.7877,-5.9088,-5.96,-6.0434,-6.1594,-6.1677,-6.2366,-6.3726,-6.3464,-6.3647,-6.4292,-6.4088,-6.4153,-6.4454,-6.4486,-6.4549,-6.468,-6.4581,-6.4306,-6.3947,-6.3871,-6.374,-6.3432,0.0,0.0,0.0,0.0,-6.1768,-6.245,-6.2866,-6.3309,-6.378,-6.4251,-6.4396,-6.4468,-6.4794,-6.4606,-6.4205,-6.3956,-6.359,-6.3195,-6.2931,-6.2854,-6.3057,-6.3802,-6.4444,-6.5019,-6.5425,-6.6373,-6.7252,-6.7692,-6.8098,0.0,-6.8808,-6.8605,-6.8335,-6.8166,-6.8707,-6.8977,-6.8639,-6.9147,-6.935,-6.8774,-6.8236,-6.807,-6.8663,-6.6934,0.0,0.0,0.0,-6.619,-6.5769,-6.482,0.0,0.0,0.0,-5.8247,-5.8501,-5.6944,0.0,0.0,-5.3264,-5.2606,0.0,0.0,0.0,0.0,0.0,0.0,0.0,0.0,0.0,0.0,0.0,0.0,0.0,0.0,0.0,0.0,-4.9192,-5.0867,-5.2585,-5.3034,-5.3085,-5.3006,-5.3692,-5.422,-5.434,-5.5818,-5.6814,-5.6884,-5.8315,-5.9916,-6.1596,-6.1719,0.0,0.0,0.0,-6.4486,-6.5372,-6.5178,-6.5354,-6.5863,-6.5654,-6.5432,-6.5242,-6.529,-6.5305,-6.5305,-6.5305,-6.5337,-6.5413,-6.5337,-6.5359,-6.5213,-6.2824,-6.2066,-6.2432,-6.3278,-6.3994,-6.4612,-6.4553,0.0,0.0,-6.4649,-6.4649,-6.4794,-6.5518,-6.5714,-6.5599,-6.4903,-6.4777,-6.4705,-6.3927,-6.3835,-6.4072,-6.4816,-6.5967,-6.6948,-6.7049,-6.8199,-6.9214,-6.9214,-6.9282,-6.9553,-7.0195,-6.9722,-6.8808,-6.7523,-6.847,-6.9079,-6.8368,-6.9485,-7.05,-7.1007,-7.0985,0.0,-7.103,-6.8226,-6.7857,-7.1086,-6.7611,-6.5058,-6.4125,-6.379,-6.2929,-6.165,-6.1371,-6.1882,-6.3279,-6.3194,-6.3079,-6.2899,-5.5927,-5.4521,0.0,0.0,0.0,0.0,0.0,0.0,0.0,0.0,0.0,0.0,0.0,0.0,0.0,0.0,0.0,-4.916,-5.0481,-5.1765,-5.3483,-5.497,-5.5562,-5.4865,-5.5505,-5.6289,-5.6992,-5.7952,-5.9087,-6.0467,-6.0828,-6.171,-6.3417,-6.3537,-6.4009,-6.5019,-6.5061,-6.5512,-6.6407,-6.6335,-6.6237,-6.6212,-6.5925,0.0,-6.5531,-6.5435,-6.5383,-6.5383,-6.5383,-6.5398,-6.5413,-6.5398,-6.5585,-6.5793,-6.4795,-6.4433,-6.449,-6.4519,-6.463,-6.4822,-6.5375,-6.5537,-6.5618,-6.6163,-6.6351,-6.6351,-6.6533,-6.6607,0.0,-6.572,-6.5925,-6.6294,-6.5474,-6.573,-6.6373,-6.7083,-6.7489,-6.7861,-6.8538,-6.935,-6.9992,-6.9992,-7.0466,-7.0939,-7.1075,-7.0466,-7.0094,-7.0398,-7.0703,-7.0838,-7.0669,-7.0906,-7.0703,-6.9654,-6.8864,-6.8696,-6.9475,-6.8249,-6.8548,-7.112,-7.0512,-6.9766,-6.9104,-6.8221,-6.741,-6.6681,-6.4871,-6.4101,-6.4376,-6.3535,-6.3079,-6.3049,-6.2002,-6.1942,0.0,0.0,0.0,0.0,0.0,0.0,0.0,0.0,0.0,0.0,0.0,-4.3726,-4.5874,0.0,-5.0365,-5.2942,-5.3719,-5.4459,-5.5708,-5.6645,-5.6879,-5.6059,-5.7059,-5.8122,-5.902,-5.984,-6.084,-6.2162,-6.262,-6.3422,-6.468,-6.4786,-6.516,-6.5996,-6.6016,-6.6244,-6.6712,-6.668,-6.6536,-6.6361,-6.6212,-6.5947,-6.5641,-6.5572,-6.5485,-6.5413,-6.5413,-6.5643,-6.6101,-6.6483,-6.6886,-6.7202,-6.6678,-6.635,-6.6098,-6.5657,-6.5779,-6.619,-6.6425,-6.6478,-6.6624,-6.7339,-6.76,-6.7673,-6.7985,-6.8397,-6.8475,-6.72,-6.7435,-6.7846,-6.7052,-6.7083,-6.7557,-6.8335,-6.8774,-6.9147,-6.9553,-7.0229,-7.0737,-7.0737,-7.1075,-7.1312,-7.1312,-7.1007,-7.0872,-7.1244,-7.1312,-7.1312,-7.1312,-7.1312,-7.1176,-7.0804,-7.0299,-7.0388,-7.1199,-7.0837,-7.1127,-7.2315,-7.2257,-7.1904,-7.127,-7.0642,-6.9678,-6.8354,-6.7177,-6.6238,-6.5575,-6.4432,-6.3902,-6.3902,-6.3968,-6.3827,0.0,0.0,0.0,0.0,0.0,0.0,0.0,-3.6813,-3.8375,-4.2515,-4.5168,-4.7703,-5.0787,-5.2342,-5.4018,-5.6643,-5.6909,-5.7102,-5.7931,-5.8324,-5.8324,-5.766,-5.8774,-5.9993,-6.1047,-6.1757,-6.2499,-6.3356,-6.4059,-6.4838,-6.5694,-6.575,-6.6043,-6.6694,-6.6685,-6.6688,-6.6712,-6.6712,-6.6624,-6.6475,-6.6407,-6.6203,-6.5812,-6.5755,-6.5613,-6.5465,-6.5597,-6.6139,-6.7018,-6.7821,-6.8345,-6.8601,-6.8291,-6.7926,-6.7462,-6.6765,-6.7021,-6.7753,-6.755,-6.7595,-6.7822,-6.8442,-6.8661,-6.8778,-6.947,-7.0211,-7.0558,-6.9105,-6.9276,-6.9669,-6.8774,-6.8565,-6.8707,-6.9383,-6.9992,-7.0398,-7.0398,-7.0872,-7.1312,-7.1312,-7.1312,-7.1312,-7.1312,-7.1312,-7.1312,-7.1312,-7.1312,-7.1379,-7.1515,-7.1515,-7.1819,-7.2529,-7.2597,-7.2834,-7.3443,-7.3612,-7.3646,-7.351,-7.3291,-7.2814,-7.2027,-7.1707,-7.0695,-6.8895,-6.8667,-6.8021,-6.6867,-6.5683,-6.5087,-6.5087,-6.4823,-6.4171,-3.0777,-3.0845,-3.2238,-3.4569,-3.6315,-3.9167,0.0,-4.6612,-4.7159,-5.0674,-5.2234,-5.36,-5.5513,-5.523,-5.5634,-5.8392,-5.8081,-5.7821,-5.8824,-6.0273,-6.121,-6.1132,-6.1293,-6.2076,-6.3718,-6.3954,-6.432,-6.5155,-6.5311,-6.5742,-6.6591,-6.6667,-6.6655,-6.6697,-6.6688,-6.6697,-6.6712,-6.6712,-6.6702,-6.6652,-6.6496,-6.6369,-6.632,-6.587,-6.5692,-6.5679,-6.6298,-6.7018,-6.7821,-6.8699,-6.9104,-6.9137,-6.9454,-6.9292,-6.8803,-6.7897,-6.8027,-6.8733,-6.8595,-6.8978,-6.96,-6.9493,-6.9471,-6.9617,-7.0456,-7.1175,-7.1625,-7.1424,-7.1763,-7.2022,-7.1207,-7.0942,-7.0939,-7.1041,-7.1142,-7.1176,-7.1176,-7.1244,-7.1312,-7.1312,-7.1312,-7.1312,-7.1312,-7.1312,-7.1312,-7.1312,-7.1312,-7.1548,-7.2191,-7.2293,-7.2563,-7.3274,-7.3375,-7.3409,-7.3477,-7.4086,-7.4187,-7.3544,-7.3477,-7.3,-7.2027,-7.1341,-7.0754,-7.0283,-6.9331,-6.8765,-6.8618,-6.7247,-6.6574,-6.6574,-6.6931,-6.5967,-3.6637,-3.6993,-3.7789,-3.9851,-4.1286,-4.3325,-4.7791,-4.8543,-4.9289,-5.2739,-5.3693,-5.4408,-5.612,-5.6402,-5.7147,-5.9385,-6.0226,-6.0781,-6.1283,-6.2423,-6.3399,-6.3906,-6.3984,-6.4258,-6.4999,-6.5077,-6.5397,-6.6192,-6.6272,-6.6432,-6.6791,-6.6796,-6.6796,-6.6752,-6.6722,-6.6684,-6.6697,-6.6693,-6.6712,-6.6707,-6.6618,-6.6517,-6.6384,-6.6069,-6.6075,-6.637,-6.7615,-6.8356,-6.8699,-6.9578,-6.9884,-6.989,-6.9813,-6.9788,-6.9716,-6.9051,-6.8836,-6.8944,-6.9366,-6.9733,-7.0144,-7.1003,-7.1267,-7.1523,-7.2715,-7.3611,-7.4051,-7.3488,-7.3726,-7.396,-7.3155,-7.25,-7.2004,-7.2004,-7.1644,-7.1312,-7.1312,-7.1312,-7.1447,-7.1853,-7.1954,-7.209,-7.2496,-7.2563,-7.2428,-7.1988,-7.1954,-7.2225,-7.2935,-7.3037,-7.3308,-7.4052,-7.4931,-7.5473,-7.5473,-7.5337,-7.51,-7.4796,-7.395,-7.3092,-7.2291,-7.1953,-7.1445,-7.0733,-7.0296,-7.0215,-7.0505,-6.9238,-6.883,-6.9065,-6.8574,-6.7769,-3.95,-4.0634,-4.1746,-4.3424,-4.5053,-4.6831,-4.9292,-5.0048,-5.0909,-5.342,-5.405,-5.4663,-5.6305,-5.7022,-5.8104,-6.0444,-6.1846,-6.2802,-6.3175,-6.3967,-6.4747,-6.5371,-6.5702,-6.5871,-6.5871,-6.5926,-6.617,-6.6756,-6.6795,-6.6795,-6.6795,-6.6818,-6.679,-6.6794,-6.6743,-6.6709,-6.6694,-6.6945,-6.7057,-6.7057,-6.7296,-6.7331,-6.7189,-6.6931,-6.7162,-6.7882,-6.8785,-6.9311,-6.9578,-7.0151,-7.0533,-7.073,-7.0434,-7.0455,-7.0623,-7.0517,-7.0098,-6.9669,-7.022,-7.0734,-7.1284,-7.2459,-7.2973,-7.3384,-7.4689,-7.5477,-7.5797,-7.5294,-7.5254,-7.5263,-7.4643,-7.3764,-7.3003,-7.3003,-7.2533,-7.2004,-7.1776,-7.1688,-7.1726,-7.2033,-7.209,-7.2259,-7.28,-7.2868,-7.2766,-7.2462,-7.2394,-7.2665,-7.3409,-7.368,-7.4018,-7.4559,-7.5439,-7.6048,-7.6251,-7.5743,-7.5303,-7.51,-7.4086,-7.3172,-7.2428,-7.2191,-7.1864,-7.131,-7.131,-7.1589,-7.219,-7.1283,-7.1062,-7.1325,-7.061,-7.0135,-3.7428,-3.9699,-4.2645,-4.4331,-4.7289,-5.0231,-5.2064,-5.3133,-5.3748,-5.3791,-5.448,-5.5536,-5.7067,-5.7288,-5.8338,-6.1857,-6.2366,-6.2662,-6.3643,-6.4527,-6.5079,-6.5117,-6.5983,-6.6556,-6.6556,-6.6681,-6.6756,-6.6795,-6.6795,-6.6795,-6.6795,-6.6798,-6.6813,-6.6793,-6.6794,-6.6774,-6.6694,-6.753,-6.7954,-6.7954,-6.8816,-6.9206,-6.9195,-6.8739,-6.9313,-7.0629,-6.9621,-6.9655,-7.0381,-7.0381,-7.0916,-7.1642,-7.1642,-7.1579,-7.1569,-7.2312,-7.2037,-7.1219,-7.1284,-7.2312,-7.3597,-7.3634,-7.4184,-7.4992,-7.5836,-7.5971,-7.6068,-7.6805,-7.6336,-7.5618,-7.5547,-7.4866,-7.4234,-7.4234,-7.4117,-7.3764,-7.2921,-7.2582,-7.2228,-7.1491,-7.1345,-7.1345,-7.1379,-7.1379,-7.1616,-7.2293,-7.2394,-7.2665,-7.3409,-7.4119,-7.4593,-7.4627,-7.3984,-7.3883,-7.4627,-7.4661,-7.4322,-7.3612,-7.351,-7.3172,-7.2428,-7.1718,-7.1684,-7.236,-7.236,-7.2732,-7.3443,-7.3164,-7.2976,-7.3043,-7.3253,-7.3342,-3.9397,-4.1733,-4.4506,-4.6766,-4.9059,-5.1197,-5.2891,-5.3919,-5.4547,-5.4463,-5.4641,-5.5162,-5.6226,-5.6752,-5.8037,-6.1027,-6.2441,-6.3514,-6.4536,-6.5374,-6.5963,-6.6094,-6.6264,-6.6501,-6.6716,-6.6784,-6.6795,-6.6795,-6.6795,-6.7068,-6.7615,-6.7654,-6.7932,-6.8492,-6.8512,-6.8474,-6.8414,-6.8723,-6.8869,-6.8855,-6.9751,-7.0063,-6.9933,-7.0767,-7.1309,-7.1643,-7.1076,-7.0992,-7.1259,-7.1259,-7.145,-7.1773,-7.2329,-7.266,-7.281,-7.271,-7.2994,-7.336,-7.3006,-7.323,-7.3891,-7.4955,-7.5469,-7.5836,-7.668,-7.6839,-7.6882,-7.7175,-7.6929,-7.6603,-7.6603,-7.5895,-7.5156,-7.5156,-7.4682,-7.4155,-7.3885,-7.3768,-7.3747,-7.3862,-7.3884,-7.3809,-7.3669,-7.3597,-7.3523,-7.3163,-7.3544,-7.395,-7.4221,-7.4864,-7.5337,-7.5337,-7.5574,-7.5642,-7.5337,-7.4897,-7.4289,-7.3544,-7.3037,-7.2665,-7.2428,-7.2631,-7.2868,-7.3105,-7.3105,-7.3477,-7.4221,-7.4127,-7.4256,-7.4585,-7.4661,-7.4616,-4.1568,-4.3743,-4.5919,-4.8794,-5.0551,-5.2001,-5.3637,-5.4445,-5.482,-5.473,-5.4715,-5.4834,-5.5296,-5.6529,-5.822,-6.0555,-6.2632,-6.4307,-6.5248,-6.5847,-6.6203,-6.6322,-6.629,-6.6307,-6.653,-6.6923,-6.7201,-6.7264,-6.7264,-6.7654,-6.8513,-6.8552,-6.8825,-6.9372,-6.9402,-6.9375,-6.9286,-6.9606,-6.9904,-7.018,-7.1076,-7.1587,-7.1736,-7.2588,-7.3032,-7.3099,-7.2524,-7.2384,-7.2597,-7.2597,-7.2941,-7.3552,-7.4087,-7.4542,-7.4795,-7.4267,-7.4424,-7.4815,-7.4012,-7.4074,-7.4735,-7.5763,-7.6276,-7.6644,-7.7127,-7.7273,-7.7273,-7.7273,-7.7248,-7.7186,-7.7186,-7.67,-7.62,-7.62,-7.5756,-7.5192,-7.4903,-7.4793,-7.4894,-7.5257,-7.5282,-7.5332,-7.545,-7.5457,-7.5076,-7.4193,-7.4651,-7.4876,-7.4301,-7.4864,-7.5303,-7.5303,-7.5303,-7.5303,-7.5303,-7.439,-7.3713,-7.351,-7.3037,-7.28,-7.28,-7.324,-7.3612,-7.3883,-7.3883,-7.4255,-7.4999,-7.4999,-7.5141,-7.547,-7.5373,-7.5228,-4.3666,-4.553,-4.7045,-5.0381,-5.1773,-5.2748,-5.441,-5.4761,-5.4722,-5.4559,-5.4538,-5.4482,-5.4282,-5.6395,-5.8704,-6.0319,-6.2858,-6.4897,-6.5782,-6.5897,-6.591,-6.5923,-6.6047,-6.6175,-6.6195,-6.726,-6.8037,-6.8189,-6.8198,-6.8552,-6.9411,-6.945,-6.9489,-6.9528,-6.9518,-6.9492,-6.9444,-7.0233,-7.1078,-7.1861,-7.2757,-7.3615,-7.4466,-7.4289,-7.4538,-7.5016,-7.3909,-7.3737,-7.4295,-7.4333,-7.5289,-7.6703,-7.6779,-7.6979,-7.7228,-7.6745,-7.6182,-7.549,-7.4253,-7.4801,-7.6093,-7.6166,-7.668,-7.7273,-7.7273,-7.7273,-7.7273,-7.7273,-7.7273,-7.7273,-7.7273,-7.7273,-7.7273,-7.7273,-7.7217,-7.6861,-7.6027,-7.5826,-7.5728,-7.5678,-7.5631,-7.5877,-7.6624,-7.6643,-7.6278,-7.5373,-7.5725,-7.5519,-7.3751,-7.4187,-7.4661,-7.4661,-7.3409,-7.3138,-7.4492,-7.3308,-7.28,-7.3443,-7.351,-7.3544,-7.3544,-7.3578,-7.395,-7.4661,-7.4661,-7.4999,-7.5709,-7.5709,-7.5709,-7.5709,-7.547,-7.5325,-4.4326,-4.7279,-5.0058,-5.079,-5.2569,-5.421,-5.4391,-5.4939,-5.5034,-5.3618,-5.2902,-5.2135,-5.0855,-5.3759,-5.6703,-5.7791,-6.1704,-6.4897,-6.5782,-6.5897,-6.5933,-6.6041,-6.6542,-6.6957,-6.7187,-6.8078,-6.8962,-6.9743,-6.9344,-6.945,-7.0309,-7.0387,-7.066,-7.1324,-7.1334,-7.1318,-7.1246,-7.1474,-7.201,-7.2851,-7.3748,-7.4606,-7.5464,-7.5846,-7.6035,-7.6017,-7.5503,-7.5322,-7.5359,-7.6011,-7.6564,-7.6985,-7.762,-7.7569,-7.7085,-7.7144,-7.6406,-7.5381,-7.5219,-7.5584,-7.6203,-7.6827,-7.7127,-7.7273,-7.7273,-7.7273,-7.7273,-7.7273,-7.7273,-7.7273,-7.7273,-7.7273,-7.7273,-7.7273,-7.7243,-7.7181,-7.6988,-7.74,-7.7782,-7.7632,-7.7449,-7.7413,-7.7628,-7.7568,-7.7378,-7.7178,-7.7638,-7.7085,-7.4623,-7.4965,-7.5439,-7.5439,-7.5067,-7.4796,-7.4627,-7.4255,-7.3883,-7.351,-7.4018,-7.4322,-7.4322,-7.4864,-7.5236,-7.5405,-7.5439,-7.5506,-7.5709,-7.5709,-7.5709,-7.5709,-7.5662,-7.5918,-4.6502,-4.8992,-5.123,-5.1865,-5.331,-5.4342,-5.343,-5.3876,-5.3766,-5.1212,-5.0385,-4.9719,-4.8443,-5.2315,-5.5863,-5.6324,-6.1346,-6.5346,-6.5782,-6.5885,-6.6075,-6.6487,-6.687,-6.7331,-6.7887,-6.8864,-6.9702,-7.0285,-7.0091,-7.0348,-7.1206,-7.1285,-7.1474,-7.1927,-7.1966,-7.1924,-7.1914,-7.1852,-7.2317,-7.322,-7.4078,-7.4975,-7.5833,-7.6515,-7.6677,-7.6408,-7.6664,-7.6776,-7.692,-7.7741,-7.8108,-7.8147,-7.8645,-7.853,-7.8096,-7.8008,-7.7581,-7.7053,-7.6952,-7.6866,-7.6771,-7.6754,-7.698,-7.7273,-7.7273,-7.7273,-7.7273,-7.7273,-7.7273,-7.7273,-7.7273,-7.7567,-7.7892,-7.7892,-7.8148,-7.8405,-7.8405,-7.8772,-7.9181,-7.9453,-7.9682,-7.9852,-7.9852,-7.972,-7.9462,-7.9124,-7.9212,-7.8721,-7.6782,-7.673,-7.677,-7.6346,-7.5993,-7.5603,-7.5148,-7.4796,-7.4559,-7.4458,-7.4864,-7.51,-7.51,-7.5473,-7.5709,-7.5709,-7.5709,-7.5709,-7.5709,-7.6048,-7.6048,-7.5709,-7.6386,-7.6792,-4.9054,-5.0532,-5.1602,-5.3088,-5.3967,-5.4019,-5.2329,-5.2329,-5.179,-4.8422,-4.7594,-4.7222,-4.6417,-5.1045,-5.5116,-5.5401,-6.1106,-6.559,-6.5755,-6.591,-6.6295,-6.7,-6.7269,-6.7718,-6.8448,-6.9621,-7.0313,-7.033,-7.0619,-7.115,-7.1943,-7.1979,-7.1963,-7.1885,-7.1889,-7.1897,-7.191,-7.1951,-7.2434,-7.3388,-7.4242,-7.514,-7.6002,-7.6704,-7.6858,-7.6672,-7.7418,-7.7884,-7.8283,-7.9056,-7.9369,-7.9369,-7.9484,-7.956,-7.951,-7.9133,-7.9043,-7.9041,-7.8604,-7.8062,-7.7445,-7.6581,-7.6754,-7.7273,-7.7273,-7.7273,-7.731,-7.742,-7.7457,-7.7494,-7.7604,-7.8185,-7.8772,-7.8772,-7.9286,-7.98,-7.98,-7.9874,-8.0204,-8.1012,-8.1709,-8.2186,-8.2186,-8.2055,-8.1681,-8.0911,-8.0659,-8.0255,-7.9458,-7.8857,-7.8147,-7.7361,-7.672,-7.6228,-7.6046,-7.5442,-7.5374,-7.6033,-7.6067,-7.6067,-7.6067,-7.6067,-7.6067,-7.6067,-7.596,-7.5933,-7.6001,-7.6603,-7.6589,-7.6048,-7.7367,-7.7705,-4.9582,-5.1361,-5.3072,-5.307,-5.4227,-5.489,-5.3054,-5.2229,-5.0868,-4.7428,-4.5684,-4.4499,-4.3666,-4.7844,-5.2094,-5.4193,-5.9613,-6.4076,-6.543,-6.6249,-6.679,-6.6998,-6.8185,-6.9078,-6.9303,-7.0259,-7.0921,-7.1019,-7.1233,-7.1516,-7.1897,-7.1867,-7.1843,-7.1833,-7.1833,-7.1852,-7.1904,-7.2617,-7.339,-7.4282,-7.5143,-7.6041,-7.6897,-7.7014,-7.7355,-7.7799,-7.7771,-7.7754,-7.7756,-7.8397,-7.8677,-7.8739,-7.9469,-7.9738,-7.9799,-8.0323,-7.9433,-7.7986,-7.8119,-7.7816,-7.7335,-7.7356,-7.7322,-7.7273,-7.7273,-7.7273,-7.742,-7.8185,-7.8369,-7.8516,-7.9176,-7.947,-7.958,-7.958,-7.969,-7.98,-7.98,-8.0314,-8.1048,-8.1819,-8.2113,-8.2186,-8.2186,-8.2154,-8.2121,-8.1952,-8.1748,-8.1579,-8.1405,-7.9804,-7.8571,-7.8447,-7.8175,-7.7964,-7.7942,-7.7794,-7.7794,-7.7899,-7.7934,-7.7934,-7.7934,-7.7934,-7.7934,-7.7934,-7.7229,-7.7125,-7.7743,-7.7189,-7.713,-7.7604,-7.7874,-7.8247,-5.1337,-5.242,-5.3292,-5.3612,-5.453,-5.4447,-5.0971,-5.0245,-4.8945,-4.4246,-4.3005,-4.2499,-4.1647,-4.6041,-5.0353,-5.1978,-5.8003,-6.2885,-6.4096,-6.5771,-6.7079,-6.7582,-6.9088,-7.0262,-7.0714,-7.1273,-7.1644,-7.1727,-7.1435,-7.1458,-7.1848,-7.1761,-7.177,-7.177,-7.1725,-7.1744,-7.1803,-7.2707,-7.3592,-7.452,-7.5397,-7.6242,-7.7101,-7.7101,-7.7215,-7.7422,-7.7687,-7.769,-7.7585,-7.8223,-7.8477,-7.8515,-7.8977,-7.94,-7.9846,-8.02,-7.9817,-7.9076,-7.8971,-7.8544,-7.8073,-7.8385,-7.83,-7.8057,-7.7996,-7.8259,-7.8699,-7.9103,-7.9213,-7.9286,-7.969,-8.0094,-8.0424,-8.0424,-8.0718,-8.1048,-8.1048,-8.1342,-8.1746,-8.2113,-8.2186,-8.2186,-8.2186,-8.2186,-8.2186,-8.2186,-8.2121,-8.2055,-8.2055,-8.1089,-8.018,-7.9572,-7.9337,-7.9019,-7.8571,-7.8447,-7.8399,-7.8399,-7.8399,-7.8399,-7.8399,-7.8399,-7.8616,-7.9037,-7.8613,-7.8772,-7.9548,-7.9508,-7.9488,-7.9453,-8.0248,-8.0593,-5.2569,-5.3022,-5.3103,-5.3943,-5.4638,-5.3846,-4.9105,-4.8426,-4.7264,-4.1686,-4.0922,-4.1084,-4.0633,-4.4852,-4.887,-5.0428,-5.6332,-6.1299,-6.2762,-6.5217,-6.7252,-6.8316,-6.9896,-7.1237,-7.2096,-7.2304,-7.2442,-7.2688,-7.2399,-7.2153,-7.1965,-7.2139,-7.2235,-7.2235,-7.2174,-7.2259,-7.2518,-7.3438,-7.4279,-7.5039,-7.5915,-7.6633,-7.7101,-7.7101,-7.711,-7.7144,-7.7439,-7.7448,-7.7345,-7.7982,-7.8246,-7.8284,-7.8631,-7.9323,-8.0092,-8.0092,-8.0263,-8.0503,-8.0002,-7.9449,-7.8966,-7.9335,-7.915,-7.8866,-7.8866,-7.9349,-7.9863,-8.0016,-8.0057,-8.0094,-8.0241,-8.0791,-8.1269,-8.1269,-8.1746,-8.2186,-8.2186,-8.2186,-8.2186,-8.2186,-8.2186,-8.2186,-8.2186,-8.2186,-8.2186,-8.2186,-8.2333,-8.2443,-8.2443,-8.2311,-8.1902,-8.1021,-8.0584,-8.0068,-7.9376,-7.9139,-7.9054,-7.9054,-7.9014,-7.8973,-7.8973,-7.8973,-7.9362,-8.0181,-7.9976,-8.0351,-8.1303,-8.1723,-8.1672,-8.1286,-8.2436,-8.2682,-5.1654,-5.2246,-5.2806,-5.348,-5.4396,-5.3971,-4.9695,-4.8319,-4.6691,-4.2297,-4.0883,-4.0616,-4.1275,-4.3721,-4.6931,-5.0856,-5.4651,-5.8448,-6.2357,-6.5123,-6.7332,-6.8977,-7.0614,-7.1975,-7.2882,-7.2964,-7.3297,-7.4205,-7.5298,-7.49,-7.2628,-7.3449,-7.3976,-7.3976,-7.3967,-7.4359,-7.524,-7.6092,-7.662,-7.6797,-7.7714,-7.7804,-7.7101,-7.7101,-7.7528,-7.8217,-7.7142,-7.6687,-7.6719,-7.7215,-7.74,-7.7553,-7.9092,-8.0208,-8.0977,-8.0977,-8.1,-8.0959,-8.0503,-8.0023,-7.9645,-7.9867,-7.9503,-7.909,-7.9676,-7.994,-8.0099,-8.0713,-8.0901,-8.1048,-8.1782,-8.2039,-8.2076,-8.2076,-8.215,-8.2186,-8.2186,-8.2186,-8.2186,-8.2186,-8.2186,-8.2186,-8.2186,-8.2186,-8.2186,-8.2186,-8.281,-8.3287,-8.3287,-8.3254,-8.3221,-8.3121,-8.2121,-8.1441,-8.1336,-8.1197,-8.1127,-8.1127,-8.0948,-8.084,-8.084,-8.084,-8.1237,-8.2069,-8.1207,-8.1493,-8.2989,-8.227,-8.219,-8.2787,-8.2928,-8.2963,-5.3192,-5.3849,-5.4216,-5.5504,-5.5307,-5.3745,-4.9708,-4.7817,-4.5715,-4.1628,-4.053,-4.054,-4.1342,-4.3138,-4.5736,-4.948,-5.2919,-5.6205,-5.9453,-6.293,-6.5849,-6.7523,-7.0091,-7.2231,-7.3641,-7.4219,-7.4673,-7.508,-7.6269,-7.6545,-7.5553,-7.5159,-7.4744,-7.42,-7.4706,-7.5167,-7.5541,-7.6933,-7.766,-7.7718,-7.8125,-7.8186,-7.7843,-7.7335,-7.7296,-7.7564,-7.696,-7.6941,-7.7329,-7.7403,-7.7996,-7.8861,-7.9554,-8.0323,-8.1093,-8.1093,-8.1093,-8.1045,-8.0558,-8.0406,-8.0469,-8.0756,-8.0831,-8.0793,-8.0886,-8.1237,-8.1686,-8.1792,-8.1833,-8.1912,-8.2145,-8.2186,-8.2186,-8.2186,-8.2186,-8.2186,-8.2186,-8.2186,-8.2186,-8.2186,-8.2186,-8.2186,-8.2186,-8.2186,-8.237,-8.2847,-8.3214,-8.3398,-8.3398,-8.3398,-8.3214,-8.2737,-8.2138,-8.1785,-8.1785,-8.1549,-8.141,-8.141,-8.167,-8.1817,-8.1817,-8.2287,-8.2903,-8.3736,-8.3365,-8.3754,-8.4796,-8.4482,-8.4465,-8.4752,-8.4752,-8.4752,-5.3798,-5.4842,-5.5366,-5.6809,-5.5891,-5.3565,-4.9654,-4.7466,-4.5152,-4.1122,-4.0301,-4.0454,-4.1036,-4.2717,-4.5038,-4.8181,-5.1544,-5.4944,-5.8498,-6.1784,-6.4726,-6.7133,-6.9731,-7.2062,-7.401,-7.5653,-7.6626,-7.6626,-7.7793,-7.8398,-7.8128,-7.7416,-7.6609,-7.5754,-7.6298,-7.6764,-7.6998,-7.8253,-7.8774,-7.8588,-7.8666,-7.8433,-7.7999,-7.7375,-7.7257,-7.7489,-7.7282,-7.7577,-7.8175,-7.8242,-7.8862,-7.9823,-8.0092,-8.0554,-8.1093,-8.1093,-8.1093,-8.11,-8.1005,-8.1022,-8.1182,-8.1802,-8.2103,-8.2192,-8.2045,-8.2375,-8.2727,-8.2534,-8.2439,-8.2375,-8.2284,-8.2219,-8.2186,-8.2186,-8.2186,-8.2186,-8.2186,-8.2186,-8.2186,-8.2186,-8.2186,-8.226,-8.2517,-8.2553,-8.2847,-8.3654,-8.3985,-8.4022,-8.3801,-8.3985,-8.3801,-8.2994,-8.2784,-8.2575,-8.2355,-8.2048,-8.1986,-8.2241,-8.2575,-8.2758,-8.2758,-8.3229,-8.3881,-8.4678,-8.4678,-8.5076,-8.5909,-8.5909,-8.5909,-8.5909,-8.5909,-8.5909,-5.2675,-5.4544,-5.5798,-5.6662,-5.5747,-5.3534,-4.9518,-4.7403,-4.5152,-4.1122,-4.0301,-4.0301,-4.0301,-4.2326,-4.4847,-4.7406,-5.0627,-5.4868,-6.0752,-6.2357,-6.4458,-6.8661,-6.9922,-7.1412,-7.3972,-7.7258,-7.9263,-7.9263,-8.0446,-8.079,-7.9941,-8.0312,-8.0144,-7.9251,-7.9251,-7.9678,-8.0533,-8.0628,-8.0251,-7.9476,-7.9563,-7.8706,-7.7101,-7.7101,-7.757,-7.8387,-7.8184,-7.8479,-7.9155,-7.9792,-7.9957,-7.99,-8.0746,-8.1093,-8.1093,-8.1093,-8.1093,-8.1208,-8.2016,-8.1977,-8.1767,-8.2987,-8.3071,-8.2767,-8.3086,-8.3024,-8.2874,-8.2727,-8.2571,-8.2407,-8.2407,-8.2316,-8.2186,-8.2186,-8.2186,-8.2186,-8.2186,-8.2186,-8.2186,-8.2186,-8.2186,-8.2443,-8.3251,-8.3398,-8.3654,-8.4462,-8.527,-8.549,-8.4682,-8.527,-8.5453,-8.4646,-8.4572,-8.4242,-8.3471,-8.3231,-8.3422,-8.4227,-8.3951,-8.3774,-8.3774,-8.3593,-8.3881,-8.4678,-8.4678,-8.5076,-8.5909,-8.5909,-8.5909,-8.5909,-8.5909,-8.5909,-5.0243,-5.1898,-5.3132,-5.3433,-5.228,-5.0365,-4.7428,-4.5571,-4.3658,-4.0746,-4.0253,-4.0454,-4.1036,-4.2259,-4.4781,-4.9622,-5.227,-5.5556,-6.0867,-6.3847,-6.6407,-6.889,-7.2444,-7.5501,-7.7487,-7.8634,-7.9513,-8.0086,-8.063,-8.0885,-8.0776,-8.105,-8.0619,-7.9328,-7.9872,-8.0339,-8.061,-8.1217,-8.1143,-8.0377,-7.9809,-7.8983,-7.7999,-7.7999,-7.8155,-7.8429,-7.8952,-7.9499,-7.998,-8.0223,-8.0459,-8.0708,-8.0977,-8.1093,-8.1093,-8.1093,-8.1439,-8.1939,-8.2208,-8.2744,-8.339,-8.3748,-8.3733,-8.3558,-8.3672,-8.3395,-8.3091,-8.2874,-8.2721,-8.2602,-8.2602,-8.2571,-8.2539,-8.2539,-8.2539,-8.2539,-8.2539,-8.2539,-8.2655,-8.3079,-8.319,-8.3382,-8.4095,-8.4242,-8.4499,-8.5306,-8.5637,-8.571,-8.5453,-8.5637,-8.549,-8.4682,-8.4609,-8.4499,-8.4242,-8.4037,-8.4044,-8.4264,-8.4603,-8.4718,-8.461,-8.5009,-8.537,-8.5511,-8.5511,-8.5656,-8.5909,-8.5909,-8.5909,-8.5909,-8.5909,-8.5909,-4.8408,-5.0429,-5.1893,-5.1893,-5.0691,-4.8957,-4.6883,-4.5166,-4.3464,-4.1434,-4.1109,-4.1322,-4.1905,-4.2947,-4.5163,-4.948,-5.1849,-5.525,-6.1249,-6.3923,-6.6598,-7.019,-7.3972,-7.7029,-7.9111,-7.9856,-8.043,-8.0964,-8.1197,-8.1253,-8.12,-8.1375,-8.0993,-7.9834,-8.0649,-8.0921,-8.061,-8.1154,-8.087,-7.9791,-7.9271,-7.8778,-7.8341,-7.8401,-7.8741,-7.9444,-8.0302,-8.0742,0.0,-8.1232,-8.124,-8.1093,-8.1093,-8.1093,-8.1093,-8.1093,-8.1593,-8.2362,-8.267,-8.3483,-8.4402,-8.4576,-8.4287,-8.3922,-8.3922,-8.3555,-8.318,-8.3024,-8.2874,-8.2788,-8.2788,-8.2727,-8.2696,-8.2696,-8.2696,-8.277,-8.3102,-8.3139,-8.3366,-8.4046,-8.4161,-8.4387,-8.5136,-8.5184,-8.5444,-8.6216,-8.6295,-8.6151,-8.582,-8.604,-8.593,-8.5123,-8.5306,-8.5527,-8.5527,-8.5094,-8.4989,-8.5282,-8.5584,-8.5735,-8.5628,-8.5992,-8.6136,-8.5986,-8.5986,-8.5948,-8.5909,-8.5909,-8.5909,-8.5909,-8.5909,-8.5909,0.0,-4.9602,-5.1442,-5.1405,-5.0241,-4.8769,-4.7269,-4.5728,0.0,-4.2856,-4.2607,-4.2688,-4.3003,-4.4284,-4.5965,-4.7941,-5.0424,-5.4702,-6.2051,-6.3427,-6.6139,-7.2673,-7.4775,-7.6685,-7.9302,-8.0926,-8.1805,-8.1805,-8.1967,-8.1814,-8.1239,-8.1324,-8.1126,-8.0601,-8.1349,-8.1349,-8.0533,-8.0572,-7.9765,-7.809,-7.8273,-7.8378,-7.832,-7.8493,-7.9483,-8.1044,-8.1981,-8.2145,-8.1854,-8.2601,-8.222,-8.117,-8.1131,-8.1093,-8.1093,-8.1093,-8.1631,-8.2516,-8.3324,-8.4209,-8.5027,-8.5303,-8.4749,-8.3989,-8.3949,-8.3555,-8.318,-8.318,-8.3091,-8.2934,-8.2934,-8.2813,-8.2764,-8.2801,-8.2838,-8.3059,-8.3835,-8.402,-8.4242,-8.5054,-8.5239,-8.5461,-8.6241,-8.6295,-8.6421,-8.7194,-8.7132,-8.6738,-8.5967,-8.6554,-8.6701,-8.5967,-8.6554,-8.6995,-8.6995,-8.6334,-8.6187,-8.6958,-8.6821,-8.6679,-8.6679,-8.6501,-8.632,-8.6137,-8.6137,-8.6062,-8.5947,-8.5947,-8.5947,-8.5947,-8.5947,-8.5947,-4.4045,0.0,-4.7012,-4.6396,-4.5946,-4.5435,0.0,-4.3941,-4.3454,-4.2602,-4.2514,-4.3221,-4.5256,-4.543,-4.692,-5.1811,-5.5288,-5.9109,-6.4114,-6.8699,-7.3093,-7.7314,-7.7564,-7.8672,-8.1805,-8.192,-8.1805,-8.1805,-8.1823,-8.167,-8.1224,-8.0599,-8.0367,-8.0601,-8.0144,-7.9795,-7.96,-8.0261,-7.9765,-7.8129,-7.9522,-7.9547,-7.8359,-7.9742,-8.0615,-8.1083,-8.2567,-8.3003,-8.2621,-8.2834,-8.2569,-8.1939,-8.1323,-8.1093,-8.1093,-8.1093,-8.2016,-8.3324,-8.3516,-8.4555,-8.5757,-8.5495,-8.5238,-8.4882,-8.4142,-8.3555,-8.318,-8.318,-8.3151,-8.3151,-8.3151,-8.3091,-8.321,-8.384,-8.3989,-8.4211,-8.5028,-8.5176,-8.5405,-8.6132,-8.6249,-8.6476,-8.7124,-8.7169,-8.7214,-8.7301,-8.7271,-8.7129,-8.6738,-8.6885,-8.6921,-8.6738,-8.6885,-8.6995,-8.6995,-8.6848,-8.6811,-8.6995,-8.696,-8.6856,-8.6715,-8.6643,-8.6536,-8.632,-8.632,-8.6283,-8.6283,-8.6283,-8.6283,-8.6283,-8.6283,-8.6283,-4.3182,-4.4458,-4.5697,-4.5646,-4.5359,-4.5059,-4.5021,-4.4438,-4.3817,-4.3542,-4.3549,-4.4209,-4.6134,-4.7422,-4.948,-5.3454,-5.7581,-6.2128,-6.7515,-7.2711,-7.6761,-7.9034,-7.9551,-8.0582,-8.2798,-8.2951,-8.276,-8.2378,-8.234,-8.1969,-8.1062,-8.0694,-8.0474,-8.0415,-8.0068,-7.9717,-7.929,-7.9756,-7.9537,-7.8652,-7.97,-7.9929,-7.9484,-8.0531,-8.1435,-8.2215,-8.3543,-8.3932,-8.361,-8.3532,-8.3064,-8.2343,-8.1462,-8.1093,-8.1131,-8.1516,-8.2477,-8.367,-8.4055,-8.5016,-8.606,-8.5793,-8.559,-8.5317,-8.4727,-8.4066,-8.348,-8.3268,-8.318,-8.318,-8.318,-8.3477,-8.3849,-8.4295,-8.4666,-8.5149,-8.5966,-8.6152,-8.6382,-8.7142,-8.7291,-8.7407,-8.772,-8.7697,-8.7632,-8.7534,-8.7435,-8.7335,-8.7132,-8.7169,-8.7098,-8.6995,-8.6995,-8.6995,-8.6995,-8.6995,-8.6995,-8.6995,-8.6995,-8.6925,-8.6856,-8.6856,-8.675,-8.6536,-8.6465,-8.6429,-8.6429,-8.6429,-8.6429,-8.6429,-8.6794,-8.6939,-4.367,-4.5021,-4.6336,-4.6561,-4.6261,-4.6073,-4.6674,-4.5697,-4.4749,-4.5012,-4.5193,-4.5823,-4.7554,-5.0149,-5.2754,-5.5211,-5.963,-6.4955,-7.1183,-7.5386,-7.8213,-7.934,-8.0735,-8.2073,-8.3257,-8.383,-8.3792,-8.3066,-8.2875,-8.2242,-8.0871,-8.093,-8.0769,-8.0233,-8.0329,-8.0105,-7.9484,-7.9484,-7.9445,-7.9299,-7.971,-8.0263,-8.1014,-8.1124,-8.2098,-8.3738,-8.448,-8.4746,-8.4669,-8.447,-8.3762,-8.269,-8.1691,-8.1208,-8.1208,-8.2016,-8.2862,-8.3747,-8.4747,-8.5517,-8.6094,-8.6094,-8.5849,-8.5533,-8.5569,-8.5022,-8.4215,-8.3788,-8.3528,-8.3366,-8.3366,-8.396,-8.4592,-8.474,-8.5298,-8.6004,-8.6821,-8.7007,-8.723,-8.7935,-8.8084,-8.8084,-8.8084,-8.7958,-8.7863,-8.7794,-8.7628,-8.7464,-8.7335,-8.7338,-8.7237,-8.7029,-8.6995,-8.6995,-8.6995,-8.6995,-8.6995,-8.6995,-8.6995,-8.6995,-8.6995,-8.6995,-8.6925,-8.675,-8.6609,-8.6501,-8.6501,-8.6501,-8.6538,-8.6684,-8.7341,-8.7778,-4.5472,-4.7612,-4.8198,-4.5533,-4.5833,-4.6636,-4.6035,-4.5697,-4.5778,-4.6633,-4.6932,-4.8553,-5.3684,-5.4112,-5.5618,-6.1462,-6.5588,-6.9387,-7.3284,-7.5615,-7.7755,-8.0047,-8.0544,-8.1843,-8.4824,-8.3945,-8.3142,-8.299,-8.2378,-8.1629,-8.0833,-8.0352,-8.0151,-8.0195,-7.9757,-7.9795,-8.0377,-8.0416,-8.0028,-7.9338,-8.0924,-8.1786,-8.1912,-8.2023,-8.2996,-8.4597,-8.4753,-8.5097,-8.5566,-8.5365,-8.4682,-8.3579,-8.2539,-8.1708,-8.1208,-8.2016,-8.2862,-8.3824,-8.5363,-8.6017,-8.6094,-8.6094,-8.606,-8.6073,-8.6394,-8.6386,-8.6203,-8.5985,-8.5105,-8.422,-8.422,-8.4815,-8.5595,-8.6264,-8.6524,-8.6858,-8.7712,-8.7898,-8.7935,-8.8047,-8.8084,-8.8084,-8.8084,-8.8053,-8.799,-8.7863,-8.7762,-8.7697,-8.7497,-8.7368,-8.7305,-8.7271,-8.7098,-8.6995,-8.6995,-8.6995,-8.6995,-8.6995,-8.6995,-8.6995,-8.6995,-8.6995,-8.696,-8.6925,-8.6925,-8.6891,-8.6891,-8.6891,-8.7257,-8.7952,-8.8062,-8.8467,-4.3769,-4.6171,-4.7838,-4.6786,-4.9114,-5.1764,-5.2306,-5.1705,-5.1045,-5.1071,-5.1209,-5.2386,-5.5977,-5.7772,-6.1042,-6.8302,-7.0828,-7.2941,-7.5844,-7.7335,-7.8863,-8.0964,-8.1996,-8.2951,-8.4059,-8.3868,-8.3333,-8.2416,-8.1996,-8.1441,-8.0705,-8.0498,-8.0511,-8.0731,-8.0589,-8.0756,-8.131,-8.131,-8.1116,-8.0736,-8.1636,-8.2058,-8.2104,-8.2656,-8.3572,-8.4792,-8.4792,-8.5512,-8.6556,-8.5321,-8.4523,-8.3928,-8.2753,-8.2054,-8.19,-8.3208,-8.4247,-8.5055,-8.5824,-8.6094,-8.6094,-8.6094,-8.644,-8.6829,-8.7,-8.7198,-8.7322,-8.7232,-8.6378,-8.5404,-8.5128,-8.5632,-8.6338,-8.6709,-8.7155,-8.7601,-8.801,-8.8084,-8.8084,-8.8084,-8.8084,-8.8084,-8.8084,-8.8084,-8.8053,-8.799,-8.7958,-8.7895,-8.7697,-8.76,-8.7534,-8.7435,-8.7268,-8.7169,-8.7169,-8.7029,-8.6995,-8.6995,-8.6995,-8.6995,-8.6995,-8.6995,-8.6995,-8.6995,-8.6995,-8.7215,-8.7655,-8.7655,-8.8059,-8.8867,-8.9307,-8.9711,-4.2905,-4.5158,-4.765,-4.9265,-5.1931,-5.4805,-5.7263,-5.6399,-5.5122,-5.5498,-5.5655,-5.6413,-5.8467,-6.2193,-6.694,-7.2893,-7.4358,-7.5386,-7.7182,-7.8328,-7.9627,-8.1308,-8.2646,-8.3372,-8.3295,-8.3563,-8.3181,-8.192,-8.1614,-8.1194,-8.0544,-8.0698,-8.0923,-8.12,-8.1387,-8.1613,-8.1892,-8.1892,-8.1892,-8.1892,-8.1959,-8.2128,-8.2414,-8.2885,-8.3743,-8.4792,-8.4597,-8.5377,-8.6652,-8.4918,-8.4068,-8.3806,-8.2733,-8.2401,-8.2785,-8.4324,-8.5401,-8.6094,-8.6094,-8.6094,-8.6132,-8.6324,-8.6863,-8.7478,-8.7863,-8.817,-8.8365,-8.8456,-8.7916,-8.7182,-8.6434,-8.6772,-8.7257,-8.7257,-8.7687,-8.8084,-8.8084,-8.8084,-8.8084,-8.8084,-8.8084,-8.8084,-8.8084,-8.8084,-8.8084,-8.8084,-8.8084,-8.8053,-8.7895,-8.7826,-8.773,-8.7563,-8.7435,-8.7335,-8.7305,-8.7135,-8.6995,-8.6995,-8.6995,-8.6995,-8.6995,-8.6995,-8.6995,-8.6995,-8.6995,-8.7399,-8.8206,-8.8206,-8.872,-8.9711,-9.0335,-9.0702,-4.557,-4.735,-4.9039,-5.2982,-5.1931,-5.118,-5.5911,-5.5102,-5.4426,-5.8164,-5.9098,-6.0239,-6.3445,-6.8393,-7.2144,-7.2733,-7.4898,-7.6303,-7.5786,-7.7067,-7.871,-8.0391,-8.0697,-8.169,-8.3983,-8.2875,-8.192,-8.1805,-8.1041,-8.0582,-8.0506,-8.0698,-8.0923,-8.12,-8.1387,-8.1613,-8.1892,-8.1892,-8.1892,-8.1892,-8.1959,-8.2445,-8.3197,-8.2573,-8.3196,-8.4753,-8.3933,-8.4128,-8.4934,-8.4412,-8.3718,-8.2951,-8.2463,-8.2785,-8.3632,-8.4555,-8.5401,-8.6094,-8.6094,-8.6094,-8.6247,-8.7055,-8.7363,-8.7671,-8.9248,-8.9731,-8.9817,-9.0143,-9.0169,-8.9828,-8.8511,-8.844,-8.8645,-8.8645,-8.8361,-8.8084,-8.8084,-8.8084,-8.8084,-8.8084,-8.8084,-8.8084,-8.8084,-8.8084,-8.8084,-8.8084,-8.8084,-8.8084,-8.8084,-8.7927,-8.7794,-8.7762,-8.7595,-8.7468,-8.7338,-8.7135,-8.6995,-8.6995,-8.6995,-8.6995,-8.6995,-8.6995,-8.6995,-8.6995,-8.6995,-8.7399,-8.8206,-8.8206,-8.9014,-9.0519,-9.0592,-9.0996,-4.3318,-4.6411,-4.949,-5.1593,-5.3095,-5.5272,-5.9703,-6.0755,-6.1581,-6.4172,-6.4382,-6.4668,-6.6558,-7.0781,-7.3877,-7.3534,-7.486,-7.5997,-7.6227,-7.7258,-7.8634,-8.0315,-8.1423,-8.2225,-8.2684,-8.2607,-8.2111,-8.1079,-8.0697,-8.0506,-8.0506,-8.0578,-8.0716,-8.0939,-8.1175,-8.1439,-8.1663,-8.1805,-8.1892,-8.1892,-8.1926,-8.2409,-8.3272,-8.3021,-8.3594,-8.4753,-8.3894,-8.3972,-8.4739,-8.3789,-8.3213,-8.2912,-8.3042,-8.3632,-8.4516,-8.5363,-8.5863,-8.6094,-8.6094,-8.644,-8.6978,-8.7286,-8.8094,-8.9056,-8.971,-9.0287,-9.0713,-9.0875,-9.0915,-9.0646,-8.9459,-8.9225,-8.93,-8.93,-8.8887,-8.8538,-8.8538,-8.8286,-8.8084,-8.8084,-8.8084,-8.8084,-8.8084,-8.8084,-8.8084,-8.8084,-8.8084,-8.8084,-8.8084,-8.8021,-8.799,-8.799,-8.7794,-8.7632,-8.7468,-8.7332,-8.7298,-8.7298,-8.7132,-8.6995,-8.6995,-8.6995,-8.6995,-8.6995,-8.7509,-8.8133,-8.8977,-8.9454,-9.0262,-9.1363,-9.1363,-9.151,-4.4219,-4.7237,-5.0691,-5.2569,-5.4972,-5.8051,-6.2407,-6.3909,-6.511,-6.7814,-6.799,-6.7923,-6.8833,-7.1819,-7.4066,-7.3859,-7.4958,-7.6074,-7.6609,-7.7449,-7.871,-8.0697,-8.169,-8.2302,-8.2569,-8.2607,-8.2149,-8.1003,-8.0659,-8.0506,-8.0506,-8.0506,-8.065,-8.0923,-8.109,-8.135,-8.1613,-8.1805,-8.1892,-8.1892,-8.1892,-8.2277,-8.2921,-8.2921,-8.3317,-8.3972,-8.3386,-8.3465,-8.3923,-8.2992,-8.2688,-8.2848,-8.3384,-8.4132,-8.5016,-8.5786,-8.6094,-8.6132,-8.6401,-8.6901,-8.7478,-8.8017,-8.8979,-8.994,-9.0248,-9.0748,-9.121,-9.121,-9.121,-9.1046,-9.0317,-8.9954,-8.9839,-8.9839,-8.9452,-8.9039,-8.9039,-8.8682,-8.8316,-8.8316,-8.8202,-8.8084,-8.8084,-8.8084,-8.8084,-8.8084,-8.8084,-8.8084,-8.8084,-8.8084,-8.8084,-8.8084,-8.7927,-8.773,-8.7595,-8.753,-8.7497,-8.7497,-8.7265,-8.7132,-8.71,-8.7029,-8.6995,-8.6995,-8.7802,-8.861,-8.9382,-9.0225,-9.1069,-9.1912,-9.1912,-9.1948,-4.9452,-5.0654,-5.2944,-5.7019,-5.7525,-5.8276,-6.3195,-6.3045,-6.327,-6.8206,-6.9411,-6.9741,-7.0373,-7.1726,-7.2908,-7.3494,-7.5342,-7.6685,-7.6685,-7.7449,-7.8939,-8.1499,-8.1041,-8.1499,-8.4021,-8.276,-8.1805,-8.1805,-8.1003,-8.0506,-8.0506,-8.0506,-8.0737,-8.1186,-8.12,-8.1414,-8.1892,-8.1892,-8.1892,-8.1892,-8.1892,-8.1959,-8.2095,-8.2098,-8.2183,-8.2293,-8.2293,-8.2293,-8.2287,-8.2078,-8.2258,-8.2664,-8.3333,-8.4132,-8.5016,-8.5824,-8.6094,-8.6247,-8.7094,-8.7401,-8.7709,-8.9363,-8.9902,-9.0094,-9.0941,-9.121,-9.121,-9.121,-9.121,-9.121,-9.121,-9.08,-9.0402,-9.0402,-9.0015,-8.9625,-8.9625,-8.9171,-8.8804,-8.8804,-8.8428,-8.8115,-8.8115,-8.8115,-8.8115,-8.8115,-8.8084,-8.8084,-8.8084,-8.8084,-8.8084,-8.8084,-8.7927,-8.7794,-8.7794,-8.7595,-8.7497,-8.7497,-8.7497,-8.7468,-8.7305,-8.7098,-8.7031,-8.7031,-8.7802,-8.861,-8.9417,-9.0225,-9.114,-9.2091,-9.2091,-9.2198,-4.5284,-4.9715,-5.4504,-5.4634,-5.929,-6.4096,-6.496,-6.5674,-6.7063,-7.0308,-7.1952,-7.25,-7.1494,-7.2906,-7.4065,-7.3664,-7.4885,-7.6036,-7.6609,-7.7449,-7.8519,-7.9856,-8.085,-8.1461,-8.1614,-8.1729,-8.1538,-8.0926,-8.0659,-8.0773,-8.1385,-8.0812,-8.09,-8.1792,-8.1422,-8.135,-8.1602,-8.1805,-8.1892,-8.1892,-8.1892,-8.2256,-8.2869,-8.2347,-8.2447,-8.3042,-8.2545,-8.2293,-8.2323,-8.2557,-8.2979,-8.3592,-8.4258,-8.5016,-8.5786,-8.6017,-8.6478,-8.7055,-8.7325,-8.8171,-8.9248,-8.9748,-9.0325,-9.0864,-9.1133,-9.121,-9.121,-9.121,-9.121,-9.121,-9.121,-9.1082,-9.0952,-9.0952,-9.0564,-9.0171,-9.0171,-8.9745,-8.9377,-8.9377,-8.9249,-8.9156,-8.9156,-8.8869,-8.8596,-8.8596,-8.8316,-8.8084,-8.8084,-8.8084,-8.8084,-8.8084,-8.8053,-8.8021,-8.8021,-8.7958,-8.7921,-8.7921,-8.8312,-8.8224,-8.7468,-8.7365,-8.7626,-8.825,-8.9064,-8.9838,-9.0649,-9.146,-9.2012,-9.2303,-9.2303,-9.2338,-5.0241,-5.4747,-5.914,-5.9478,-6.2707,-6.6182,-6.7626,-6.849,-6.9316,-7.0458,-7.1794,-7.2507,-7.1832,-7.2902,-7.3909,-7.4061,-7.4866,-7.5883,-7.7067,-7.7678,-7.8557,-8.0086,-8.1194,-8.1843,-8.1996,-8.2187,-8.234,-8.2493,-8.1881,-8.1881,-8.276,-8.1958,-8.1821,-8.26,-8.2355,-8.2121,-8.2026,-8.2241,-8.2203,-8.1892,-8.1892,-8.2189,-8.2652,-8.2279,-8.2402,-8.289,-8.2474,-8.2293,-8.2323,-8.2805,-8.3398,-8.4091,-8.4758,-8.5668,-8.6632,-8.6632,-8.7171,-8.794,-8.8286,-8.9056,-8.9979,-9.0325,-9.0787,-9.121,-9.121,-9.121,-9.121,-9.121,-9.121,-9.121,-9.121,-9.121,-9.121,-9.121,-9.0952,-9.0742,-9.0742,-9.0317,-8.9908,-8.9908,-8.9745,-8.9601,-8.9601,-8.9326,-8.9118,-8.9118,-8.8897,-8.8596,-8.8399,-8.8406,-8.8316,-8.8115,-8.8084,-8.8084,-8.8084,-8.8084,-8.8233,-8.8567,-8.8918,-8.9007,-8.8725,-8.8557,-8.8749,-8.9267,-9.0046,-9.071,-9.1191,-9.2003,-9.2444,-9.2513,-9.2513,-9.2547,-5.944,-6.2369,-6.4885,-6.7926,-6.6687,-6.5936,-7.0442,-7.1006,-7.0405,-6.9669,-7.0217,-7.1043,-7.1681,-7.226,-7.3095,-7.4553,-7.5247,-7.6188,-7.787,-7.8175,-7.913,-8.1614,-8.192,-8.2493,-8.4021,-8.3448,-8.3639,-8.5282,-8.3983,-8.3524,-8.448,-8.3639,-8.3275,-8.3636,-8.3649,-8.3368,-8.2828,-8.2958,-8.2699,-8.1892,-8.1892,-8.1892,-8.1911,-8.2055,-8.2131,-8.2226,-8.2276,-8.2293,-8.2365,-8.3053,-8.3696,-8.4291,-8.5021,-8.6173,-8.7451,-8.7418,-8.7979,-8.8902,-8.9671,-8.994,-9.0171,-9.0941,-9.121,-9.121,-9.121,-9.121,-9.121,-9.121,-9.121,-9.121,-9.121,-9.121,-9.121,-9.121,-9.121,-9.121,-9.121,-9.082,-9.0464,-9.0464,-9.0082,-8.9745,-8.9745,-8.9721,-8.9673,-8.9625,-8.9601,-8.9427,-8.8941,-8.8887,-8.8701,-8.8293,-8.8171,-8.814,-8.814,-8.8189,-8.853,-8.9236,-8.9421,-8.983,-9.0573,-9.0243,-9.0076,-9.015,-9.0889,-9.1262,-9.137,-9.2109,-9.2547,-9.2717,-9.2717,-9.2822,-5.1855,-5.76,-6.3458,-6.4209,-6.6312,-6.8452,-6.9482,-7.063,-7.1569,-7.2019,-7.2808,-7.3258,-7.2733,-7.3544,-7.4402,-7.4723,-7.5704,-7.7029,-7.8787,-7.9551,-8.0659,-8.2531,-8.2722,-8.2875,-8.3219,-8.3104,-8.341,-8.448,-8.4212,-8.4671,-8.6199,-8.4824,-8.4423,-8.5347,-8.411,-8.3248,-8.2789,-8.2836,-8.2538,-8.1892,-8.1892,-8.1892,-8.1911,-8.2055,-8.2181,-8.2271,-8.2299,-8.2293,-8.2404,-8.3672,-8.4299,-8.4552,-8.57,-8.6763,-8.7645,-8.7462,-8.8363,-8.9671,-8.9863,-9.0364,-9.0941,-9.1133,-9.121,-9.121,-9.121,-9.121,-9.121,-9.121,-9.121,-9.121,-9.121,-9.121,-9.121,-9.121,-9.121,-9.121,-9.121,-9.11,-9.1046,-9.1046,-9.0934,-9.0839,-9.0839,-9.0485,-9.0105,-8.9673,-8.9601,-8.9576,-8.9452,-8.9427,-8.9402,-8.9275,-8.8887,-8.8644,-8.8644,-8.8913,-8.9124,-8.9273,-9.0499,-9.1242,-9.1428,-9.0769,-9.0699,-9.133,-9.1515,-9.1961,-9.2629,-9.2814,-9.2888,-9.2922,-9.2922,-9.2955,-5.4507,-5.9666,-6.4021,-6.5636,-6.7605,-6.9294,-6.9729,-7.0818,-7.1832,-7.2245,-7.2996,-7.3446,-7.2996,-7.3549,-7.4392,-7.5291,-7.6046,-7.734,-7.9551,-8.0238,-8.0964,-8.2264,-8.276,-8.299,-8.299,-8.3715,-8.4709,-8.6008,-8.6123,-8.6658,-8.7918,-8.6428,-8.5761,-8.6298,-8.5179,-8.4372,-8.3836,-8.3553,-8.3087,-8.2475,-8.2087,-8.1908,-8.196,-8.204,-8.2178,-8.2251,-8.2305,-8.2528,-8.2954,-8.4156,-8.4847,-8.5234,-8.6203,-8.7293,-8.8309,-8.8111,-8.9094,-9.0517,-9.0517,-9.0825,-9.121,-9.121,-9.121,-9.121,-9.121,-9.121,-9.121,-9.121,-9.121,-9.121,-9.121,-9.121,-9.121,-9.121,-9.121,-9.121,-9.121,-9.121,-9.121,-9.121,-9.121,-9.121,-9.121,-9.0971,-9.0684,-9.0402,-9.0381,-9.0258,-9.0037,-8.9977,-8.9885,-8.9649,-8.9118,-8.8992,-8.9405,-8.9346,-8.9644,-9.0387,-9.1242,-9.1873,-9.2319,-9.191,-9.1873,-9.2319,-9.2319,-9.2728,-9.3582,-9.3174,-9.3211,-9.3582,-9.3174,-9.2988,-5.7866,-6.2085,-6.4735,-6.8318,-6.9181,-6.9369,-7.0104,-7.1118,-7.1869,-7.1757,-7.247,-7.3071,-7.2921,-7.3235,-7.4077,-7.5821,-7.6424,-7.757,-8.0334,-8.0735,-8.1117,-8.2111,-8.2684,-8.3104,-8.341,-8.4671,-8.6275,-8.8148,-8.8301,-8.8606,-8.9256,-8.7842,-8.6963,-8.679,-8.6182,-8.5582,-8.5019,-8.452,-8.3867,-8.3097,-8.2281,-8.1934,-8.2,-8.2054,-8.2127,-8.2226,-8.2435,-8.2879,-8.3582,-8.4597,-8.5336,-8.5942,-8.6687,-8.7836,-8.9021,-8.8936,-8.9863,-9.121,-9.121,-9.121,-9.121,-9.121,-9.121,-9.121,-9.121,-9.121,-9.121,-9.121,-9.121,-9.121,-9.121,-9.121,-9.121,-9.121,-9.121,-9.121,-9.121,-9.121,-9.121,-9.121,-9.121,-9.121,-9.121,-9.121,-9.121,-9.121,-9.121,-9.1046,-9.0605,-9.0564,-9.0419,-9.0137,-8.9743,-8.9803,-9.0596,-9.0423,-9.0812,-9.2059,-9.2245,-9.2616,-9.3174,-9.3211,-9.3211,-9.3211,-9.3211,-9.3582,-9.44,-9.3731,-9.3768,-9.44,-9.3582,-9.3211,-4.9305,-5.5971,-6.327,-6.8018,-6.9181,-6.9219,-6.9332,-7.1118,-7.2545,-7.1869,-7.2958,-7.3822,-7.3033,-7.3687,-7.4735,-7.5897,-7.6918,-7.8484,-8.1232,-8.1614,-8.2225,-8.3792,-8.3372,-8.3563,-8.5015,-8.5358,-8.6505,-8.895,-8.9141,-8.9179,-8.9294,-8.8415,-8.7575,-8.681,-8.6009,-8.5373,-8.498,-8.4908,-8.4276,-8.3097,-8.2281,-8.1911,-8.1908,-8.2021,-8.2127,-8.2226,-8.3021,-8.3386,-8.3621,-8.526,-8.5995,-8.6168,-8.7353,-8.8427,-8.931,-8.9632,-9.0364,-9.121,-9.121,-9.121,-9.121,-9.121,-9.121,-9.121,-9.121,-9.121,-9.121,-9.121,-9.121,-9.121,-9.121,-9.121,-9.121,-9.121,-9.121,-9.121,-9.121,-9.121,-9.121,-9.121,-9.121,-9.121,-9.121,-9.121,-9.121,-9.121,-9.121,-9.1192,-9.11,-9.11,-9.1351,-9.2026,-9.2265,-9.2489,-9.2834,-9.3766,-9.4179,-9.3876,-9.4511,-9.466,-9.4065,-9.4028,-9.4028,-9.4028,-9.4028,-9.4437,-9.5254,-9.5143,-9.5143,-9.5217,-9.44,-9.4028,-5.104,-5.7621,-6.3511,-6.8055,-6.9181,-6.9444,-7.0383,-7.1456,-7.2395,-7.2996,-7.3709,-7.4085,-7.3709,-7.4026,-7.4868,-7.652,-7.7576,-7.9051,-8.1461,-8.2187,-8.2569,-8.2875,-8.2951,-8.3486,-8.4709,-8.5702,-8.7078,-8.9141,-8.9752,-8.9829,-8.9332,-8.853,-8.7689,-8.6849,-8.597,-8.5493,-8.5511,-8.5152,-8.4366,-8.3097,-8.2747,-8.2553,-8.2572,-8.2718,-8.2776,-8.2839,-8.3304,-8.4323,-8.5729,-8.651,-8.7407,-8.8334,-8.8793,-8.9371,-9.0037,-9.0088,-9.0571,-9.121,-9.121,-9.121,-9.121,-9.121,-9.121,-9.121,-9.121,-9.121,-9.121,-9.121,-9.121,-9.121,-9.121,-9.121,-9.121,-9.121,-9.1245,-9.1241,-9.1241,-9.1241,-9.1258,-9.1308,-9.1275,-9.1258,-9.1308,-9.1241,-9.1227,-9.1241,-9.1206,-9.121,-9.121,-9.1633,-9.2095,-9.2441,-9.3195,-9.3851,-9.4439,-9.4853,-9.5172,-9.5351,-9.4966,-9.4585,-9.4214,-9.4214,-9.44,-9.4845,-9.4437,-9.4808,-9.6071,-9.5626,-9.5626,-9.6034,-9.4771,-9.4214,-5.1849,-5.7285,-6.1276,-6.6324,-6.8093,-6.9166,-7.1231,-7.2057,-7.2695,-7.3934,-7.4347,-7.446,-7.4235,-7.4197,-7.4862,-7.689,-7.7981,-7.9347,-8.1403,-8.2263,-8.2455,-8.1881,-8.2111,-8.2951,-8.4441,-8.5741,-8.7345,-8.9485,-9.0249,-9.0211,-8.937,-8.853,-8.7689,-8.6849,-8.597,-8.5628,-8.5881,-8.536,-8.4533,-8.3446,-8.3446,-8.3291,-8.3116,-8.3459,-8.3738,-8.3984,-8.4092,-8.5377,-8.7446,-8.7876,-8.8813,-9.0016,-8.9994,-9.0266,-9.0602,-9.0585,-9.0867,-9.121,-9.121,-9.121,-9.121,-9.121,-9.121,-9.121,-9.121,-9.121,-9.121,-9.121,-9.121,-9.121,-9.121,-9.121,-9.121,-9.1245,-9.1258,-9.1308,-9.1325,-9.1341,-9.1358,-9.1384,-9.1352,-9.1281,-9.1114,-9.1171,-9.1104,-9.0747,-9.1181,-9.1476,-9.1245,-9.2151,-9.2903,-9.3095,-9.4099,-9.5002,-9.5675,-9.578,-9.5942,-9.6231,-9.5288,-9.4673,-9.4511,-9.4511,-9.4916,-9.5797,-9.5139,-9.5514,-9.6926,-9.6331,-9.6331,-9.6889,-9.5254,-9.4622,-4.6763,-5.038,-5.4138,-6.1426,-6.5086,-6.7739,-7.0968,-7.2921,-7.4085,-7.4197,-7.4798,-7.5098,-7.4347,-7.4197,-7.4816,-7.6685,-7.7911,-7.9246,-8.1126,-8.167,-8.1843,-8.1805,-8.1117,-8.1881,-8.5129,-8.5511,-8.6963,-9.0287,-9.0593,-9.0211,-8.937,-8.853,-8.7689,-8.6849,-8.597,-8.5628,-8.5881,-8.5468,-8.4975,-8.434,-8.434,-8.3913,-8.3116,-8.4083,-8.4987,-8.5777,-8.5927,-8.651,-8.7525,-8.9164,-8.9906,-9.0055,-9.0612,-9.0725,-9.0679,-9.1231,-9.1354,-9.121,-9.121,-9.121,-9.121,-9.121,-9.121,-9.121,-9.121,-9.121,-9.121,-9.121,-9.121,-9.121,-9.121,-9.121,-9.1227,-9.1275,-9.1308,-9.1325,-9.1368,-9.1384,-9.1384,-9.14,-9.14,-9.1152,-9.0396,-9.0882,-9.0844,-8.9262,-9.1011,-9.2216,-9.1407,-9.2648,-9.3941,-9.4788,-9.5654,-9.6327,-9.6614,-9.7326,-9.7313,-9.6299,-9.6141,-9.5901,-9.5362,-9.5328,-9.5868,-9.698,-9.665,-9.6926,-9.7817,-9.778,-9.778,-9.778,-9.6108,-9.5737,-4.5761,-4.8616,-5.1622,-5.8147,-6.2028,-6.5332,-6.9219,-7.1794,-7.3822,-7.5399,-7.5173,-7.4535,-7.4272,-7.461,-7.5417,-7.6799,-7.882,-8.0498,-8.1316,-8.2089,-8.2378,-8.1843,-8.1538,-8.2225,-8.4518,-8.5702,-8.7307,-8.96,-9.0287,-9.0211,-8.937,-8.853,-8.7689,-8.6849,-8.597,-8.5704,-8.6168,-8.5449,-8.4855,-8.4418,-8.4962,-8.4767,-8.3961,-8.498,-8.6236,-8.7573,-8.7724,-8.8266,-8.9164,-9.0335,-9.1155,-9.1624,-9.1826,-9.1722,-9.1477,-9.1661,-9.1533,-9.121,-9.121,-9.121,-9.121,-9.121,-9.121,-9.121,-9.121,-9.121,-9.121,-9.121,-9.121,-9.1227,-9.1241,-9.1258,-9.1292,-9.1477,-9.1084,-9.069,-9.0726,-9.074,-9.0625,-9.0083,-8.9924,-8.9793,-8.9581,-9.0149,-9.0644,-9.0612,-9.1785,-9.2723,-9.2926,-9.3984,-9.4814,-9.496,-9.6304,-9.7248,-9.7327,-9.7772,-9.7868,-9.751,-9.6629,-9.6193,-9.6358,-9.6573,-9.6902,-9.7399,-9.8072,-9.8423,-9.8482,-9.8291,-9.803,-9.7665,-9.7098,-9.6686,-4.2961,-4.5811,-4.9222,-5.4836,-5.7941,-6.1371,-6.805,-7.0458,-7.2207,-7.5511,-7.5361,-7.4423,-7.3859,-7.4648,-7.5845,-7.7099,-7.9229,-8.0932,-8.163,-8.2431,-8.2684,-8.192,-8.1805,-8.2455,-8.4136,-8.5817,-8.7498,-8.9179,-9.0135,0.0,-8.9791,-8.8683,-8.7575,-8.639,-8.5817,-8.5759,-8.6292,-8.5728,-8.5217,-8.4845,-8.5428,-8.5389,-8.4855,-8.5565,-8.6861,-8.851,-8.8935,-8.9633,-9.0492,-9.135,-9.2014,-9.2482,-9.2482,-9.2237,-9.1915,-9.1915,-9.1577,-9.121,-9.121,-9.121,-9.121,-9.121,-9.121,-9.121,-9.121,-9.1227,-9.1206,-9.1206,-9.1241,-9.1275,-9.1341,-9.1374,-9.1422,-9.157,-9.0958,-9.0267,-9.0038,-9.0014,-8.982,-8.9279,-8.9121,-8.9107,-8.9201,-8.9774,-9.0503,-9.1088,-9.2303,-9.3345,-9.3913,-9.4971,-9.5632,-9.5511,-9.6586,-9.7277,-9.7277,-9.7462,-9.7495,-9.7396,-9.6751,-9.661,-9.7056,-9.7515,-9.8034,-9.8526,-9.9222,-9.9497,-9.9282,-9.8761,-9.831,-9.8003,-9.744,-9.6607,0.0,0.0,0.0,-5.1335,-5.2744,-5.5917,-6.7273,-6.8725,-6.9128,-7.4197,-7.5211,-7.4685,-7.3221,-7.4272,-7.5887,-7.7539,-7.8988,-8.0472,-8.2058,-8.2693,-8.2684,-8.192,-8.1805,-8.2455,-8.4098,-8.5817,-8.7498,-8.9141,-9.0096,-9.0593,-9.0593,-8.9027,-8.7307,-8.5588,-8.5511,-8.5759,-8.6292,-8.6307,-8.6107,-8.5661,-8.57,-8.57,-8.568,-8.5843,-8.6903,-8.8588,-8.956,-9.0492,-9.1389,-9.217,-9.2482,-9.2482,-9.2482,-9.2276,-9.1915,-9.1915,-9.163,-9.1227,-9.121,-9.121,-9.121,-9.121,-9.121,-9.121,-9.121,-9.1241,-9.1308,-9.1308,-9.1336,-9.14,-9.14,-9.15,-9.16,-9.16,-9.1001,-9.0168,-8.9395,-8.9201,-8.9201,-8.9163,-8.9163,-8.9201,-8.9201,-8.9859,-9.04,-9.0478,-9.2533,-9.4111,-9.4188,-9.5538,-9.6492,-9.6492,-9.6492,-9.6492,-9.6492,-9.6492,-9.6261,-9.5769,-9.6554,-9.715,-9.7409,-9.8209,-9.9207,-10.0398,-10.0122,-10.0087,-10.0285,-9.9349,-9.8823,-9.8748,-9.717,-9.5593,-4.0308,0.0,0.0,0.0,0.0,0.0,-5.7304,-5.9834,-6.2932,-7.033,-7.0405,-7.0104,-7.3258,-7.4235,-7.4873,-7.5924,-7.8172,-8.0412,-8.208,-8.2198,-8.2264,-8.2607,-8.2149,-8.2225,-8.3257,-8.5435,-8.7269,0.0,-8.9791,-9.0593,-9.0593,-8.9027,-8.7575,-8.6505,-8.5855,-8.5759,-8.6292,-8.6307,-8.5797,-8.4767,-8.6049,-8.5972,-8.4816,-8.6194,-8.7801,-8.945,-8.9833,-9.0804,-9.217,-9.2404,-9.2482,-9.2482,-9.2482,-9.2334,-9.2113,-9.1928,-9.1708,-9.14,-9.1258,-9.121,-9.121,-9.121,-9.121,-9.1227,-9.1241,-9.1292,-9.1325,-9.1336,-9.1384,-9.1415,-9.1516,-9.1629,-9.1687,-9.1687,-9.1005,-9.0323,-9.013,-8.9588,-8.9008,-8.8389,-8.8776,-8.9201,-8.9201,-8.9859,-9.0826,-9.2102,-9.3017,-9.4186,-9.5788,-9.6421,-9.6676,-9.6509,-9.6597,-9.6629,-9.6629,-9.6629,-9.6613,-9.6503,-9.7314,-9.7988,-9.8422,-9.9479,-10.0308,-10.0798,-10.0893,-10.091,-10.0694,-9.9974,-9.9281,-9.864,-9.8186,-9.7732,0.0,0.0,0.0,0.0,0.0,0.0,-5.592,-5.8203,0.0,0.0,-7.1156,-7.0968,-7.2808,-7.3747,-7.4235,-7.4347,-7.6459,-7.8977,-8.1452,-8.1697,-8.1862,-8.2455,-8.2378,-8.2493,-8.2951,-8.4976,-8.6772,-8.7995,-8.9332,-9.0058,-9.0058,-8.8797,-8.7689,-8.6849,-8.5626,-8.5414,-8.6292,-8.596,-8.5681,-8.5505,-8.5777,-8.5777,-8.5476,-8.5921,-8.7255,-8.9294,-8.9794,-9.0765,-9.2014,-9.2365,-9.2482,-9.2482,-9.2482,-9.2388,-9.2182,-9.1957,-9.1718,-9.148,-9.1253,-9.121,-9.121,-9.1206,-9.1224,-9.1241,-9.1325,-9.139,-9.1422,-9.147,-9.1516,-9.1546,-9.1629,-9.1687,-9.1716,-9.1716,-9.1019,-9.04,-9.04,-9.0014,-8.9433,-8.8621,-8.8853,-8.9317,-8.9627,-9.04,-9.1445,-9.2953,-9.3688,-9.4757,-9.6491,-9.6792,-9.6753,-9.6645,-9.6692,-9.6761,-9.6761,-9.6761,-9.6931,-9.7325,-9.8137,-9.8888,-9.9497,-10.0611,-10.1203,-10.1289,-10.1493,-10.14,-10.1093,-10.062,-9.982,-9.8808,-9.9005,-9.8735,0.0,0.0,0.0,0.0,-4.4755,0.0,-5.792,-5.9176,0.0,0.0,-7.2507,-7.247,-7.0893,-7.1907,-7.2695,-7.1794,-7.3574,-7.6419,-8.0293,-8.0984,-8.1286,-8.1748,-8.2416,-8.2875,-8.299,-8.4518,-8.6199,-8.7842,-8.8874,-8.9447,-8.9447,-8.8606,-8.7727,-8.6963,-8.532,-8.5049,-8.6292,-8.5535,-8.5733,-8.6826,-8.5467,-8.5583,-8.6962,-8.5716,-8.6467,-8.8823,-8.972,-9.0615,-9.1507,-9.2209,-9.2482,-9.2482,-9.2482,-9.2398,-9.2204,-9.1967,-9.1742,-9.1522,-9.127,-9.121,-9.1245,-9.1275,-9.1308,-9.1341,-9.1384,-9.15,-9.16,-9.1615,-9.1659,-9.1716,-9.1716,-9.1716,-9.1716,-9.1716,-9.1097,-9.0555,-9.0555,-9.0555,-9.0323,-8.9627,-8.9472,-8.9704,-9.04,-9.1174,-9.2102,-9.3224,-9.4153,-9.5236,-9.6628,-9.6783,-9.6783,-9.6783,-9.6783,-9.6783,-9.6783,-9.6899,-9.7325,-9.8098,-9.8949,-9.98,-10.0613,-10.1386,-10.1889,-10.1889,-10.1889,-10.1815,-10.1496,-10.1111,-10.0311,-9.9303,-9.9733,-9.9133,-4.5955,-4.5658,-4.5621,-4.4915,-4.5186,0.0,-4.7554,-4.8065,-5.0167,0.0,-5.7863,-5.882,-6.297,-6.4585,-6.4998,-6.4096,-6.7631,-7.2526,-7.8263,-7.9274,-7.997,-8.1633,-8.1958,-8.2302,-8.2913,-8.4518,-8.5932,-8.7001,-8.9103,-9.0364,-9.0364,-8.8912,-8.8033,-8.7842,-8.6161,-8.5606,-8.6292,-8.6114,-8.6029,-8.5972,-8.702,-8.7331,-8.703,-8.8141,-8.9325,-9.0537,-9.078,-9.1392,-9.2287,-9.2443,-9.2482,-9.2482,-9.2482,-9.2475,-9.2398,-9.2013,-9.1883,-9.1781,-9.1352,-9.1262,-9.1275,-9.1292,-9.1358,-9.1384,-9.1516,-9.1585,-9.1615,-9.1673,-9.1702,-9.1716,-9.1716,-9.1716,-9.1716,-9.1716,-9.1561,-9.1445,-9.1445,-9.1445,-9.1406,-9.1251,-9.1213,-9.1251,-9.1406,-9.16,-9.2102,-9.3224,-9.2799,-9.3456,-9.6435,-9.6783,-9.6783,-9.6783,-9.6783,-9.6783,-9.6783,-9.7634,-9.8253,-9.8408,-9.9645,-10.038,-10.0613,-10.1386,-10.1889,-10.1889,-10.1889,-10.1912,-10.1809,-10.1211,-10.0825,-10.0607,-10.0595,-10.0496,-4.7306,-4.6605,-4.6663,-4.6487,-4.5876,0.0,0.0,-4.8611,-4.9835,-5.6194,-5.6512,-5.6512,-5.944,-6.098,-6.1581,-6.068,-6.5786,-7.0293,-7.1576,-7.5792,-7.9223,-8.0392,-8.1652,-8.2569,-8.2951,-8.3754,-8.4976,-8.6696,-8.9179,-9.0402,-8.9982,-8.8759,-8.788,-8.746,-8.5779,-8.5337,-8.6292,-8.5882,-8.5875,-8.636,-8.7215,-8.7642,-8.7691,-8.8578,-8.9504,-9.042,-9.0894,-9.1398,-9.1936,-9.2326,-9.2482,-9.2482,-9.2482,-9.2482,-9.2463,-9.207,-9.1915,-9.185,-9.1392,-9.1275,-9.1325,-9.1406,-9.147,-9.1516,-9.1629,-9.1659,-9.1659,-9.1702,-9.1716,-9.1716,-9.1716,-9.1716,-9.1716,-9.1716,-9.1716,-9.1716,-9.1716,-9.1716,-9.1716,-9.1716,-9.1716,-9.1832,-9.2257,-9.2451,-9.2837,-9.365,-9.4037,-9.4849,-9.659,-9.6783,-9.6783,-9.6783,-9.6783,-9.6783,-9.6783,-9.7325,-9.8021,-9.8833,-9.9568,-10.0303,-10.1193,-10.1696,-10.1889,-10.1889,-10.1889,-10.1889,-10.1889,-10.1585,-10.1289,-10.1095,-10.1008,-10.0885,-4.8939,-4.8178,-4.8717,-4.8885,-4.7367,-4.7008,0.0,0.0,0.0,-5.6626,-5.6812,-5.6043,-5.6381,0.0,0.0,-5.7488,0.0,0.0,0.0,-7.0479,0.0,-7.7451,-8.0659,-8.2569,-8.2073,-8.1729,-8.3066,-8.6772,-8.7918,-8.8606,-8.9065,-8.8301,-8.746,-8.6581,-8.5244,-8.5107,-8.6292,-8.5612,-8.5849,-8.6982,-8.7331,-8.7836,-8.8536,-8.8935,-8.9559,-9.03,-9.1044,-9.1403,-9.1585,-9.2248,-9.2482,-9.2482,-9.2482,-9.2482,-9.2463,-9.207,-9.1915,-9.185,-9.1439,-9.1308,-9.1358,-9.1554,-9.1615,-9.1629,-9.1702,-9.1716,-9.1716,-9.1716,-9.1716,-9.1716,-9.1716,-9.1716,-9.1716,-9.1716,-9.1716,-9.1716,-9.1716,-9.1716,-9.1716,-9.1716,-9.1716,-9.1909,-9.2644,-9.3186,-9.3572,-9.3688,-9.5468,-9.6783,-9.6783,-9.6783,-9.6783,-9.6783,-9.6783,-9.6783,-9.6783,-9.6783,-9.7673,-9.9684,-9.98,-10.0419,-10.1812,-10.1889,-10.1889,-10.1889,-10.1889,-10.1889,-10.1889,-10.1889,-10.1777,-10.1514,-10.1192,-10.1111,-5.3423,-5.3516,-5.4223,-4.9968,-5.0822,-5.1416,-4.6514,0.0,-4.719,-4.7357,0.0,-4.8701,-5.0203,0.0,0.0,0.0,0.0,0.0,-5.6133,-6.2025,-6.7686,-7.1019,-7.764,-8.1041,-7.8787,-7.722,-7.9589,-8.7384,-8.3372,-8.2798,-8.7957,-8.7422,-8.6543,-8.5702,-8.5473,-8.5682,-8.6292,-8.6191,-8.6455,-8.702,-8.8497,-8.9274,-8.9429,-9.0965,-9.1802,-9.2014,-9.2102,-9.2225,-9.2365,-9.2443,-9.2482,-9.2482,-9.2482,-9.2482,-9.2463,-9.207,-9.1915,-9.185,-9.1439,-9.1358,-9.14,-9.157,-9.1644,-9.1702,-9.1716,-9.1716,-9.1716,-9.1716,-9.1716,-9.1716,-9.1716,-9.1716,-9.1716,-9.1716,-9.1716,-9.1716,-9.1716,-9.1716,-9.1716,-9.1716,-9.1716,-9.1716,-9.1832,-9.3108,-9.3611,-9.2218,-9.4733,-9.6783,-9.6783,-9.6783,-9.6783,-9.6783,-9.6783,-9.6783,-9.6783,-9.6783,-9.8176,-10.1386,-10.158,-10.1696,-10.1889,-10.1889,-10.1889,-10.1889,-10.1889,-10.1889,-10.1889,-10.1889,-10.1912,-10.1803,-10.1826,-10.1809,-5.3125,-5.4466,-5.6108,-5.1508,-5.1751,-5.1787,-4.677,-4.5469,-4.5552,-4.6416,0.0,0.0,0.0,0.0,0.0,0.0,-5.3115,0.0,0.0,0.0,-6.4981,0.0,0.0,0.0,0.0,0.0,0.0,0.0,-8.1499,-8.1232,-8.5664,-8.6008,-8.5664,-8.4824,-8.5282,-8.5759,-8.6292,-8.6307,-8.6532,-8.702,-8.8691,-8.9507,-8.9546,-9.1294,-9.2168,-9.2287,-9.2287,-9.2379,-9.2482,-9.2482,-9.2482,-9.2482,-9.2482,-9.2482,-9.2463,-9.207,-9.1915,-9.1861,-9.1484,-9.1368,-9.1415,-9.1591,-9.1687,-9.1716,-9.1716,-9.1716,-9.1716,-9.1716,-9.1716,-9.1716,-9.1716,-9.2064,-9.2335,-9.1832,-9.2102,-9.2335,-9.1793,-9.1716,-9.1716,-9.1716,-9.2102,-9.2605,-9.307,-9.2915,-9.3186,-9.4462,-9.5893,-9.6783,-9.6783,-9.6783,-9.6783,-9.6783,-9.6783,-9.6783,-9.6783,-9.6783,-9.8253,-10.1696,-10.1889,-10.1889,-10.1889,-10.1889,-10.1889,-10.1889,-10.1889,-10.1889,-10.1889,-10.1889,-10.1889,-10.1889,-10.1889,-10.1889,-5.4907,-5.6309,-5.7846,-5.2419,-5.1749,-5.128,-4.7015,-4.6127,-4.6506,-4.7478,-4.7884,0.0,0.0,0.0,0.0,0.0,0.0,-5.4256,0.0,-5.5708,0.0,0.0,0.0,0.0,0.0,0.0,0.0,0.0,0.0,-7.8461,-8.3677,-8.4518,-8.4441,-8.3639,-8.4672,-8.5504,-8.596,-8.625,-8.6597,-8.702,-8.8691,-8.9507,-8.9546,-9.1294,-9.2168,-9.2287,-9.2287,-9.2379,-9.2482,-9.2482,-9.2482,-9.2482,-9.2482,-9.2482,-9.2468,-9.2121,-9.1967,-9.1872,-9.1589,-9.1507,-9.1531,-9.1634,-9.1716,-9.1716,-9.1716,-9.1716,-9.1716,-9.1716,-9.1716,-9.1716,-9.1716,-9.2335,-9.2799,-9.1909,-9.2373,-9.276,-9.1909,-9.1716,-9.1793,-9.2102,-9.2683,-9.3495,-9.4694,-9.3495,-9.3379,-9.6358,-9.6783,-9.6783,-9.6783,-9.6783,-9.6783,-9.6783,-9.6783,-9.6783,-9.6783,-9.6783,-9.8253,-10.1696,-10.1889,-10.1889,-10.1889,-10.1889,-10.1889,-10.1889,-10.1889,-10.1889,-10.1889,-10.1889,-10.1889,-10.1889,-10.1889,-10.1889,-6.1165,-6.0927,-6.0295,-5.2234,-5.1031,-5.0569,-4.5679,-4.7997,-5.0722,-4.917,-5.2791,-5.5733,0.0,0.0,0.0,0.0,0.0,0.0,0.0,0.0,0.0,0.0,0.0,0.0,0.0,0.0,0.0,0.0,0.0,0.0,-8.2493,-8.3066,-8.2722,-8.192,-8.365,-8.4769,-8.5034,-8.6068,-8.6731,-8.702,-8.8691,-8.9507,-8.9546,-9.1294,-9.2168,-9.2287,-9.2287,-9.2379,-9.2482,-9.2482,-9.2482,-9.2482,-9.2482,-9.2482,-9.2475,-9.2288,-9.2087,-9.1894,-9.1808,-9.1747,-9.1702,-9.1716,-9.1716,-9.1716,-9.1716,-9.1716,-9.1716,-9.1716,-9.1716,-9.1716,-9.1716,-9.2335,-9.2799,-9.1909,-9.2373,-9.276,-9.1909,-9.1716,-9.2025,-9.3108,-9.3379,-9.4114,-9.6319,-9.5274,-9.4733,-9.6512,-9.6783,-9.6783,-9.6783,-9.6783,-9.6783,-9.6783,-9.6783,-9.6783,-9.6783,-9.6783,-9.8253,-10.1696,-10.1889,-10.1889,-10.1889,-10.1889,-10.1889,-10.1889,-10.1889,-10.1889,-10.1889,-10.1889,-10.1889,-10.1889,-10.1889,-10.1889,0.0,0.0,-6.4493,-5.6283,-5.5044,-5.4135,-4.7575,-4.8856,-5.0973,-4.9428,-5.2779,-5.5692,0.0,0.0,0.0,0.0,0.0,0.0,0.0,0.0,0.0,0.0,0.0,0.0,0.0,0.0,0.0,0.0,0.0,0.0,0.0,-8.1881,-8.2073,-8.1805,-8.3075,-8.3885,-8.4146,-8.4675,-8.5336,-8.6166,-8.7875,-8.8963,-8.9546,-9.1294,-9.2168,-9.2287,-9.2287,-9.2379,-9.2482,-9.2482,-9.2482,-9.2482,-9.2482,-9.2482,-9.2475,-9.2249,-9.2113,-9.1926,-9.176,-9.1677,-9.1716,-9.1716,-9.1716,-9.1716,-9.1716,-9.1716,-9.1716,-9.1716,-9.1716,-9.1832,-9.2412,-9.3186,-9.3572,-9.276,-9.3186,-9.3418,-9.1986,-9.2141,-9.2683,-9.307,-9.4037,-9.4965,-9.5584,-9.5816,-9.6125,-9.6706,-9.6783,-9.6783,-9.6783,-9.6783,-9.6783,-9.6783,-9.6783,-9.6783,-9.6783,-9.8872,-10.069,-10.1812,-10.1889,-10.1889,-10.1889,-10.1889,-10.1889,-10.1889,-10.1889,-10.1889,-10.1889,-10.1889,-10.1889,-10.1889,-10.1889,-10.1889,-6.5207,-6.6192,0.0,-5.9292,-5.8159,0.0,-5.089,-5.2343,-5.4498,-5.2697,-5.5378,-5.8297,0.0,0.0,0.0,0.0,0.0,0.0,0.0,-4.8253,0.0,0.0,0.0,0.0,0.0,0.0,0.0,0.0,0.0,0.0,0.0,0.0,-8.1364,-8.1456,-8.2501,-8.3179,-8.3371,-8.3924,-8.4704,-8.57,-8.7487,-8.873,-8.9546,-9.1335,-9.2182,-9.2291,-9.2312,-9.2383,-9.2482,-9.2482,-9.2482,-9.2482,-9.2482,-9.2482,-9.2479,-9.2339,-9.2182,-9.2006,-9.1652,-9.1591,-9.1716,-9.1716,-9.1716,-9.1716,-9.1716,-9.1716,-9.1638,-9.1329,-9.1677,-9.2218,-9.2489,-9.3572,-9.4462,-9.3611,-9.4075,-9.4269,-9.2876,-9.3031,-9.3534,-9.3843,-9.4772,-9.5545,-9.57,-9.6319,-9.6783,-9.6783,-9.6783,-9.6783,-9.6783,-9.6783,-9.6783,-9.6783,-9.6783,-9.7286,-9.8524,-10.1696,-10.3204,-10.2005,-10.1889,-10.1889,-10.1889,-10.1889,-10.1889,-10.1889,-10.1889,-10.1889,-10.1889,-10.1889,-10.1889,-10.1889,-10.1889,-10.1889]},{"header":{"parameterUnit":"m.s-1","parameterCategory":1,"la1":30.6,"la2":29.2853,"lo1":-89.7004,"lo2":-87.6739,"dx":0.0162,"dy":0.0183,"nx":112,"ny":82,"refTime":"2022-12-28T06:00:00:Z","depth":0,"parameterNumber":3,"parameterNumberName":"V-component_of_WINDS"},"data":[0.0,0.0,0.0,0.0,0.0,0.0,0.0,0.0,0.0,0.0,0.0,0.0,0.0,0.0,0.0,0.0,0.0,0.0,0.0,0.0,0.0,0.0,0.0,0.0,0.0,0.0,0.0,0.0,0.0,0.0,0.0,0.0,0.0,0.0,0.0,0.0,0.0,0.0,0.0,0.0,0.0,0.0,0.0,0.0,0.0,0.0,0.0,0.0,0.0,0.0,0.0,0.0,0.0,0.0,0.0,0.0,0.0,0.0,0.0,0.0,0.0,0.0,0.0,0.0,0.0,0.0,0.0,0.0,0.0,0.0,0.0,0.0,0.0,0.0,0.0,0.0,0.0,0.0,0.0,0.0,0.0,0.0,0.0,0.0,0.0,0.0,0.0,0.0,0.0,0.0,2.8105,2.8906,3.2174,3.4766,3.5881,3.72,3.6664,3.3622,0.0,0.0,0.0,0.0,0.0,0.0,0.0,0.0,0.0,0.0,0.0,0.0,0.0,0.0,0.0,0.0,0.0,0.0,0.0,0.0,0.0,0.0,0.0,0.0,0.0,0.0,0.0,0.0,0.0,0.0,0.0,0.0,0.0,0.0,0.0,0.0,0.0,0.0,0.0,0.0,0.0,0.0,0.0,0.0,0.0,0.0,0.0,0.0,0.0,0.0,0.0,0.0,0.0,0.0,0.0,0.0,0.0,0.0,0.0,0.0,0.0,0.0,0.0,0.0,0.0,0.0,0.0,0.0,0.0,0.0,0.0,0.0,0.0,0.0,0.0,0.0,0.0,0.0,0.0,0.0,0.0,0.0,0.0,0.0,0.0,0.0,0.0,0.0,0.0,0.0,0.0,0.0,0.0,0.0,0.0,0.0,0.0,0.0,0.0,0.0,0.0,0.0,0.0,0.0,2.7246,3.1641,3.4521,3.6183,3.6419,3.8227,3.7761,3.4126,0.0,0.0,0.0,0.0,0.0,0.0,0.0,0.0,0.0,0.0,0.0,0.0,0.0,0.0,0.0,0.0,0.0,0.0,0.0,0.0,0.0,0.0,0.0,0.0,0.0,0.0,0.0,0.0,0.0,0.0,0.0,0.0,0.0,0.0,0.0,0.0,0.0,0.0,0.0,0.0,0.0,0.0,0.0,0.0,0.0,0.0,0.0,0.0,0.0,0.0,0.0,0.0,0.0,0.0,0.0,0.0,0.0,0.0,0.0,0.0,0.0,0.0,0.0,0.0,0.0,0.0,0.0,0.0,0.0,0.0,0.0,0.0,0.0,0.0,0.0,0.0,0.0,0.0,0.0,0.0,0.0,0.0,0.0,0.0,0.0,0.0,0.0,0.0,0.0,0.0,0.0,0.0,0.0,0.0,0.0,0.0,0.0,0.0,0.0,0.0,0.0,0.0,0.0,2.668,2.8942,3.372,3.5249,3.6441,3.7873,3.8862,3.7989,3.463,3.3501,0.0,0.0,0.0,0.0,0.0,0.0,0.0,0.0,0.0,0.0,0.0,0.0,0.0,0.0,0.0,0.0,0.0,0.0,0.0,0.0,0.0,0.0,0.0,0.0,0.0,0.0,0.0,0.0,0.0,0.0,0.0,0.0,0.0,0.0,0.0,0.0,0.0,0.0,0.0,0.0,0.0,0.0,0.0,0.0,0.0,0.0,0.0,0.0,0.0,0.0,0.0,0.0,0.0,0.0,0.0,0.0,0.0,0.0,0.0,0.0,0.0,0.0,0.0,0.0,0.0,0.0,0.0,0.0,0.0,0.0,0.0,0.0,0.0,0.0,0.0,0.0,0.0,0.0,0.0,0.0,0.0,0.0,0.0,0.0,0.0,0.0,0.0,0.0,0.0,0.0,0.0,0.0,0.0,0.0,0.0,0.0,0.0,0.0,0.0,0.0,0.0,0.0,2.9141,3.1148,3.4554,3.55,3.6642,3.8566,3.9357,3.8246,3.499,3.3861,0.0,0.0,0.0,0.0,0.0,0.0,0.0,0.0,0.0,0.0,0.0,0.0,0.0,0.0,0.0,0.0,0.0,0.0,0.0,0.0,0.0,0.0,0.0,0.0,0.0,0.0,0.0,0.0,0.0,0.0,0.0,0.0,0.0,0.0,0.0,0.0,0.0,0.0,0.0,0.0,0.0,0.0,0.0,0.0,0.0,0.0,0.0,0.0,0.0,0.0,0.0,0.0,0.0,0.0,0.0,0.0,0.0,0.0,0.0,0.0,0.0,0.0,0.0,0.0,0.0,0.0,0.0,0.0,0.0,0.0,0.0,0.0,0.0,0.0,0.0,0.0,0.0,0.0,0.0,0.0,0.0,0.0,0.0,0.0,0.0,0.0,0.0,0.0,0.0,0.0,0.0,0.0,0.0,0.0,0.0,0.0,0.0,0.0,0.0,0.0,0.0,0.0,2.9785,3.2816,3.3485,3.5725,3.7248,3.7429,3.965,3.9259,3.5063,3.3861,0.0,0.0,0.0,0.0,0.0,0.0,0.0,0.0,0.0,0.0,0.0,0.0,0.0,0.0,0.0,0.0,0.0,0.0,0.0,0.0,0.0,0.0,0.0,0.0,0.0,0.0,0.0,0.0,0.0,0.0,0.0,0.0,0.0,0.0,0.0,0.0,0.0,0.0,0.0,0.0,0.0,0.0,0.0,0.0,0.0,0.0,0.0,0.0,0.0,0.0,0.0,0.0,0.0,0.0,0.0,0.0,0.0,0.0,0.0,0.0,0.0,0.0,0.0,0.0,0.0,0.0,0.0,0.0,0.0,0.0,0.0,0.0,0.0,0.0,0.0,0.0,0.0,0.0,0.0,0.0,0.0,0.0,0.0,0.0,0.0,0.0,0.0,0.0,0.0,0.0,0.0,0.0,0.0,0.0,0.0,0.0,0.0,0.0,0.0,0.0,0.0,0.0,2.8848,3.1801,3.4388,3.6215,3.761,3.8447,4.0141,3.9369,3.5039,0.0,0.0,0.0,0.0,0.0,0.0,0.0,0.0,0.0,0.0,0.0,0.0,0.0,0.0,0.0,0.0,0.0,0.0,0.0,0.0,0.0,0.0,0.0,0.0,0.0,0.0,0.0,0.0,0.0,0.0,0.0,0.0,0.0,0.0,0.0,0.0,0.0,0.0,0.0,0.0,0.0,0.0,0.0,0.0,0.0,0.0,0.0,0.0,0.0,0.0,0.0,0.0,0.0,0.0,0.0,0.0,0.0,0.0,0.0,0.0,0.0,0.0,0.0,0.0,0.0,0.0,0.0,0.0,0.0,0.0,0.0,0.0,0.0,0.0,0.0,0.0,0.0,0.0,0.0,0.0,0.0,0.0,0.0,0.0,0.0,0.0,0.0,0.0,0.0,0.0,0.0,0.0,0.0,0.0,0.0,0.0,0.0,0.0,0.0,0.0,0.0,0.0,2.6074,2.8848,3.1663,3.4491,3.5909,3.7248,3.8506,3.9826,3.8761,3.4583,0.0,0.0,0.0,0.0,0.0,0.0,0.0,0.0,0.0,0.0,0.0,0.0,0.0,0.0,0.0,0.0,0.0,0.0,0.0,0.0,0.0,0.0,0.0,0.0,0.0,0.0,0.0,0.0,0.0,0.0,0.0,0.0,0.0,0.0,0.0,0.0,0.0,0.0,0.0,0.0,0.0,0.0,0.0,0.0,0.0,0.0,0.0,0.0,0.0,0.0,0.0,0.0,0.0,0.0,0.0,0.0,0.0,0.0,0.0,0.0,0.0,0.0,0.0,0.0,0.0,0.0,0.0,0.0,0.0,0.0,0.0,0.0,0.0,0.0,0.0,0.0,0.0,0.0,0.0,0.0,0.0,0.0,0.0,0.0,0.0,0.0,0.0,0.0,0.0,0.0,0.0,0.0,0.0,0.0,0.0,0.0,0.0,0.0,0.0,0.0,0.0,0.0,2.623,3.0137,3.2949,3.3379,3.457,3.5909,3.7166,3.8424,3.7525,0.0,0.0,0.0,0.0,0.0,0.0,0.0,0.0,0.0,0.0,0.0,0.0,0.0,0.0,0.0,0.0,0.0,0.0,0.0,0.0,0.0,0.0,0.0,0.0,0.0,0.0,0.0,0.0,0.0,0.0,0.0,0.0,0.0,0.0,0.0,0.0,0.0,0.0,0.0,0.0,0.0,0.0,0.0,0.0,0.0,0.0,0.0,0.0,0.0,0.0,0.0,0.0,0.0,0.0,0.0,0.0,0.0,0.0,0.0,0.0,0.0,0.0,0.0,0.0,0.0,0.0,0.0,0.0,0.0,0.0,0.0,0.0,0.0,0.0,0.0,0.0,0.0,0.0,0.0,0.0,0.0,0.0,0.0,0.0,0.0,0.0,0.0,0.0,0.0,0.0,0.0,0.0,0.0,0.0,0.0,0.0,0.0,0.0,0.0,0.0,0.0,0.0,0.0,2.666,3.0312,3.2851,3.2969,3.3903,3.4729,3.5405,3.7517,3.6824,3.2199,0.0,0.0,0.0,0.0,0.0,0.0,0.0,0.0,0.0,0.0,0.0,0.0,0.0,0.0,0.0,0.0,0.0,0.0,0.0,0.0,0.0,0.0,0.0,0.0,0.0,0.0,0.0,0.0,0.0,0.0,0.0,0.0,0.0,0.0,0.0,0.0,0.0,0.0,0.0,0.0,0.0,0.0,0.0,0.0,0.0,0.0,0.0,0.0,0.0,0.0,0.0,0.0,0.0,0.0,0.0,0.0,0.0,0.0,0.0,0.0,0.0,0.0,0.0,0.0,0.0,0.0,0.0,0.0,0.0,0.0,0.0,0.0,0.0,0.0,0.0,0.0,0.0,0.0,0.0,0.0,0.0,0.0,0.0,0.0,0.0,0.0,0.0,0.0,0.0,0.0,0.0,0.0,0.0,0.0,0.0,0.0,0.0,0.0,0.0,0.0,0.0,0.0,2.6816,3.0547,3.3047,3.3047,3.3534,3.4146,3.4941,3.6872,3.6522,3.2783,0.0,0.0,0.0,0.0,0.0,0.0,0.0,0.0,0.0,0.0,0.0,0.0,0.0,0.0,0.0,0.0,0.0,0.0,0.0,0.0,0.0,0.0,0.0,0.0,0.0,0.0,0.0,0.0,0.0,0.0,0.0,0.0,0.0,0.0,0.0,0.0,0.0,0.0,0.0,0.0,0.0,0.0,0.0,0.0,0.0,0.0,0.0,0.0,0.0,0.0,0.0,0.0,0.0,0.0,0.0,0.0,0.0,0.0,0.0,0.0,0.0,0.0,0.0,0.0,0.0,0.0,0.0,0.0,0.0,0.0,0.0,0.0,0.0,0.0,0.0,0.0,0.0,0.0,0.0,0.0,0.0,0.0,0.0,0.0,0.0,0.0,0.0,0.0,0.0,0.0,0.0,0.0,0.0,0.0,0.0,0.0,0.0,0.0,0.0,0.0,0.0,0.0,2.6797,3.0723,3.3359,3.3359,3.332,3.3865,3.5191,3.6517,3.6484,3.4614,0.0,0.0,0.0,0.0,0.0,0.0,0.0,0.0,0.0,0.0,0.0,0.0,0.0,0.0,0.0,0.0,0.0,0.0,0.0,0.0,0.0,0.0,0.0,0.0,0.0,0.0,0.0,0.0,0.0,0.0,0.0,0.0,0.0,0.0,0.0,0.0,0.0,0.0,0.0,0.0,0.0,0.0,0.0,0.0,0.0,0.0,0.0,0.0,0.0,0.0,0.0,0.0,0.0,0.0,0.0,0.0,0.0,0.0,0.0,0.0,0.9977,0.9231,0.0,0.0,0.0,0.0,0.0,0.0,0.0,0.0,0.0,0.0,0.0,0.0,0.0,0.0,0.0,0.0,0.0,0.0,0.0,0.0,0.0,0.0,0.0,0.0,0.0,0.0,0.0,0.0,0.0,0.0,0.0,0.0,0.0,0.0,0.0,0.0,0.0,0.0,0.0,0.0,2.6836,3.0469,3.293,3.293,3.2637,3.3111,3.4675,3.6084,3.613,3.4614,3.5085,0.0,0.0,0.0,0.0,0.0,0.0,0.0,0.0,0.0,0.0,0.0,0.0,0.0,0.0,0.0,0.0,0.0,0.0,0.0,0.0,0.0,0.0,0.0,0.0,0.0,0.0,0.0,0.0,0.0,0.0,0.0,0.0,0.0,0.0,0.0,0.0,0.0,0.0,0.0,0.0,0.0,0.0,0.0,0.0,0.0,0.0,0.0,0.0,0.0,0.0,0.0,0.0,0.0,0.0,0.0,0.0,0.0,0.0,0.0,1.0509,1.03,0.0,0.0,0.0,0.0,0.0,0.0,0.0,0.0,0.0,0.0,0.0,0.0,0.0,0.0,0.0,0.0,0.0,0.0,0.0,0.0,0.0,0.0,0.0,0.0,0.0,0.0,0.0,0.0,0.0,0.0,0.0,0.0,0.0,0.0,0.0,0.0,0.0,0.0,0.0,0.0,2.7129,3.0879,3.3418,3.3418,3.3594,3.4362,3.5997,3.7224,3.7961,3.7931,3.7422,0.0,0.0,0.0,0.0,0.0,0.0,0.0,0.0,0.0,0.0,0.0,0.0,0.0,0.0,0.0,0.0,0.0,0.0,0.0,0.0,0.0,0.0,0.0,0.0,0.0,0.0,0.0,0.0,0.0,0.0,0.0,0.0,0.0,0.0,0.0,0.0,0.0,0.0,0.0,0.0,0.0,0.0,0.0,0.0,0.0,0.0,0.0,0.0,0.0,0.0,0.0,0.0,0.0,0.9667,1.0178,1.0811,1.0773,1.1025,1.1484,1.1449,1.1912,1.2638,1.2035,0.0,0.0,0.0,0.0,0.0,0.0,0.0,0.0,0.0,0.0,0.0,0.0,0.0,0.0,0.0,0.0,0.0,0.0,0.0,0.0,0.0,0.0,2.3861,2.5302,2.6134,2.6431,2.6097,0.0,0.0,0.0,0.0,0.0,0.0,0.0,0.0,0.0,0.0,0.0,2.8105,3.1894,3.4414,3.4414,3.5059,3.6203,3.7942,3.8873,4.017,4.2001,4.0097,3.8599,0.0,0.0,0.0,0.0,0.0,0.0,0.0,0.0,0.0,0.0,0.0,0.0,0.0,0.0,0.0,0.0,0.0,0.0,0.0,0.0,0.0,0.0,0.0,0.0,0.0,0.0,0.0,0.0,0.0,0.0,0.0,0.0,0.4396,0.4762,0.0,0.0,0.0,0.0,0.0,0.0,0.0,0.0,0.0,0.0,0.0,0.0,0.0,0.8413,0.9824,1.048,1.1019,1.1416,1.178,1.2266,1.2691,1.2576,1.2691,1.3078,1.3107,0.0,1.2224,1.2532,0.0,0.0,0.0,0.0,0.0,0.0,0.0,0.0,0.0,0.0,0.0,0.0,0.0,0.0,0.0,0.0,0.0,0.0,0.0,0.0,0.0,0.0,2.6599,2.8235,2.87,2.906,3.0194,2.8164,2.609,2.6016,2.5566,2.4485,0.0,0.0,0.0,0.0,0.0,0.0,3.0684,3.3789,3.5762,3.5762,3.5859,3.6978,3.9649,3.9561,4.0706,4.3745,4.3192,4.1942,4.0042,3.8839,0.0,0.0,0.0,0.0,0.0,0.0,0.0,0.0,0.0,0.0,0.0,0.0,0.0,0.0,0.0,0.0,0.0,0.0,0.0,0.0,0.0,0.0,0.0,0.0,0.0,0.0,0.0,0.0,0.0,0.3939,0.4404,0.517,0.5104,0.5081,0.0,0.0,0.0,0.0,0.0,0.0,0.0,0.0,0.0,0.8064,0.8613,0.9414,1.0594,1.1452,1.2049,1.2351,1.254,1.2843,1.3249,1.3154,1.3277,1.3561,1.3504,1.336,1.3189,1.3827,1.4006,1.4068,0.0,0.0,0.0,0.0,1.6711,1.7062,1.873,1.9301,1.9242,1.8877,0.0,0.0,0.0,0.0,0.0,0.0,0.0,2.456,2.6443,2.7391,2.831,2.9977,3.0419,3.0743,3.2174,3.1356,2.998,2.8769,2.7988,2.6523,2.3354,2.3887,0.0,0.0,0.0,3.0508,3.2344,3.4805,3.6387,3.6387,3.6816,3.7908,3.9998,4.0729,4.2036,4.4272,4.4698,4.4323,4.3096,4.1601,3.9298,0.0,0.0,0.0,0.0,0.0,0.0,0.0,0.0,0.0,0.0,0.0,0.0,0.0,0.0,0.0,0.0,0.0,0.0,0.0,0.0,0.0,0.0,0.0,0.0,0.0,0.0,0.0,0.0,0.4222,0.4589,0.5462,0.5196,0.505,0.0,0.0,0.0,0.0,0.0,0.0,0.6774,0.6668,0.7217,0.8526,0.9148,0.9999,1.1206,1.1879,1.2432,1.2928,1.2928,1.3117,1.3466,1.3464,1.3567,1.3778,1.3628,1.3772,1.4137,1.453,1.5095,1.5809,1.656,1.7187,1.7808,1.8716,1.9052,1.9301,2.1086,2.1745,2.1745,2.1247,2.1038,2.1028,2.0966,0.0,0.0,0.0,0.0,2.6772,2.8505,2.9203,2.9855,3.1492,3.1929,3.2324,3.332,3.3594,3.3105,3.1504,3.0664,2.918,2.581,2.6719,0.0,2.7043,2.9902,3.2715,3.4219,3.6016,3.7148,3.7148,3.7715,3.8712,4.0232,4.1524,4.3013,4.4569,4.561,4.5958,4.5676,4.428,4.2666,4.0738,0.0,0.0,0.0,0.0,0.0,0.0,0.0,0.0,0.0,0.0,0.0,0.0,0.0,0.0,0.0,0.0,0.0,0.0,0.0,0.0,0.0,0.0,0.0,0.0,0.0,0.0,0.0,0.0,0.0,0.5118,0.5935,0.0,0.0,0.0,0.0,0.6634,0.6991,0.7182,0.7104,0.731,0.7748,0.8481,0.868,0.9681,1.1536,1.1593,1.2214,1.3353,1.3353,1.3466,1.3684,1.3578,1.368,1.4005,1.383,1.3976,1.4288,1.3973,1.4799,1.6298,1.6633,1.7577,1.8906,2.0486,2.1057,2.1247,2.2564,2.3208,2.3471,2.3442,2.3412,2.356,2.4804,2.5322,0.0,0.0,2.8286,2.9039,3.0691,3.1176,3.1551,3.2936,3.3603,3.3979,3.4043,3.4043,3.4004,3.3906,3.3848,3.3242,3.1406,0.0,3.1855,3.1876,3.3027,3.4707,3.6836,3.791,3.8476,3.8476,3.8516,3.9169,4.0636,4.1695,4.3146,4.5141,4.613,4.6786,4.7086,4.6989,4.5746,4.3168,4.2216,0.0,0.0,0.0,0.0,0.0,0.0,0.0,0.0,0.0,0.0,0.0,0.0,0.0,0.0,0.0,0.0,0.0,0.0,0.0,0.0,0.0,0.0,0.0,0.0,0.0,0.0,0.0,0.0,0.5603,0.5245,0.0,0.5836,0.5991,0.6042,0.6015,0.6763,0.7044,0.6668,0.7067,0.7474,0.7835,0.852,0.9292,1.0137,1.1491,1.2431,1.2987,1.3671,1.3967,1.3985,1.4122,1.4033,1.3717,1.3777,1.3859,1.3825,1.3877,1.4945,1.6801,1.9481,2.0401,2.0441,2.1913,2.2432,2.252,2.3193,2.3501,2.3662,2.4086,2.4242,2.431,2.5034,2.528,2.5816,2.8518,2.9357,3.0088,3.2822,3.3505,3.3635,3.4109,3.4355,3.4473,3.4473,3.4473,3.4648,3.5215,3.4863,3.4023,3.2578,3.3848,3.4753,3.3555,3.5195,3.6934,3.7988,3.8379,3.8574,3.8574,3.8574,3.8773,3.9353,4.0584,4.1601,4.2333,4.4551,4.5832,4.5966,4.7119,4.7264,4.6371,4.6463,4.3961,0.0,0.0,0.0,0.0,0.0,0.0,0.0,0.0,0.0,0.0,0.0,0.0,0.0,0.0,0.0,0.0,0.0,0.0,0.0,0.0,0.0,0.0,0.0,0.0,0.0,0.3799,0.4044,0.5389,0.4826,0.4677,0.5456,0.5607,0.5709,0.5851,0.6523,0.693,0.6816,0.7248,0.7544,0.7693,0.8396,0.9006,0.9486,1.126,1.2406,1.2906,1.4007,1.4463,1.4346,1.4419,1.4252,1.3935,1.4055,1.4007,1.3901,1.4677,1.5308,1.6268,1.9839,2.115,2.1216,2.2574,2.3214,2.3486,2.3808,2.3925,2.4013,2.4554,2.4797,2.4922,2.5719,2.5945,2.6614,2.9898,3.0804,3.1389,3.4019,3.4707,3.4707,3.4707,3.4922,3.5156,3.5156,3.5371,3.5781,3.6523,3.584,3.4961,3.4414,3.5859,3.6601,3.5156,3.6777,3.8203,3.834,3.8613,3.8848,3.9004,3.9023,3.9023,3.9023,4.0484,4.1326,4.1234,4.4183,4.5932,4.5966,4.704,4.7686,4.7816,4.8372,4.6138,4.0868,0.0,0.0,0.0,0.0,0.0,0.0,0.0,0.0,0.0,0.0,0.0,0.0,0.0,0.0,0.0,0.0,0.0,0.0,0.0,0.0,0.0,0.0,0.0,0.2561,0.2935,0.3387,0.4328,0.4825,0.502,0.4794,0.5194,0.5741,0.6317,0.6473,0.6813,0.7584,0.7757,0.7937,0.8062,0.8118,0.8682,0.9785,1.0948,1.2061,1.3161,1.4286,1.4885,1.4903,1.4436,1.4401,1.4678,1.452,1.4464,1.4472,1.6215,1.5943,1.4701,1.7511,1.9539,2.1109,2.2566,2.3565,2.4145,2.4466,2.4583,2.4657,2.5046,2.5149,2.5411,2.7056,2.7557,2.83,3.1555,3.2484,3.2885,3.4332,3.4746,3.4746,3.4766,3.541,3.6035,3.6055,3.6719,3.7441,3.7851,3.6953,3.6387,3.7207,3.7695,3.7695,3.6894,3.7832,0.0,3.8047,3.8711,3.9394,3.9805,3.9919,3.9938,3.9863,4.1544,4.2387,4.203,4.5188,4.7027,4.7028,4.6909,4.7027,4.7431,4.7746,4.6645,4.4144,0.0,0.0,0.0,0.0,0.0,0.0,0.0,0.0,0.0,0.0,0.0,0.0,0.0,0.0,0.0,0.0,0.0,0.0,0.0,0.0,0.0,0.018,0.0526,0.1862,0.1758,0.1882,0.2909,0.3088,0.3385,0.4241,0.5047,0.5459,0.5286,0.615,0.6672,0.6522,0.6558,0.6851,0.7468,0.7048,0.6946,0.7386,0.8991,1.0463,1.1697,1.307,1.4104,1.4722,1.4638,1.4319,1.3913,1.4163,1.4035,1.3711,1.4455,1.4932,1.5594,1.887,1.9969,2.0084,2.2483,2.3818,2.4481,2.487,2.5066,2.5315,2.5652,2.5754,2.5838,2.633,2.7247,2.8535,3.0806,3.2227,3.3471,3.523,3.5664,3.5742,3.6055,3.6309,3.6582,3.6875,3.7363,3.7891,3.8301,3.8359,3.8398,3.8633,3.8769,3.8887,3.8984,3.9316,3.9492,3.9375,3.9551,3.9512,3.8984,3.9858,4.0076,3.8999,4.0361,4.0997,4.0554,4.2417,4.3486,4.3491,4.5032,4.6699,4.8415,4.7703,4.6792,0.0,0.0,0.0,0.0,0.0,0.0,0.0,0.0,0.0,0.0,0.0,0.0,0.0,0.0,0.0,0.0,0.0,0.0,0.0,0.0,0.0,0.0,-0.0741,-0.0619,0.0157,0.0324,0.0717,0.1726,0.2112,0.2551,0.3301,0.4263,0.4881,0.4862,0.5644,0.6147,0.621,0.6199,0.6485,0.7018,0.6619,0.6417,0.6557,0.8144,0.9654,1.1047,1.2385,1.3636,1.4806,1.4666,1.4384,1.397,1.4243,1.4036,1.3665,1.4014,1.4423,1.5229,0.0,0.0,0.0,0.0,2.4487,2.4994,2.532,2.5579,2.5769,2.5959,2.6018,2.6047,2.6179,2.6843,2.8084,3.0506,3.1878,3.3161,3.5604,3.6289,3.6406,3.6836,3.7207,3.7539,3.7773,3.832,3.8828,3.9082,3.9316,0.0,3.9726,3.9609,3.9453,3.9355,3.9668,3.9824,3.9629,3.9922,4.0039,3.9707,4.0395,4.0598,3.9743,4.0517,0.0,0.0,0.0,4.2882,4.2813,4.4238,0.0,0.0,0.0,4.7802,4.9088,4.7782,0.0,0.0,4.4694,4.4141,0.0,0.0,0.0,0.0,0.0,0.0,0.0,0.0,0.0,0.0,0.0,0.0,0.0,0.0,0.0,0.0,-0.161,-0.1776,-0.1836,-0.1157,-0.0347,0.0463,0.1406,0.2012,0.1957,0.2986,0.3973,0.4602,0.4846,0.5374,0.627,0.6215,0.0,0.0,0.0,0.6422,0.6583,0.7642,0.904,1.0653,1.1872,1.3238,1.4688,1.4474,1.4403,1.4403,1.4403,1.4261,1.3904,1.4261,1.434,1.4457,1.7275,1.9569,2.1573,2.4053,2.5127,2.537,2.5836,0.0,0.0,2.612,2.612,2.6179,2.6471,2.6717,2.7508,3.0697,3.1769,3.2703,3.5984,3.6855,3.6992,3.7422,3.8086,3.8652,3.8711,3.9375,3.9961,3.9961,4.0,4.0156,4.0527,4.0254,3.9726,3.8984,3.9531,3.9883,3.9473,4.0117,4.0703,4.0996,4.119,0.0,4.1113,4.14,4.1481,4.1249,4.2763,4.3676,4.3661,4.415,4.5302,4.7092,4.7518,4.9334,5.2629,5.2792,5.2929,5.2779,4.6928,4.5748,0.0,0.0,0.0,0.0,0.0,0.0,0.0,0.0,0.0,0.0,0.0,0.0,0.0,0.0,0.0,-0.1395,-0.1653,-0.1808,-0.1868,-0.18,-0.1637,-0.1377,-0.0545,0.0061,0.0062,0.1391,0.2515,0.3103,0.3654,0.4518,0.5688,0.521,0.5178,0.576,0.5263,0.5012,0.5081,0.5949,0.6962,0.8203,1.0,0.0,1.2738,1.3611,1.4047,1.4047,1.4047,1.3975,1.3904,1.3975,1.4765,1.6099,1.835,2.1013,2.3712,2.4525,2.489,2.5045,2.567,2.5898,2.6013,2.6648,2.6808,2.6808,2.6881,2.7931,0.0,3.1435,3.3319,3.5156,3.7138,3.7949,3.832,3.873,3.8965,3.918,3.957,4.0039,4.041,4.041,4.0684,4.0957,4.1035,4.0684,4.0469,4.0644,4.082,4.0898,4.0801,4.0937,4.082,4.0215,4.1174,4.1379,4.0212,4.1211,4.1698,4.1268,4.1535,4.2023,4.2659,4.3986,4.5148,4.615,4.8662,5.0307,5.1093,5.2258,5.2929,5.2904,5.2026,5.1975,0.0,0.0,0.0,0.0,0.0,0.0,0.0,0.0,0.0,0.0,0.0,-0.1431,-0.1502,0.0,-0.1594,-0.1675,-0.1817,-0.1902,-0.1945,-0.1978,-0.1986,-0.1958,-0.112,-0.0571,-0.0579,0.0653,0.1527,0.1763,0.2118,0.263,0.3319,0.3537,0.3843,0.4253,0.4544,0.4632,0.4665,0.5101,0.5894,0.7268,0.8203,0.9856,1.1944,1.2523,1.3174,1.3904,1.3904,1.3953,1.405,1.4131,1.5211,1.6911,1.8727,2.092,2.3163,2.4385,2.4839,2.5077,2.5665,2.5852,2.5909,2.6441,2.6629,2.6657,2.7037,2.7895,2.9331,3.1963,3.3622,3.5224,3.784,3.873,3.9004,3.9453,3.9707,3.9922,4.0156,4.0547,4.084,4.084,4.1035,4.1172,4.1172,4.0996,4.0918,4.1133,4.1172,4.1172,4.1172,4.1172,4.1094,4.0879,4.1512,4.1669,4.121,4.183,4.2106,4.1856,4.2033,4.2249,4.2401,4.329,4.439,4.5565,4.7147,4.8457,4.9415,5.1022,5.1747,5.1747,5.3083,5.3557,0.0,0.0,0.0,0.0,0.0,0.0,0.0,-0.1286,-0.134,-0.1438,-0.1577,-0.1718,-0.1829,-0.2057,-0.2181,-0.204,-0.2236,-0.2306,-0.2086,-0.2037,-0.2037,-0.2014,-0.1347,-0.0916,-0.0932,-0.0202,0.0409,0.0622,0.0699,0.0849,0.1075,0.2009,0.2595,0.2912,0.386,0.4444,0.4665,0.4665,0.5317,0.6547,0.6833,0.8275,1.0718,1.1299,1.2309,1.3468,1.3793,1.4058,1.4245,1.4416,1.5308,1.6787,1.8458,2.004,2.1676,2.3971,2.4975,2.5248,2.5677,2.5778,2.595,2.6187,2.6271,2.6402,2.7103,2.7568,2.8597,3.1949,3.3415,3.4831,3.8122,3.9287,3.9668,4.0059,4.041,4.0644,4.0644,4.0918,4.1172,4.1172,4.1172,4.1172,4.1172,4.1172,4.1172,4.1172,4.1172,4.1211,4.1289,4.1289,4.1465,4.1875,4.1914,4.2051,4.2402,4.25,4.2519,4.2441,4.2742,4.2784,4.2427,4.2661,4.3428,4.4741,4.502,4.5989,4.7585,4.9271,5.0056,5.0056,5.191,5.2899,-0.0504,-0.0942,-0.1337,-0.166,-0.1943,-0.201,0.0,-0.1628,-0.1647,-0.1714,-0.1824,-0.1872,-0.1939,-0.3015,-0.3464,-0.2294,-0.3107,-0.3537,-0.2247,-0.2171,-0.2204,-0.2202,-0.2073,-0.2032,-0.2016,-0.1954,-0.1403,-0.0426,-0.0356,0.0143,0.1162,0.1309,0.1818,0.2839,0.3057,0.3641,0.4665,0.4665,0.481,0.4953,0.633,0.7195,0.763,1.0359,1.1657,1.1951,1.3488,1.4245,1.4416,1.4603,1.4767,1.5169,1.6915,1.8648,2.038,2.3462,2.4844,2.5187,2.5561,2.5876,2.6109,2.6502,2.6668,2.6724,2.7046,2.7678,2.8666,3.0778,3.3273,3.5713,3.7563,3.9527,4.0957,4.1016,4.1074,4.1094,4.1094,4.1133,4.1172,4.1172,4.1172,4.1172,4.1172,4.1172,4.1172,4.1172,4.1172,4.1308,4.168,4.1738,4.1894,4.2305,4.2363,4.2383,4.2422,4.2773,4.2832,4.2461,4.2422,4.2466,4.2427,4.2128,4.2199,4.2754,4.4063,4.487,4.5095,4.6978,4.7927,4.7927,4.8964,5.0962,-0.176,-0.2384,-0.2767,-0.2961,-0.3159,-0.3125,-0.24,-0.2226,-0.2152,-0.1899,-0.2462,-0.303,-0.3187,-0.4253,-0.4749,-0.3567,-0.3881,-0.3784,-0.2341,-0.218,-0.2214,-0.2232,-0.2234,-0.2244,-0.227,-0.2273,-0.2069,-0.1589,-0.1518,-0.1305,-0.0874,-0.0219,0.0364,0.0874,0.2184,0.313,0.3641,0.4371,0.4665,0.4738,0.5389,0.6112,0.705,0.9285,1.128,1.3127,1.4064,1.4529,1.4603,1.4789,1.4854,1.5015,1.6761,1.8455,2.032,2.2603,2.4207,2.5179,2.5505,2.5639,2.5878,2.6371,2.6557,2.6653,2.7368,2.7981,2.8797,3.0816,3.2632,3.4292,3.5977,3.8043,3.9707,3.9707,4.0431,4.1172,4.1172,4.1172,4.125,4.1484,4.1543,4.1621,4.1855,4.1894,4.1816,4.1562,4.1543,4.1699,4.2109,4.2168,4.2324,4.2754,4.3262,4.3574,4.3574,4.3496,4.3359,4.3183,4.2695,4.2306,4.2053,4.1857,4.1875,4.2082,4.2657,4.3239,4.3736,4.5502,4.6536,4.7025,4.8351,4.9804,-0.2935,-0.3466,-0.3744,-0.3847,-0.4041,-0.3891,-0.2853,-0.2623,-0.2612,-0.2449,-0.3128,-0.3942,-0.4493,-0.5679,-0.6235,-0.5155,-0.5275,-0.5081,-0.3656,-0.3492,-0.3535,-0.3569,-0.3228,-0.2948,-0.2948,-0.259,-0.2311,-0.2331,-0.2333,-0.2333,-0.2333,-0.1531,-0.0947,-0.0583,0.1384,0.2548,0.2912,0.4095,0.4763,0.4763,0.4706,0.5299,0.647,0.844,1.0938,1.3734,1.4386,1.4732,1.4789,1.4911,1.4992,1.5195,1.6342,1.8221,2.0418,2.1728,2.354,2.5358,2.5558,2.5745,2.5945,2.6373,2.656,2.68,2.7554,2.8126,2.8717,3.0325,3.1653,3.2823,3.4115,3.5977,3.7498,3.7498,3.8566,3.9707,4.0197,4.0353,4.0684,4.1484,4.1621,4.1719,4.2031,4.207,4.2012,4.1836,4.1797,4.1953,4.2383,4.2539,4.2734,4.3047,4.3555,4.3906,4.4023,4.373,4.3476,4.3359,4.2773,4.2246,4.1816,4.168,4.17,4.1796,4.1796,4.2169,4.2842,4.4111,4.5054,4.5658,4.718,4.809,-0.3769,-0.3823,-0.3778,-0.3781,-0.4033,-0.4008,-0.2956,-0.2726,-0.2934,-0.3526,-0.375,-0.431,-0.5621,-0.7161,-0.7875,-0.6774,-0.7796,-0.825,-0.697,-0.6782,-0.6768,-0.6772,-0.5483,-0.4654,-0.4654,-0.3203,-0.2331,-0.2333,-0.2333,-0.2333,-0.2333,-0.226,-0.175,-0.0656,0.0583,0.1749,0.2912,0.413,0.4826,0.4826,0.4812,0.4839,0.499,0.8136,1.0591,1.2454,1.4006,1.4806,1.496,1.496,1.5074,1.5228,1.5228,1.7433,2.0522,2.0906,2.3146,2.601,2.5945,2.6319,2.6787,2.68,2.7001,2.7295,2.7602,2.8027,2.8441,2.8812,3.0455,3.2098,3.2165,3.3528,3.4813,3.4813,3.5154,3.5977,3.7657,3.839,3.9216,4.086,4.1191,4.1191,4.1211,4.1211,4.1348,4.1738,4.1797,4.1953,4.2383,4.2793,4.3066,4.3086,4.2715,4.2656,4.3086,4.3105,4.291,4.25,4.2441,4.2246,4.1816,4.1406,4.1387,4.1777,4.1777,4.1992,4.2402,4.2882,4.3201,4.3241,4.4561,4.5164,-0.4097,-0.4294,-0.4433,-0.4606,-0.4832,-0.5043,-0.4976,-0.4895,-0.4892,-0.5364,-0.5924,-0.6529,-0.7153,-0.8482,-0.9127,-0.8102,-0.8429,-0.8362,-0.7068,-0.6943,-0.6569,-0.5565,-0.587,-0.538,-0.3278,-0.2624,-0.2333,-0.2333,-0.2333,-0.2342,-0.2361,-0.2363,-0.2224,-0.1794,-0.0673,0.0523,0.1791,0.3001,0.3986,0.4815,0.4877,0.5437,0.6503,0.8924,1.0975,1.2552,1.4299,1.509,1.5147,1.5147,1.5187,1.5174,1.5374,1.6942,1.9254,2.0506,2.2578,2.4992,2.6122,2.6653,2.6894,2.7281,2.7468,2.7602,2.7909,2.8157,2.8268,2.8376,2.9146,2.9886,2.9886,3.1437,3.2972,3.2972,3.3936,3.5073,3.5638,3.588,3.6368,3.7533,3.7748,3.832,3.9999,4.0377,4.0754,4.2028,4.2461,4.2695,4.2851,4.3223,4.3496,4.3496,4.3633,4.3672,4.3496,4.3242,4.2891,4.2461,4.2168,4.1953,4.1816,4.1933,4.207,4.2207,4.2207,4.2422,4.2851,4.3013,4.3413,4.3934,4.4418,4.4723,-0.4369,-0.4598,-0.4826,-0.5128,-0.5592,-0.5982,-0.6111,-0.6263,-0.6428,-0.6841,-0.7264,-0.7829,-0.8449,-0.9396,-0.9939,-0.9456,-0.957,-0.9467,-0.8662,-0.8596,-0.8275,-0.7263,-0.7553,-0.7042,-0.5017,-0.38,-0.2934,-0.2349,-0.2349,-0.2363,-0.2393,-0.2394,-0.2403,-0.2423,-0.1287,-0.0076,0.1209,0.2431,0.3664,0.4907,0.497,0.5477,0.6513,0.8511,1.0264,1.1905,1.3605,1.4727,1.5431,1.5431,1.5504,1.5634,1.5748,1.6953,1.8909,2.0596,2.2576,2.458,2.6209,2.6961,2.7201,2.7575,2.7762,2.7896,2.8167,2.8221,2.8221,2.8221,2.8403,2.8571,2.8571,2.9635,3.069,3.069,3.167,3.2792,3.3349,3.3692,3.4131,3.5393,3.5706,3.6235,3.803,3.8447,3.9186,4.0914,4.1699,4.2255,4.279,4.3223,4.3476,4.3476,4.3476,4.3476,4.3476,4.2949,4.2558,4.2441,4.2168,4.2031,4.2031,4.2285,4.25,4.2656,4.2656,4.2871,4.3301,4.3301,4.3601,4.4123,4.4288,4.4534,-0.4589,-0.4785,-0.4945,-0.5351,-0.6242,-0.6944,-0.656,-0.6906,-0.7508,-0.8093,-0.7968,-0.8082,-0.9327,-0.9944,-1.0351,-1.0636,-1.1084,-1.1443,-1.1599,-1.1619,-1.1548,-1.1476,-1.0239,-0.9374,-0.923,-0.655,-0.4161,-0.2679,-0.2456,-0.2394,-0.2424,-0.2425,-0.2427,-0.2428,-0.1365,-0.0152,0.1136,0.2376,0.3647,0.4946,0.5008,0.5067,0.5207,0.6908,0.8657,1.0459,1.2037,1.3916,1.5707,1.5715,1.5917,1.6216,1.6232,1.733,1.9166,2.1013,2.2837,2.4528,2.6112,2.7133,2.7696,2.7722,2.7909,2.8221,2.8221,2.8221,2.8221,2.8221,2.8221,2.8221,2.8221,2.8221,2.8221,2.8221,2.8487,2.9216,3.091,3.1602,3.2535,3.4389,3.4866,3.508,3.5324,3.5841,3.6792,3.8612,3.963,4.0684,4.2259,4.2832,4.3105,4.3105,4.2383,4.2226,4.3008,4.2324,4.2031,4.2402,4.2441,4.2461,4.2461,4.248,4.2695,4.3105,4.3105,4.3301,4.3711,4.3711,4.3711,4.3711,4.4123,4.437,-0.4659,-0.4969,-0.5427,-0.6236,-0.6804,-0.7498,-0.8919,-0.9194,-0.9333,-0.9938,-0.9507,-0.9134,-0.9196,-0.96,-0.9998,-1.0125,-1.088,-1.1443,-1.1599,-1.1619,-1.1181,-1.0017,-1.0614,-1.0231,-0.7952,-0.7005,-0.5958,-0.4418,-0.3103,-0.2425,-0.2455,-0.2458,-0.2467,-0.2491,-0.2179,-0.1167,0.0699,0.2652,0.3774,0.4137,0.4188,0.4236,0.4285,0.6136,0.7908,0.9755,1.1453,1.3281,1.499,1.5119,1.5143,1.5226,1.544,1.5693,1.6297,1.8521,2.0473,2.224,2.435,2.621,2.7736,2.7963,2.8167,2.8221,2.8221,2.8221,2.8221,2.8221,2.8221,2.8221,2.8221,2.8221,2.8221,2.8221,2.8305,2.8473,2.888,2.9228,2.976,3.058,3.2279,3.356,3.3653,3.5044,3.639,3.6812,3.7657,3.9383,4.2543,4.3281,4.3555,4.3555,4.334,4.3183,4.3086,4.2871,4.2656,4.2441,4.2734,4.291,4.291,4.3223,4.3437,4.3535,4.3555,4.3594,4.3711,4.3711,4.3711,4.3711,4.3793,4.4052,-0.4888,-0.5474,-0.6177,-0.6771,-0.773,-0.8729,-0.9662,-1.0046,-1.0208,-1.0245,-0.9794,-0.9327,-0.8924,-0.946,-1.0039,-1.0122,-1.0886,-1.1596,-1.1821,-1.1691,-1.128,-1.0456,-1.1265,-1.1116,-0.9541,-0.8074,-0.6865,-0.6072,-0.3827,-0.2457,-0.2487,-0.2489,-0.2652,-0.3062,-0.3063,-0.204,0.0078,0.1803,0.3078,0.3837,0.3882,0.3929,0.3974,0.5015,0.6961,0.9466,1.0519,1.2418,1.4952,1.5023,1.5183,1.519,1.5287,1.5265,1.5446,1.7562,1.9523,2.1369,2.3527,2.5719,2.7658,2.7936,2.8114,2.8221,2.8221,2.8221,2.8221,2.8221,2.8221,2.8221,2.8221,2.8328,2.835,2.835,2.8444,2.8537,2.8537,2.8671,2.8918,2.9312,3.0587,3.1656,3.1656,3.2818,3.4037,3.4815,3.5579,3.7022,3.997,4.0906,4.1574,4.2428,4.234,4.2557,4.3277,4.3183,4.3047,4.2988,4.3223,4.3359,4.3359,4.3574,4.3711,4.3711,4.3711,4.3711,4.3711,4.3906,4.3906,4.3711,4.4101,4.4336,-0.5264,-0.6093,-0.6965,-0.7343,-0.8849,-1.0134,-0.9817,-1.0231,-1.0537,-0.9852,-0.9413,-0.9072,-0.8708,-0.9461,-1.0215,-1.0393,-1.1119,-1.1787,-1.2187,-1.1993,-1.1839,-1.1889,-1.1937,-1.2093,-1.2223,-0.9552,-0.7778,-0.7625,-0.4783,-0.2951,-0.2669,-0.2749,-0.3142,-0.3925,-0.3846,-0.2825,-0.0706,0.0549,0.1976,0.3605,0.3728,0.3774,0.3734,0.3768,0.5712,0.8905,0.9249,1.1379,1.4686,1.5009,1.5248,1.5248,1.527,1.5285,1.5545,1.7181,1.8977,2.0902,2.2911,2.5082,2.7045,2.7495,2.7936,2.8221,2.8221,2.8221,2.8234,2.8274,2.8288,2.8301,2.8341,2.8457,2.8671,2.8671,2.8858,2.9045,2.9045,2.9072,2.9192,2.9486,2.974,2.9913,2.9913,3.0272,3.1048,3.269,3.3307,3.417,3.5793,3.7191,3.875,4.0379,4.0257,4.0852,4.2806,4.2683,4.2645,4.2908,4.2927,4.2927,4.2927,4.2927,4.2927,4.2927,4.3195,4.3399,4.3438,4.4116,4.4219,4.3906,4.4668,4.4863,-0.6143,-0.6705,-0.7459,-0.9,-0.9867,-1.0359,-1.0794,-1.0923,-1.0754,-1.0027,-0.9398,-0.8952,-0.8735,-0.9354,-1.0008,-1.0473,-1.1453,-1.2238,-1.2644,-1.2728,-1.2605,-1.2342,-1.2791,-1.3115,-1.2766,-1.1364,-1.0125,-0.9113,-0.7251,-0.5393,-0.3689,-0.4238,-0.463,-0.4787,-0.4158,-0.298,-0.1177,-0.0238,0.1121,0.2837,0.2788,0.2822,0.2937,0.2942,0.4054,0.6208,0.7831,0.9719,1.1707,1.3383,1.405,1.415,1.4281,1.4329,1.443,1.525,1.6522,1.8184,2.0567,2.2681,2.4662,2.6825,2.7857,2.8221,2.8221,2.8221,2.8274,2.8457,2.8524,2.8577,2.8818,2.8925,2.8965,2.8965,2.9005,2.9045,2.9045,2.9232,2.9499,2.978,2.9887,2.9913,2.9913,3.0003,3.0093,3.0437,3.087,3.1315,3.1657,3.5114,3.7792,3.8049,3.834,3.8765,3.9073,3.9105,3.9105,3.9158,3.9175,3.9175,3.9175,3.9175,3.9175,3.9175,4.0632,4.1658,4.1992,4.3561,4.4531,4.4805,4.4961,4.5176,-0.6588,-0.7601,-0.8619,-0.9755,-1.0785,-1.1387,-1.0834,-1.068,-1.0404,-0.9405,-0.9043,-0.8791,-0.8473,-0.921,-0.9959,-1.0398,-1.134,-1.2224,-1.2749,-1.2934,-1.2963,-1.2831,-1.3273,-1.3578,-1.3505,-1.2167,-1.1107,-1.056,-0.9246,-0.7353,-0.4552,-0.5254,-0.5648,-0.5648,-0.5724,-0.4938,-0.3213,-0.1983,-0.0401,0.1301,0.2221,0.2662,0.2692,0.2692,0.3709,0.5499,0.748,0.9281,1.099,1.3002,1.3838,1.3844,1.3926,1.4,1.4169,1.4412,1.5605,1.744,1.9598,2.169,2.3869,2.6227,2.7439,2.8122,2.8292,2.8484,2.8644,2.8791,2.8831,2.8858,2.9005,2.9152,2.9272,2.9272,2.9379,2.9499,2.9499,2.9606,2.9753,2.9887,2.9913,2.9913,2.9913,2.9913,2.9913,2.9913,3.0093,3.0272,3.0272,3.2351,3.4345,3.5636,3.6156,3.6847,3.7792,3.8049,3.8238,3.8238,3.8238,3.8238,3.8238,3.8238,3.8237,3.8442,3.9302,4.0028,4.0313,4.15,4.2042,4.2024,4.2444,4.2627,-0.7388,-0.8813,-1.0142,-1.073,-1.1801,-1.2308,-1.0774,-1.0404,-1.0046,-0.8861,-0.8698,-0.8686,-0.8359,-0.9176,-0.9998,-1.0374,-1.1333,-1.2193,-1.284,-1.312,-1.3301,-1.3357,-1.3824,-1.4089,-1.4177,-1.3075,-1.2285,-1.2001,-1.082,-0.8859,-0.6138,-0.6391,-0.6637,-0.6637,-0.7268,-0.6799,-0.5071,-0.3367,-0.1621,0.0082,0.1822,0.2676,0.2692,0.2692,0.3451,0.4972,0.7201,0.8995,1.044,1.2787,1.3797,1.3804,1.3865,1.3987,1.4122,1.4122,1.5148,1.6745,1.8654,2.0732,2.2923,2.5204,2.6771,2.7831,2.8413,2.8685,2.8871,2.9024,2.9138,2.9152,2.9205,2.9406,2.9579,2.9579,2.9753,2.9913,2.9913,2.9913,2.9913,2.9913,2.9913,2.9913,2.9913,2.9913,2.9913,2.9913,2.9967,3.0007,3.0007,3.0366,3.1235,3.3146,3.3792,3.4607,3.6069,3.6588,3.6863,3.6863,3.695,3.7036,3.7036,3.7036,3.7218,3.7496,3.7932,3.8325,3.878,3.9529,3.9724,3.9536,4.0207,4.0327,-0.9166,-1.0452,-1.1767,-1.2839,-1.2871,-1.246,-1.153,-1.0712,-0.9925,-0.8991,-0.869,-0.8633,-0.8726,-0.9243,-0.9922,-1.081,-1.1554,-1.229,-1.3254,-1.3768,-1.4082,-1.4034,-1.4607,-1.4971,-1.4828,-1.5011,-1.4746,-1.3753,-1.1505,-0.9861,-0.9159,-0.8206,-0.7694,-0.7694,-0.7774,-0.6996,-0.5344,-0.3489,-0.1755,-0.0168,0.1781,0.2717,0.2692,0.2692,0.2792,0.3159,0.6579,0.806,0.8487,1.2143,1.3648,1.3675,1.3946,1.4143,1.4278,1.4278,1.4374,1.4822,1.6745,1.8567,2.0598,2.3185,2.5449,2.7426,2.8117,2.8308,2.8561,2.9278,2.9446,2.9499,2.9766,2.986,2.9873,2.9873,2.99,2.9913,2.9913,2.9913,2.9913,2.9913,2.9913,2.9913,2.9913,2.9913,2.9913,2.9913,3.014,3.0314,3.0314,3.0405,3.0496,3.0768,3.1318,3.1671,3.1834,3.2292,3.2572,3.2572,3.3014,3.3279,3.3279,3.3279,3.3442,3.368,3.5415,3.6603,3.7275,3.9021,4.0087,4.0378,4.0446,4.0464,-1.0701,-1.1938,-1.2954,-1.3774,-1.3918,-1.34,-1.1819,-1.0984,-1.0187,-0.8943,-0.8661,-0.8617,-0.8787,-0.9169,-0.9721,-1.0517,-1.1248,-1.1947,-1.2637,-1.3376,-1.3922,-1.4122,-1.4818,-1.5271,-1.5401,-1.5691,-1.5617,-1.519,-1.2849,-1.1354,-1.1123,-0.9062,-0.7856,-0.7799,-0.7852,-0.7569,-0.6941,-0.5211,-0.3391,-0.1611,0.017,0.1621,0.2718,0.2701,0.2699,0.2878,0.5382,0.707,0.8298,1.0878,1.2702,1.3905,1.4027,1.4163,1.4299,1.4299,1.4299,1.4564,1.6481,1.8471,2.053,2.2775,2.5002,2.7033,2.7851,2.827,2.8526,2.9165,2.928,2.9409,2.9797,2.9913,2.9913,2.9913,2.9913,2.9913,2.9913,2.9913,2.9913,2.9913,2.9913,2.9913,2.9913,2.9913,2.998,3.0154,3.0287,3.0354,3.0354,3.0354,3.0287,3.0114,3.0608,3.0884,3.0884,3.161,3.1966,3.1966,3.2687,3.3056,3.3056,3.3246,3.3495,3.3832,3.4531,3.5121,3.5667,3.6405,3.6836,3.6961,3.6961,3.6961,-1.1988,-1.3356,-1.4319,-1.4824,-1.478,-1.4103,-1.2208,-1.1286,-1.0372,-0.8882,-0.8612,-0.8645,-0.8723,-0.908,-0.9624,-1.0241,-1.0956,-1.1679,-1.2434,-1.3133,-1.3758,-1.427,-1.4822,-1.5317,-1.5731,-1.6081,-1.62,-1.62,-1.3892,-1.2417,-1.2374,-0.9591,-0.8052,-0.7962,-0.8019,-0.8068,-0.8093,-0.6416,-0.4559,-0.2659,-0.0944,0.0856,0.2724,0.2702,0.2698,0.2791,0.4642,0.6531,0.8475,1.0214,1.2226,1.4075,1.4122,1.4204,1.4299,1.4299,1.4299,1.4483,1.5838,1.7684,1.9771,2.1919,2.4028,2.6014,2.7352,2.7963,2.8384,2.8822,2.9092,2.9272,2.9644,2.9824,2.9913,2.9913,2.9913,2.9913,2.9913,2.9913,2.9913,2.9913,2.9913,2.994,3.0034,3.0047,3.0154,3.0448,3.0568,3.0581,3.0501,3.0568,3.0501,3.0207,3.0438,3.0668,3.0587,3.129,3.178,3.1878,3.2631,3.3122,3.3122,3.3521,3.389,3.4212,3.4212,3.4373,3.471,3.471,3.471,3.471,3.471,3.471,-1.3011,-1.4679,-1.6,-1.6247,-1.546,-1.4219,-1.2749,-1.1545,-1.0372,-0.8882,-0.8612,-0.8612,-0.8612,-0.9045,-0.9584,-1.0131,-1.0761,-1.1663,-1.2913,-1.3254,-1.3701,-1.4594,-1.4862,-1.5179,-1.5723,-1.6422,-1.6758,-1.6758,-1.4366,-1.2796,-1.2661,-1.0039,-0.8424,-0.833,-0.833,-0.8375,-0.8464,-0.6611,-0.4733,-0.2949,-0.1042,0.0859,0.2692,0.2692,0.2709,0.2823,0.4611,0.6521,0.8494,1.0416,1.2307,1.4089,1.4238,1.4299,1.4299,1.4299,1.4299,1.4319,1.4462,1.5749,1.7753,2.0115,2.2162,2.4124,2.6297,2.7377,2.783,2.8384,2.8835,2.9182,2.9182,2.9554,2.9913,2.9913,2.9913,2.9913,2.9913,2.9913,2.9913,2.9913,2.9913,3.0007,3.0301,3.0354,3.0448,3.0742,3.1036,3.1116,3.0822,3.1036,3.1102,3.0808,3.0782,3.0662,3.0381,3.0809,3.119,3.1491,3.2436,3.2999,3.2999,3.3456,3.389,3.4212,3.4212,3.4373,3.471,3.471,3.471,3.471,3.471,3.471,-1.3521,-1.4576,-1.5235,-1.5322,-1.4806,-1.3967,-1.2708,-1.1627,-1.0582,-0.9313,-0.8832,-0.8645,-0.8723,-0.8982,-0.9518,-1.0604,-1.111,-1.1809,-1.2938,-1.3571,-1.4115,-1.4643,-1.5398,-1.6048,-1.647,-1.6714,-1.6901,-1.7023,-1.5308,-1.3899,-1.2884,-1.103,-0.9453,-0.8338,-0.8395,-0.8444,-0.8473,-0.791,-0.603,-0.2895,-0.2351,-0.0431,0.2724,0.2724,0.2729,0.2739,0.3361,0.5472,0.8494,0.914,1.1308,1.4231,1.4278,1.4299,1.4299,1.4299,1.436,1.4448,1.4496,1.5897,1.782,1.8566,2.1168,2.4059,2.4785,2.6095,2.7299,2.783,2.8281,2.8745,2.8745,2.8835,2.8925,2.8925,2.8925,2.8925,2.8925,2.8925,2.9067,2.9624,2.9663,2.9937,3.0608,3.0662,3.0755,3.1049,3.1169,3.1196,3.1102,3.1169,3.1116,3.0822,3.0795,3.0755,3.0662,3.1107,3.1423,3.1505,3.2265,3.2945,3.3329,3.37,3.4059,3.4549,3.4549,3.4607,3.471,3.471,3.471,3.471,3.471,3.471,-1.371,-1.446,-1.488,-1.488,-1.4536,-1.3923,-1.2782,-1.1944,-1.1038,-0.9804,-0.9302,-0.9066,-0.8955,-0.9129,-0.96,-1.0517,-1.1021,-1.1744,-1.3019,-1.3587,-1.4156,-1.4919,-1.5723,-1.6373,-1.6725,-1.6974,-1.7096,-1.721,-1.5875,-1.451,-1.2952,-1.1527,-0.9945,-0.8391,-0.8477,-0.8505,-0.8473,-0.853,-0.6986,-0.3833,-0.3201,-0.1289,0.1709,0.2395,0.275,0.2774,0.2804,0.5027,0.0,0.8538,1.0786,1.4299,1.4299,1.4299,1.4299,1.4299,1.4387,1.4523,1.4577,1.5567,1.698,1.7688,2.0722,2.4064,2.4064,2.5446,2.7027,2.7377,2.783,2.8204,2.8204,2.8384,2.8474,2.8474,2.8474,2.85,2.8614,2.8627,2.8807,2.935,2.9493,2.9676,3.0253,3.0584,3.0783,3.1061,3.1302,3.1356,3.1236,3.1316,3.1276,3.0982,3.1049,3.1129,3.1129,3.1288,3.146,3.1568,3.2212,3.2696,3.3084,3.344,3.393,3.4414,3.4414,3.4508,3.471,3.471,3.471,3.471,3.471,3.471,0.0,-1.4223,-1.4751,-1.474,-1.4406,-1.3869,-1.2998,-1.2413,0.0,-1.0239,-0.9935,-0.9757,-0.9239,-0.9413,-0.977,-1.0245,-1.0775,-1.169,-1.3189,-1.3482,-1.4058,-1.5447,-1.5894,-1.63,-1.6766,-1.7201,-1.7388,-1.7388,-1.6211,-1.4702,-1.2958,-1.161,-1.0141,-0.856,-0.855,-0.855,-0.8464,-0.8468,-0.7505,-0.5461,-0.3674,-0.1796,0.0085,0.1884,0.2776,0.283,0.2863,0.5114,0.8603,0.8591,1.0824,1.4312,1.4306,1.4299,1.4299,1.4299,1.4394,1.455,1.4692,1.4848,1.5375,1.7452,2.064,2.3687,2.3973,2.5446,2.7027,2.7027,2.7299,2.7649,2.7649,2.801,2.8397,2.841,2.8422,2.8498,2.8765,2.8828,2.8904,2.9183,2.9246,2.9322,2.9695,3.0136,3.0603,3.0877,3.1284,3.157,3.1289,3.1503,3.1557,3.1289,3.1503,3.1664,3.1664,3.1423,3.137,3.165,3.2138,3.2408,3.2408,3.288,3.3351,3.3822,3.3822,3.4118,3.4616,3.4616,3.4616,3.4616,3.4616,3.4616,-1.263,0.0,-1.348,-1.3359,-1.3229,-1.3028,0.0,-1.2134,-1.1542,-1.0622,-1.0158,-0.9879,-0.9723,-0.9657,-0.9973,-1.1013,-1.1752,-1.2564,-1.3628,-1.4603,-1.5536,-1.6346,-1.6487,-1.6722,-1.7388,-1.7413,-1.7388,-1.7388,-1.7112,-1.569,-1.3046,-1.2495,-1.1116,-0.856,-0.8424,-0.8387,-0.8366,-0.8436,-0.7505,-0.5463,-0.3733,-0.1909,0.0085,0.1914,0.2815,0.2831,0.2883,0.5168,0.8775,0.8615,1.087,1.4448,1.434,1.4299,1.4299,1.4299,1.4462,1.4692,1.4726,1.4909,1.5507,1.7491,1.8702,2.0085,2.3137,2.5446,2.7027,2.7027,2.7118,2.7118,2.7118,2.7299,2.7438,2.7646,2.7695,2.7769,2.8038,2.8087,2.8266,2.8924,2.9068,2.925,2.9893,3.0121,3.035,3.0808,3.1011,3.1175,3.157,3.1623,3.1637,3.157,3.1623,3.1664,3.1664,3.161,3.1597,3.1664,3.1758,3.2043,3.2421,3.2502,3.2786,3.3351,3.3351,3.3445,3.3554,3.3554,3.3554,3.3554,3.3554,3.3554,-1.2382,-1.2748,-1.3104,-1.3143,-1.3007,-1.292,-1.291,-1.2533,-1.1997,-1.1362,-1.0858,-1.0461,-1.028,-1.0242,-1.0517,-1.1362,-1.2239,-1.3206,-1.4351,-1.5455,-1.6316,-1.6709,-1.6909,-1.7128,-1.7599,-1.7632,-1.7591,-1.751,-1.7502,-1.6398,-1.402,-1.3142,-1.1758,-0.9518,-0.8769,-0.8379,-0.8334,-0.8383,-0.7834,-0.6795,-0.409,-0.2268,-0.1127,0.1581,0.2844,0.2871,0.2917,0.4674,0.7499,0.8319,1.0383,1.3226,1.3998,1.4299,1.4306,1.4373,1.4543,1.4753,1.4821,1.4991,1.5368,1.6385,1.7414,1.8524,2.0732,2.3412,2.5822,2.6755,2.7027,2.7027,2.7027,2.7123,2.7244,2.7389,2.751,2.7667,2.7932,2.7993,2.8171,2.8735,2.8784,2.8928,2.9351,2.9663,2.9854,3.014,3.0427,3.0713,3.1284,3.1297,3.1379,3.1664,3.1664,3.1664,3.1664,3.1664,3.1664,3.1664,3.1664,3.1853,3.2043,3.2043,3.2327,3.2786,3.3083,3.3177,3.3177,3.3177,3.3177,3.3177,3.3317,3.3373,-1.2522,-1.291,-1.3287,-1.3351,-1.3265,-1.3211,-1.3383,-1.3104,-1.2726,-1.2219,-1.1688,-1.1266,-1.1252,-1.1118,-1.1273,-1.1924,-1.2743,-1.3807,-1.513,-1.6024,-1.6625,-1.6774,-1.7161,-1.7445,-1.7697,-1.7819,-1.7811,-1.7656,-1.7616,-1.6826,-1.508,-1.3634,-1.2161,-1.0652,-0.9241,-0.8419,-0.8354,-0.8354,-0.835,-0.8247,-0.4614,-0.2803,-0.2564,0.115,0.2867,0.2924,0.295,0.4071,0.6013,0.7948,0.9821,1.1713,1.3579,1.4319,1.4319,1.4462,1.4611,1.4767,1.4943,1.5079,1.5181,1.5181,1.6299,1.7694,1.8091,2.051,2.3751,2.6017,2.6838,2.7087,2.7087,2.728,2.7486,2.7534,2.7715,2.7944,2.821,2.827,2.8343,2.8572,2.862,2.862,2.862,2.9004,2.9292,2.9375,2.9746,3.0223,3.0713,3.0821,3.1107,3.1569,3.1664,3.1664,3.1664,3.1664,3.1664,3.1664,3.1664,3.1664,3.1664,3.1664,3.1853,3.2327,3.2705,3.2988,3.2988,3.2988,3.3002,3.3058,3.3308,3.3366,-1.3039,-1.3653,-1.3877,-1.311,-1.3197,-1.3373,-1.32,-1.3104,-1.2965,-1.2659,-1.2138,-1.2106,-1.3323,-1.2368,-1.2076,-1.4048,-1.439,-1.4749,-1.5577,-1.6073,-1.6527,-1.7015,-1.712,-1.7396,-1.803,-1.7843,-1.7672,-1.764,-1.751,-1.67,-1.5073,-1.3536,-1.2068,-1.0647,-0.9087,-0.8387,-0.8448,-0.8452,-0.8411,-0.8251,-0.4595,-0.2856,-0.2592,0.1163,0.2898,0.2954,0.296,0.4088,0.6077,0.8032,1.0023,1.1839,1.372,1.4407,1.4319,1.4462,1.4611,1.478,1.5052,1.5167,1.5181,1.5181,1.5368,1.5953,1.7773,1.8756,2.01,2.3947,2.6121,2.7365,2.7365,2.7558,2.7811,2.8029,2.8113,2.8222,2.85,2.856,2.8572,2.8608,2.862,2.862,2.862,2.8716,2.8908,2.9292,2.9471,2.9663,3.0128,3.0617,3.0916,3.1011,3.1379,3.1664,3.1664,3.1664,3.1664,3.1664,3.1664,3.1664,3.1664,3.1664,3.1758,3.1853,3.1853,3.1948,3.1948,3.1948,3.2083,3.223,3.227,3.2528,-1.2602,-1.3294,-1.3717,-1.3416,-1.4083,-1.4904,-1.4999,-1.4826,-1.4577,-1.4343,-1.3841,-1.367,-1.4607,-1.387,-1.3602,-1.5142,-1.5297,-1.5504,-1.6121,-1.6438,-1.6763,-1.721,-1.7429,-1.7632,-1.7867,-1.7827,-1.7713,-1.7518,-1.7429,-1.7032,-1.6145,-1.4738,-1.3292,-1.1885,-1.0342,-0.929,-0.8546,-0.8546,-0.8526,-0.8397,-0.5709,-0.3852,-0.2688,0.009,0.1915,0.2961,0.2961,0.3547,0.4631,0.7652,0.935,1.0398,1.3384,1.4468,1.4441,1.4672,1.4855,1.4997,1.5133,1.5181,1.5181,1.5181,1.5242,1.5506,1.6518,1.7543,1.886,2.0842,2.3549,2.6212,2.7352,2.7824,2.8053,2.8174,2.8318,2.8463,2.8596,2.862,2.862,2.862,2.862,2.862,2.862,2.862,2.8716,2.8908,2.9004,2.9196,2.9663,2.9949,3.014,3.0427,3.0903,3.1297,3.1297,3.1569,3.1664,3.1664,3.1664,3.1664,3.1664,3.1664,3.1664,3.1664,3.1664,3.1744,3.1904,3.1904,3.2051,3.2345,3.2505,3.2652,-1.2354,-1.3002,-1.3663,-1.4126,-1.4891,-1.578,-1.642,-1.6172,-1.5806,-1.5914,-1.55,-1.5248,-1.5734,-1.5362,-1.5147,-1.591,-1.5975,-1.6024,-1.6405,-1.6649,-1.6925,-1.7283,-1.7567,-1.7721,-1.7705,-1.7762,-1.7681,-1.7413,-1.7348,-1.7258,-1.712,-1.5778,-1.436,-1.2952,-1.1438,-1.0021,-0.8607,-0.8607,-0.8607,-0.8607,-0.663,-0.4753,-0.2788,-0.0904,0.1096,0.2961,0.2954,0.2981,0.3405,0.7336,0.8836,0.9086,1.3011,1.4529,1.4597,1.4869,1.5059,1.5181,1.5181,1.5181,1.5187,1.5221,1.5316,1.5425,1.5493,1.664,1.8078,1.86,2.1005,2.3871,2.5911,2.6944,2.7617,2.7617,2.8069,2.862,2.862,2.862,2.862,2.862,2.862,2.862,2.862,2.862,2.862,2.862,2.862,2.8716,2.9196,2.928,2.9567,2.9937,3.0427,3.0713,3.0916,3.1392,3.1664,3.1664,3.1664,3.1664,3.1664,3.1664,3.1664,3.1664,3.1664,3.181,3.2104,3.2104,3.2291,3.2652,3.2879,3.3013,-1.3121,-1.3577,-1.4062,-1.5192,-1.4891,-1.4676,-1.6032,-1.5735,-1.5542,-1.6678,-1.6389,-1.6212,-1.6926,-1.6815,-1.6573,-1.6625,-1.6433,-1.6219,-1.6022,-1.6381,-1.673,-1.7088,-1.7153,-1.7364,-1.7851,-1.7616,-1.7413,-1.7388,-1.7226,-1.7128,-1.7112,-1.5778,-1.436,-1.2952,-1.1438,-1.0021,-0.8607,-0.8607,-0.8607,-0.8607,-0.663,-0.4682,-0.2724,-0.0901,0.1089,0.296,0.2931,0.2938,0.3337,0.7292,0.8799,0.8993,1.2969,1.4597,1.4746,1.4909,1.5059,1.5181,1.5181,1.5181,1.5208,1.535,1.5404,1.5459,1.5737,1.5923,1.6545,1.8545,1.9372,2.0017,2.1863,2.4008,2.5733,2.5733,2.7226,2.862,2.862,2.862,2.862,2.862,2.862,2.862,2.862,2.862,2.862,2.862,2.862,2.862,2.862,2.91,2.9375,2.9471,2.9841,3.0331,3.0821,3.1392,3.1664,3.1664,3.1664,3.1664,3.1664,3.1664,3.1664,3.1664,3.1664,3.181,3.2104,3.2104,3.2398,3.2946,3.2973,3.312,-1.2472,-1.3308,-1.4191,-1.4794,-1.5225,-1.5849,-1.712,-1.7421,-1.7658,-1.8401,-1.8233,-1.7934,-1.7834,-1.7894,-1.7736,-1.6977,-1.6425,-1.6154,-1.6202,-1.6422,-1.6714,-1.7071,-1.7307,-1.7478,-1.7575,-1.7559,-1.7453,-1.7234,-1.7153,-1.7112,-1.7112,-1.6577,-1.569,-1.4272,-1.2857,-1.1355,-0.9937,-0.9049,-0.8607,-0.8607,-0.7889,-0.5853,-0.2817,-0.2083,0.0,0.296,0.293,0.2932,0.3329,0.7239,0.8746,0.8989,1.306,1.4746,1.4903,1.5052,1.514,1.5181,1.5181,1.5242,1.5337,1.5391,1.5533,1.5703,1.5818,1.592,1.6199,1.7048,1.7261,1.8031,2.1271,2.2868,2.3511,2.3511,2.5173,2.6647,2.6647,2.7731,2.862,2.862,2.862,2.862,2.862,2.862,2.862,2.862,2.862,2.862,2.862,2.8812,2.8908,2.8908,2.9375,2.9854,3.0331,3.0604,3.07,3.07,3.1284,3.1664,3.1664,3.1664,3.1664,3.1664,3.1851,3.2078,3.2385,3.2559,3.2853,3.3253,3.3253,3.3307,-1.2732,-1.3545,-1.4536,-1.5074,-1.5763,-1.6646,-1.7895,-1.8326,-1.867,-1.9445,-1.9255,-1.8916,-1.8847,-1.8407,-1.7953,-1.7476,-1.6704,-1.617,-1.6284,-1.6462,-1.673,-1.7153,-1.7364,-1.7494,-1.7551,-1.7559,-1.7461,-1.7218,-1.7145,-1.7112,-1.7112,-1.7112,-1.6225,-1.436,-1.3388,-1.1976,-1.0021,-0.9049,-0.8607,-0.8607,-0.8607,-0.6566,-0.2805,-0.2805,-0.0727,0.2932,0.2912,0.2915,0.3206,0.6441,0.8509,0.9897,1.3393,1.4835,1.4991,1.5126,1.5181,1.5187,1.5235,1.5323,1.5425,1.552,1.5689,1.5859,1.5913,1.6001,1.6083,1.6083,1.6083,1.6772,1.961,2.0871,2.1361,2.1361,2.2926,2.4484,2.4484,2.6164,2.7634,2.7634,2.8128,2.862,2.862,2.862,2.862,2.862,2.862,2.862,2.862,2.862,2.862,2.862,2.91,2.9567,2.9841,3.0032,3.0128,3.0128,3.0795,3.1284,3.1487,3.1569,3.1664,3.1664,3.1957,3.2251,3.2643,3.2839,3.3034,3.3113,3.3113,3.3013,-1.418,-1.4525,-1.5182,-1.6417,-1.6495,-1.671,-1.8121,-1.8078,-1.8142,-1.9638,-1.9249,-1.8932,-2.0013,-1.8299,-1.7084,-1.8154,-1.7134,-1.63,-1.63,-1.6462,-1.6779,-1.7323,-1.7226,-1.7323,-1.7859,-1.7591,-1.7388,-1.7388,-1.7218,-1.7112,-1.7112,-1.7112,-1.5785,-1.304,-1.2952,-1.1533,-0.8607,-0.8607,-0.8607,-0.8607,-0.8607,-0.663,-0.2956,-0.2867,-0.0807,0.2874,0.2874,0.2874,0.3053,0.493,0.8102,1.1894,1.3945,1.4835,1.4991,1.5133,1.5181,1.5208,1.5357,1.5411,1.5466,1.5757,1.5852,1.5886,1.6035,1.6083,1.6083,1.6083,1.6083,1.6083,1.6083,1.765,1.9216,1.9216,2.0782,2.2242,2.2242,2.3998,2.5464,2.5464,2.7141,2.8524,2.8524,2.8524,2.8524,2.8524,2.862,2.862,2.862,2.862,2.862,2.862,2.91,2.9375,2.9375,2.9841,3.0128,3.0128,3.0128,3.0331,3.0916,3.1379,3.1677,3.1677,3.1957,3.2251,3.2545,3.2839,3.2835,3.2611,3.2611,3.231,-1.2985,-1.4256,-1.5693,-1.5666,-1.7001,-1.8379,-1.8627,-1.8832,-1.923,-2.0243,-2.0462,-2.0533,-2.05,-1.9195,-1.8124,-1.8281,-1.7031,-1.6162,-1.6284,-1.6462,-1.669,-1.6974,-1.7185,-1.7315,-1.7348,-1.7372,-1.7331,-1.7201,-1.7145,-1.7169,-1.7299,-1.7177,-1.6367,-1.4606,-1.3534,-1.1976,-1.011,-0.9049,-0.8607,-0.8607,-0.8607,-0.7287,-0.4796,-0.3505,-0.1529,0.0906,0.2342,0.2874,0.3145,0.6497,0.9454,1.2027,1.41,1.4991,1.5126,1.5167,1.5248,1.535,1.5398,1.5547,1.5737,1.5825,1.5927,1.6022,1.6069,1.6083,1.6083,1.6083,1.6083,1.6083,1.6083,1.6573,1.7062,1.7062,1.8631,2.0094,2.0094,2.1753,2.3218,2.3218,2.3706,2.4202,2.4202,2.5378,2.6454,2.6454,2.7634,2.862,2.862,2.862,2.862,2.862,2.8716,2.8812,2.8812,2.9004,2.8992,2.8992,2.9549,3.0055,3.0331,3.0509,3.0708,3.0818,3.1212,3.1483,3.1767,3.2051,3.2132,3.2008,3.2008,3.1907,-1.4406,-1.5698,-1.6958,-1.7055,-1.7981,-1.8899,-1.9391,-1.9639,-1.9876,-2.0287,-2.0587,-2.0791,-2.0597,-1.9364,-1.8428,-1.8465,-1.7112,-1.6129,-1.6381,-1.6511,-1.6698,-1.7023,-1.7258,-1.7396,-1.7429,-1.7469,-1.7502,-1.7534,-1.7404,-1.7404,-1.7591,-1.7421,-1.674,-1.5402,-1.3874,-1.2365,-1.0799,-0.937,-0.864,-0.8607,-0.8607,-0.8004,-0.6777,-0.4132,-0.1798,0.009,0.207,0.2874,0.3145,0.6335,0.8857,1.0977,1.2951,1.4432,1.5276,1.5276,1.5371,1.5506,1.5567,1.5703,1.5866,1.5927,1.6008,1.6083,1.6083,1.6083,1.6083,1.6083,1.6083,1.6083,1.6083,1.6083,1.6083,1.6083,1.7062,1.7947,1.7947,1.961,2.1067,2.1067,2.1753,2.234,2.234,2.3413,2.4192,2.4192,2.5281,2.6454,2.7237,2.7345,2.7634,2.8524,2.862,2.862,2.862,2.862,2.8669,2.8777,2.9213,2.9566,2.9794,3.0169,3.0451,3.0628,3.1005,3.1234,3.1399,3.1679,3.1718,3.1517,3.1517,3.1416,-1.7044,-1.7884,-1.8605,-1.9478,-1.9122,-1.8907,-2.0199,-2.0361,-2.0188,-2.006,-2.0134,-2.0371,-2.0554,-1.9193,-1.814,-1.8588,-1.7199,-1.6194,-1.6552,-1.6617,-1.682,-1.7348,-1.7413,-1.7534,-1.7859,-1.7737,-1.7778,-1.8127,-1.7851,-1.7754,-1.7957,-1.7778,-1.7037,-1.5595,-1.4186,-1.2739,-1.0996,-0.9635,-0.8783,-0.8607,-0.8607,-0.8607,-0.8429,-0.4659,-0.1702,0.0359,0.2154,0.2874,0.3056,0.4989,0.6955,0.8952,1.1099,1.3263,1.5125,1.5316,1.5513,1.5676,1.5811,1.5859,1.59,1.6035,1.6083,1.6083,1.6083,1.6083,1.6083,1.6083,1.6083,1.6083,1.6083,1.6083,1.6083,1.6083,1.6083,1.6083,1.6083,1.7551,1.892,1.892,2.0487,2.1753,2.1753,2.1851,2.2047,2.2242,2.234,2.3023,2.4979,2.5173,2.5959,2.7839,2.8224,2.832,2.832,2.8548,2.8765,2.8994,2.9055,2.9188,2.9429,3.0304,3.0796,3.0821,3.1074,3.1313,3.1238,3.1491,3.1416,3.091,3.091,3.072,-1.4869,-1.6517,-1.8196,-1.8412,-1.9015,-1.9628,-2.0006,-2.0253,-2.0522,-2.0651,-2.0877,-2.1007,-2.0856,-1.9534,-1.855,-1.8717,-1.7304,-1.6373,-1.6747,-1.6909,-1.7145,-1.7543,-1.7583,-1.7616,-1.7689,-1.7664,-1.7729,-1.7957,-1.79,-1.7997,-1.8322,-1.803,-1.7272,-1.6011,-1.5399,-1.3744,-1.0991,-1.063,-0.986,-0.8607,-0.8607,-0.8607,-0.8429,-0.4659,-0.0986,0.2334,0.2694,0.2874,0.3058,0.5118,0.6264,0.7026,1.0712,1.2483,1.3196,1.4832,1.5581,1.5811,1.5845,1.5934,1.6035,1.6069,1.6083,1.6083,1.6083,1.6083,1.6083,1.6083,1.6083,1.6083,1.6083,1.6083,1.6083,1.6083,1.6083,1.6083,1.6083,1.6474,1.6772,1.6772,1.7162,1.7452,1.7452,1.8821,2.0389,2.2047,2.234,2.2438,2.2926,2.3023,2.3121,2.3608,2.5173,2.6152,2.6152,2.7821,2.8958,2.9006,2.9405,2.9646,2.9707,2.9712,2.9798,3.0006,3.0067,3.0213,3.0432,3.0493,3.0518,3.0416,3.0416,3.0315,-1.5823,-1.725,-1.8358,-1.8821,-1.9465,-1.9952,-1.9994,-2.0307,-2.0597,-2.0716,-2.0931,-2.106,-2.0931,-1.9966,-1.9066,-1.8859,-1.7731,-1.6969,-1.6909,-1.7055,-1.721,-1.7486,-1.7591,-1.764,-1.764,-1.7794,-1.8005,-1.8282,-1.8306,-1.842,-1.8688,-1.8371,-1.7936,-1.7264,-1.6268,-1.4593,-1.2249,-1.1464,-1.0202,-0.8668,-0.8628,-0.8067,-0.7081,-0.421,-0.1255,0.1525,0.2515,0.2882,0.2987,0.4134,0.5097,0.6334,0.9441,1.1492,1.2706,1.4745,1.571,1.5961,1.5961,1.6015,1.6083,1.6083,1.6083,1.6083,1.6083,1.6083,1.6083,1.6083,1.6083,1.6083,1.6083,1.6083,1.6083,1.6083,1.6083,1.6083,1.6083,1.6083,1.6083,1.6083,1.6083,1.6083,1.6083,1.6963,1.8038,1.9216,1.9314,1.97,2.0683,2.0773,2.1165,2.2144,2.4192,2.5518,2.5636,2.7743,2.9127,2.9369,2.9646,2.9851,2.9996,2.9864,2.9851,2.9996,2.9996,3.0129,3.0407,3.0274,3.0286,3.0407,3.0274,3.0214,-1.7003,-1.8023,-1.8562,-1.9671,-1.9919,-1.9973,-2.0102,-2.0393,-2.0608,-2.0576,-2.078,-2.0953,-2.091,-2.0224,-1.9503,-1.8992,-1.8171,-1.7552,-1.7167,-1.7161,-1.7242,-1.7453,-1.7575,-1.7664,-1.7729,-1.7997,-1.8338,-1.8736,-1.8769,-1.8834,-1.8972,-1.8671,-1.8485,-1.8547,-1.7045,-1.5379,-1.3561,-1.2161,-1.0576,-0.8734,-0.8648,-0.7799,-0.6094,-0.3941,-0.1882,0.009,0.2069,0.2894,0.2919,0.2954,0.4006,0.5727,0.8156,1.0299,1.2412,1.4783,1.5845,1.6083,1.6083,1.6083,1.6083,1.6083,1.6083,1.6083,1.6083,1.6083,1.6083,1.6083,1.6083,1.6083,1.6083,1.6083,1.6083,1.6083,1.6083,1.6083,1.6083,1.6083,1.6083,1.6083,1.6083,1.6083,1.6083,1.6083,1.6083,1.6083,1.6083,1.6772,1.8434,1.8631,1.9322,2.1121,2.3209,2.4799,2.5444,2.743,2.9069,2.9912,2.9972,3.0093,3.0274,3.0286,3.0286,3.0286,3.0286,3.0407,3.0672,3.0455,3.0467,3.0672,3.0407,3.0286,-1.4546,-1.6248,-1.8142,-1.9584,-1.9919,-1.993,-1.9962,-2.0393,-2.0802,-2.0608,-2.092,-2.1168,-2.0942,-2.0349,-1.9763,-1.9011,-1.8289,-1.7759,-1.7452,-1.7348,-1.7478,-1.7811,-1.7721,-1.7762,-1.807,-1.8144,-1.8387,-1.8907,-1.8948,-1.8956,-1.898,-1.8793,-1.8615,-1.8452,-1.8086,-1.6498,-1.3555,-1.3258,-1.1657,-0.8734,-0.8648,-0.8429,-0.8067,-0.4568,-0.1882,0.009,0.2083,0.2912,0.292,0.2977,0.3191,0.3762,0.7738,0.9587,1.0472,1.4397,1.5934,1.6083,1.6083,1.6083,1.6083,1.6083,1.6083,1.6083,1.6083,1.6083,1.6083,1.6083,1.6083,1.6083,1.6083,1.6083,1.6083,1.6083,1.6083,1.6083,1.6083,1.6083,1.6083,1.6083,1.6083,1.6083,1.6083,1.6083,1.6083,1.6083,1.6083,1.6182,1.6474,1.6474,1.6622,1.7056,1.9086,2.1353,2.3577,2.6003,2.8233,3.0389,3.0708,3.0757,3.0564,3.0552,3.0552,3.0552,3.0552,3.0684,3.095,3.0914,3.0914,3.0938,3.0672,3.0552,-1.4877,-1.6727,-1.8437,-1.9595,-1.9919,-1.9995,-2.0265,-2.049,-2.0759,-2.0931,-2.1136,-2.1243,-2.1136,-2.0878,-2.0324,-1.9256,-1.8893,-1.8432,-1.7501,-1.7469,-1.7551,-1.7616,-1.7632,-1.7746,-1.8005,-1.8217,-1.8509,-1.8948,-1.9077,-1.9094,-1.8988,-1.8818,-1.8639,-1.846,-1.8273,-1.7103,-1.4886,-1.3963,-1.1857,-0.8734,-0.8697,-0.8677,-0.8497,-0.4697,-0.2439,-0.1446,0.1636,0.2945,0.2994,0.3021,0.3052,0.3374,0.6404,0.8409,0.996,1.2962,1.4953,1.6083,1.6083,1.6083,1.6083,1.6083,1.6083,1.6083,1.6083,1.6083,1.6083,1.6083,1.6083,1.6083,1.6083,1.6083,1.6083,1.6083,1.5884,1.5678,1.5678,1.5678,1.5578,1.528,1.5479,1.5578,1.528,1.5678,1.5983,1.5678,1.5877,1.6083,1.6083,1.6157,1.6239,1.63,1.8432,2.027,2.1586,2.4973,2.7628,2.8811,3.0057,3.0733,3.0612,3.0612,3.0672,3.0817,3.0684,3.0805,3.1215,3.1071,3.1071,3.1203,3.0793,3.0612,-1.5174,-1.6765,-1.8006,-1.9253,-1.9606,-1.9833,-2.0425,-2.0662,-2.0845,-2.12,-2.1319,-2.1351,-2.1286,-2.1276,-2.0937,-1.9706,-1.9533,-1.9049,-1.7953,-1.7673,-1.7526,-1.7404,-1.7453,-1.7632,-1.7949,-1.8225,-1.8566,-1.9021,-1.9183,-1.9175,-1.8996,-1.8818,-1.8639,-1.846,-1.8273,-1.7421,-1.5917,-1.3902,-1.1504,-0.8771,-0.8771,-0.8754,-0.8553,-0.4739,-0.2924,-0.2566,0.1284,0.2981,0.3054,0.3069,0.3101,0.334,0.5406,0.76,0.9822,1.1926,1.4087,1.6083,1.6083,1.6083,1.6083,1.6083,1.6083,1.6083,1.6083,1.6083,1.6083,1.6083,1.6083,1.6083,1.6083,1.6083,1.6083,1.5884,1.5578,1.528,1.518,1.5081,1.4981,1.4576,1.4775,1.4968,1.4533,1.5155,1.5552,1.5084,1.5565,1.5924,1.5884,1.6145,1.6381,1.6415,1.8078,1.9544,2.0336,2.3548,2.6044,2.748,2.9019,3.0077,3.0708,3.0708,3.0726,3.0665,3.0798,3.1034,3.1493,3.13,3.13,3.1481,3.095,3.0745,-1.4185,-1.5043,-1.5972,-1.805,-1.8894,-1.9424,-2.035,-2.091,-2.1243,-2.1276,-2.1448,-2.1534,-2.1319,-2.1276,-2.11,-2.0637,-1.9968,-1.93,-1.8823,-1.8012,-1.7396,-1.7388,-1.7242,-1.7404,-1.8095,-1.8176,-1.8485,-1.9191,-1.9256,-1.9175,-1.8996,-1.8818,-1.8639,-1.846,-1.8273,-1.7421,-1.5917,-1.2964,-1.0528,-0.8864,-0.8864,-0.882,-0.8553,-0.4775,-0.2968,-0.2714,0.1312,0.3021,0.3056,0.3114,0.314,0.3342,0.5542,0.7738,0.9831,1.2112,1.4265,1.6083,1.6083,1.6083,1.6083,1.6083,1.6083,1.6083,1.6083,1.6083,1.6083,1.6083,1.6083,1.6083,1.6083,1.6083,1.5983,1.5479,1.528,1.518,1.4676,1.4576,1.4576,1.4476,1.4476,1.4539,1.4317,1.4496,1.449,1.4238,1.4924,1.5535,1.5399,1.6024,1.6564,1.6714,1.6974,1.8071,2.0426,2.102,2.3026,2.7386,2.7795,2.8749,3.087,3.0974,3.0572,2.9765,3.0822,3.1493,3.1783,3.1771,3.1771,3.1771,3.1228,3.1107,-1.399,-1.4805,-1.5659,-1.7155,-1.808,-1.8888,-1.993,-2.0587,-2.1168,-2.162,-2.1556,-2.1373,-2.1297,-2.1394,-2.127,-2.0668,-2.0201,-1.9605,-1.8867,-1.8105,-1.751,-1.7396,-1.7331,-1.7478,-1.7965,-1.8217,-1.8558,-1.9045,-1.9191,-1.9175,-1.8996,-1.8818,-1.8639,-1.846,-1.8273,-1.7048,-1.4516,-1.3343,-1.1454,-0.8873,-0.893,-0.8909,-0.8732,-0.4826,-0.3011,-0.2771,0.134,0.3082,0.3114,0.3155,0.3183,0.32,0.4009,0.6514,0.9716,1.0545,1.3068,1.6083,1.6083,1.6083,1.6083,1.6083,1.6083,1.6083,1.6083,1.6083,1.6083,1.6083,1.6083,1.5983,1.5678,1.5578,1.5379,1.4488,1.4223,1.3958,1.3458,1.3359,1.3342,1.3262,1.3539,1.362,1.3188,1.3875,1.4255,1.3947,1.4537,1.5101,1.5551,1.5622,1.5866,1.6637,1.6656,1.6929,1.7819,1.9448,2.0914,2.2176,2.3533,2.5101,2.7176,2.6103,2.6532,2.8504,2.8006,2.8339,2.9523,3.0285,3.0205,2.9394,2.9108,2.8984,-1.3391,-1.4225,-1.5225,-1.6504,-1.7163,-1.7961,-1.9754,-2.0287,-2.0705,-2.1653,-2.1609,-2.134,-2.1179,-2.1405,-2.148,-2.12,-2.049,-1.9804,-1.9409,-1.8369,-1.7575,-1.7413,-1.7388,-1.7526,-1.7884,-1.8241,-1.8598,-1.8956,-1.9159,0.0,-1.9086,-1.885,-1.8615,-1.8363,-1.8241,-1.6767,-1.3764,-1.3578,-1.1976,-0.8918,-0.8979,-0.8975,-0.8825,-0.4859,-0.3033,-0.2801,0.1358,0.313,0.316,0.319,0.3213,0.323,0.323,0.5843,0.9661,0.9661,1.2463,1.6083,1.6083,1.6083,1.6083,1.6083,1.6083,1.6083,1.6083,1.5983,1.5877,1.5877,1.5678,1.5479,1.5081,1.4881,1.4582,1.3889,1.3492,1.3088,1.2754,1.2651,1.2623,1.2547,1.2823,1.292,1.2536,1.3217,1.3627,1.341,1.4001,1.468,1.5084,1.5148,1.5468,1.6197,1.6163,1.606,1.606,1.7514,1.862,1.8932,2.0345,2.2082,2.4086,2.3187,2.3536,2.5595,2.5084,2.5269,2.6255,2.8436,2.9004,2.8102,2.7941,2.7588,0.0,0.0,0.0,-1.6063,-1.6,-1.6431,-1.9768,-1.995,-1.9822,-2.1276,-2.1566,-2.1416,-2.0996,-2.1297,-2.176,-2.2234,-2.0796,-1.9877,-2.0459,-1.8806,-1.7575,-1.7413,-1.7388,-1.7526,-1.7875,-1.8241,-1.8598,-1.8948,-1.9151,-1.9256,-1.9256,-1.8923,-1.8558,-1.8192,-1.8176,-1.6767,-1.3764,-1.367,-1.2102,-0.9003,-0.9007,-0.9007,-0.8816,-0.4781,-0.294,-0.2803,0.1368,0.316,0.3191,0.3219,0.323,0.323,0.323,0.5846,0.9661,0.9661,1.2368,1.5983,1.6083,1.6083,1.6083,1.6083,1.6083,1.6083,1.6083,1.5678,1.528,1.528,1.4875,1.4476,1.4476,1.4083,1.369,1.369,1.3195,1.2672,1.2564,1.2536,1.2536,1.2531,1.2531,1.2536,1.2536,1.2629,1.2705,1.2716,1.352,1.4065,1.4077,1.4811,1.5283,1.5283,1.5283,1.5283,1.5283,1.5283,1.6216,1.8291,1.855,1.9765,2.2265,2.2448,2.2107,2.1226,2.2311,2.2647,2.2118,2.6156,2.822,2.8199,2.7748,2.7298,-1.3097,0.0,0.0,0.0,0.0,0.0,-1.6838,-1.7369,-1.8046,-2.0167,-2.0188,-2.0102,-2.1007,-2.1286,-2.147,-2.1771,-2.0672,-1.9956,-2.037,-1.8694,-1.7486,-1.7559,-1.7461,-1.7478,-1.7697,-1.816,-1.855,0.0,-1.9086,-1.9256,-1.9256,-1.8923,-1.8615,-1.8387,-1.8249,-1.6767,-1.3764,-1.367,-1.2058,-0.8909,-0.9044,-0.9036,-0.8821,-0.48,-0.297,-0.2733,0.1372,0.3171,0.3219,0.3227,0.323,0.323,0.323,0.4839,0.7553,0.9155,1.1463,1.3966,1.5578,1.6083,1.6083,1.6083,1.6083,1.5983,1.5678,1.5379,1.518,1.4875,1.4576,1.4377,1.3983,1.349,1.309,1.309,1.2891,1.2694,1.2667,1.2591,1.2509,1.2422,1.2477,1.2536,1.2536,1.2629,1.2765,1.2944,1.3176,1.3551,1.4209,1.4195,1.4341,1.5178,1.4868,1.4657,1.4657,1.4657,1.4762,1.4961,1.5087,1.6068,1.813,1.7094,1.7574,2.005,1.9155,1.9272,2.0372,2.3656,2.5329,2.5625,2.5507,2.5389,0.0,0.0,0.0,0.0,0.0,0.0,-1.6697,-1.7103,0.0,0.0,-2.0404,-2.035,-2.0877,-2.1147,-2.1286,-2.1319,-2.0577,-2.0058,-2.0308,-1.8955,-1.7867,-1.7526,-1.751,-1.7534,-1.7632,-1.8062,-1.8444,-1.8704,-1.8988,-1.9142,-1.9142,-1.8874,-1.8639,-1.846,-1.82,-1.6699,-1.3764,-1.3615,-1.2042,-0.8987,-0.9016,-0.9016,-0.889,-0.4785,-0.2952,-0.2728,0.1371,0.317,0.3213,0.3225,0.323,0.323,0.323,0.4539,0.6648,0.8854,1.1059,1.3162,1.5373,1.6083,1.6083,1.5877,1.5778,1.5678,1.518,1.4782,1.4582,1.4283,1.3983,1.3784,1.349,1.309,1.289,1.289,1.2792,1.2705,1.2705,1.2651,1.2569,1.2455,1.2487,1.2553,1.2596,1.2705,1.2852,1.3064,1.3167,1.3423,1.399,1.3819,1.3813,1.4551,1.4235,1.403,1.403,1.403,1.3946,1.3678,1.3792,1.4338,1.5536,1.47,1.5238,1.7405,1.6416,1.6741,1.8508,2.0929,2.2587,2.3494,2.4341,2.4617,0.0,0.0,0.0,0.0,-1.4326,0.0,-1.7639,-1.7669,0.0,0.0,-2.0791,-2.078,-2.0328,-2.0619,-2.0845,-2.0587,-2.0318,-2.0119,-2.0112,-1.9256,-1.83,-1.7469,-1.7518,-1.7616,-1.764,-1.7965,-1.8322,-1.8671,-1.8891,-1.9013,-1.9013,-1.8834,-1.8647,-1.8485,-1.8135,-1.6532,-1.3764,-1.3547,-1.1954,-0.9126,-0.8983,-0.8995,-0.8948,-0.4961,-0.3114,-0.2811,0.1077,0.2966,0.3195,0.322,0.323,0.323,0.323,0.4337,0.6346,0.8754,1.0858,1.2863,1.5273,1.6083,1.5884,1.5479,1.528,1.5081,1.4576,1.4083,1.369,1.359,1.329,1.289,1.289,1.289,1.289,1.289,1.2803,1.2727,1.2727,1.2727,1.2694,1.2596,1.2574,1.2607,1.2705,1.2814,1.2944,1.3102,1.3232,1.3385,1.358,1.3602,1.3602,1.3602,1.3602,1.3602,1.3602,1.3618,1.3678,1.3787,1.3906,1.4026,1.414,1.4249,1.432,1.432,1.432,1.5103,1.6643,1.8626,2.0295,2.1674,2.3484,2.4143,-1.4932,-1.4835,-1.4823,-1.4594,-1.4518,0.0,-1.4539,-1.4466,-1.4801,0.0,-1.6592,-1.6797,-1.8056,-1.8519,-1.8638,-1.8379,-1.9233,-1.9858,-1.9695,-1.8849,-1.8095,-1.7445,-1.7421,-1.7494,-1.7624,-1.7965,-1.8265,-1.8493,-1.8939,-1.9207,-1.9207,-1.8899,-1.8712,-1.8671,-1.8314,-1.6737,-1.3764,-1.3639,-1.2091,-0.9036,-0.9146,-0.9179,-0.9051,-0.6743,-0.4779,-0.2964,-0.0495,0.1595,0.3223,0.3228,0.323,0.323,0.323,0.3431,0.4337,0.8252,0.9961,1.0863,1.4775,1.5784,1.5479,1.5379,1.4981,1.4576,1.3983,1.379,1.359,1.319,1.299,1.289,1.289,1.289,1.289,1.289,1.2868,1.2852,1.2852,1.2852,1.2846,1.2825,1.2819,1.2825,1.2846,1.2873,1.2944,1.3102,1.3042,1.3134,1.3553,1.3602,1.3602,1.3602,1.3602,1.3602,1.3602,1.3722,1.3809,1.383,1.4004,1.4108,1.414,1.4249,1.432,1.432,1.432,1.4436,1.4875,1.8074,1.9713,2.0012,2.0466,2.056,-1.52,-1.4695,-1.4378,-1.4937,-1.4795,0.0,0.0,-1.4688,-1.4821,-1.618,-1.6204,-1.6204,-1.7044,-1.7486,-1.7658,-1.74,-1.8864,-1.9577,-1.8095,-1.8459,-1.8381,-1.7271,-1.7356,-1.7551,-1.7632,-1.7802,-1.8062,-1.8428,-1.8956,-1.9216,-1.9126,-1.8866,-1.868,-1.859,-1.8233,-1.6684,-1.3764,-1.3602,-1.2069,-0.9077,-0.9167,-0.9212,-0.912,-0.7166,-0.5082,-0.296,-0.0892,0.1196,0.321,0.3224,0.323,0.323,0.323,0.323,0.3734,0.8055,0.9661,1.0262,1.4271,1.5479,1.518,1.4682,1.4283,1.3983,1.349,1.329,1.329,1.299,1.289,1.289,1.289,1.289,1.289,1.289,1.289,1.289,1.289,1.289,1.289,1.289,1.289,1.2906,1.2966,1.2993,1.3047,1.3162,1.3216,1.333,1.3575,1.3602,1.3602,1.3602,1.3602,1.3602,1.3602,1.3678,1.3776,1.389,1.3993,1.4097,1.4222,1.4292,1.432,1.432,1.432,1.432,1.432,1.6089,1.7405,1.8281,1.9177,1.961,-1.5607,-1.4902,-1.4604,-1.5648,-1.539,-1.5104,0.0,0.0,0.0,-1.6371,-1.6291,-1.6136,-1.6234,0.0,0.0,-1.6484,0.0,0.0,0.0,-1.7491,0.0,-1.6639,-1.7145,-1.7551,-1.7445,-1.7372,-1.7656,-1.8444,-1.8688,-1.8834,-1.8931,-1.8769,-1.859,-1.8403,-1.8119,-1.664,-1.3764,-1.356,-1.197,-0.9142,-0.9179,-0.9232,-0.9305,-0.7585,-0.5478,-0.3055,-0.139,0.0798,0.3198,0.3221,0.323,0.323,0.323,0.323,0.3734,0.8055,0.9661,1.0262,1.3972,1.528,1.4981,1.3989,1.359,1.349,1.299,1.289,1.289,1.289,1.289,1.289,1.289,1.289,1.289,1.289,1.289,1.289,1.289,1.289,1.289,1.289,1.289,1.2917,1.302,1.3096,1.3151,1.3167,1.3417,1.3602,1.3602,1.3602,1.3602,1.3602,1.3602,1.3602,1.3602,1.3602,1.3727,1.401,1.4026,1.4113,1.4309,1.432,1.432,1.432,1.432,1.432,1.432,1.432,1.5097,1.6533,1.7957,1.8626,-1.7358,-1.7324,-1.7422,-1.6235,-1.6513,-1.6582,-1.4332,0.0,-1.4259,-1.3691,0.0,-1.3965,-1.4396,0.0,0.0,0.0,0.0,0.0,-1.3996,-1.5393,-1.625,-1.5339,-1.6503,-1.7226,-1.6747,-1.6414,-1.6917,-1.8574,-1.7721,-1.7599,-1.8696,-1.8582,-1.8395,-1.8217,-1.8168,-1.6752,-1.3764,-1.3651,-1.215,-0.9146,-0.9301,-0.9383,-0.9399,-0.936,-0.7023,-0.3213,-0.2915,-0.0503,0.3225,0.3228,0.323,0.323,0.323,0.323,0.3734,0.8055,0.9661,1.0262,1.3972,1.4981,1.4476,1.3889,1.339,1.299,1.289,1.289,1.289,1.289,1.289,1.289,1.289,1.289,1.289,1.289,1.289,1.289,1.289,1.289,1.289,1.289,1.289,1.289,1.2906,1.3086,1.3156,1.296,1.3314,1.3602,1.3602,1.3602,1.3602,1.3602,1.3602,1.3602,1.3602,1.3602,1.3798,1.4249,1.4276,1.4292,1.432,1.432,1.432,1.432,1.432,1.432,1.432,1.432,1.4436,1.4647,1.4764,1.4875,-1.7389,-1.7304,-1.7288,-1.655,-1.6815,-1.6702,-1.4691,-1.401,-1.3601,-1.2709,0.0,0.0,0.0,0.0,0.0,0.0,-1.3182,0.0,0.0,0.0,-1.4778,0.0,0.0,0.0,0.0,0.0,0.0,0.0,-1.7323,-1.7266,-1.8208,-1.8282,-1.8208,-1.803,-1.8127,-1.6767,-1.3764,-1.367,-1.2161,-0.9146,-0.9322,-0.9408,-0.9412,-0.9595,-0.7355,-0.3223,-0.3223,-0.0806,0.323,0.323,0.323,0.323,0.323,0.323,0.3734,0.8055,0.9661,1.0162,1.3672,1.4676,1.4377,1.3484,1.309,1.289,1.289,1.289,1.289,1.289,1.289,1.289,1.289,1.2939,1.2977,1.2906,1.2944,1.2977,1.2901,1.289,1.289,1.289,1.2944,1.3015,1.308,1.3058,1.3096,1.3276,1.3477,1.3602,1.3602,1.3602,1.3602,1.3602,1.3602,1.3602,1.3602,1.3602,1.3809,1.4292,1.432,1.432,1.432,1.432,1.432,1.432,1.432,1.432,1.432,1.432,1.432,1.432,1.432,1.432,-1.7973,-1.7822,-1.7616,-1.6779,-1.6565,-1.6107,-1.443,-1.3445,-1.2679,-1.1893,-1.1385,0.0,0.0,0.0,0.0,0.0,0.0,-1.1904,0.0,-1.1841,0.0,0.0,0.0,0.0,0.0,0.0,0.0,0.0,0.0,-1.6588,-1.7786,-1.7965,-1.7949,-1.7778,-1.7612,-1.6233,-1.3615,-1.3275,-1.1689,-0.9146,-0.9322,-0.9408,-0.9412,-0.9595,-0.7355,-0.3223,-0.3223,-0.0806,0.323,0.323,0.323,0.323,0.323,0.323,0.3633,0.7452,0.9159,1.0062,1.2668,1.3778,1.3884,1.3184,1.289,1.289,1.289,1.289,1.289,1.289,1.289,1.289,1.289,1.2977,1.3042,1.2917,1.2982,1.3037,1.2917,1.289,1.2901,1.2944,1.3026,1.314,1.3308,1.314,1.3124,1.3542,1.3602,1.3602,1.3602,1.3602,1.3602,1.3602,1.3602,1.3602,1.3602,1.3602,1.3809,1.4292,1.432,1.432,1.432,1.432,1.432,1.432,1.432,1.432,1.432,1.432,1.432,1.432,1.432,1.432,-1.9948,-1.9796,-1.9591,-1.6972,-1.5724,-1.468,-1.2883,-1.1911,-1.1245,-1.0844,-1.1101,-1.1339,0.0,0.0,0.0,0.0,0.0,0.0,0.0,0.0,0.0,0.0,0.0,0.0,0.0,0.0,0.0,0.0,0.0,0.0,-1.7534,-1.7656,-1.7583,-1.7413,-1.6355,-1.5042,-1.3468,-1.2096,-1.0649,-0.9146,-0.9322,-0.9408,-0.9412,-0.9595,-0.7355,-0.3223,-0.3223,-0.0806,0.323,0.323,0.323,0.323,0.323,0.323,0.3431,0.5645,0.7854,0.9861,1.0968,1.2079,1.299,1.289,1.289,1.289,1.289,1.289,1.289,1.289,1.289,1.289,1.289,1.2977,1.3042,1.2917,1.2982,1.3037,1.2917,1.289,1.2933,1.3086,1.3124,1.3227,1.3537,1.339,1.3314,1.3564,1.3602,1.3602,1.3602,1.3602,1.3602,1.3602,1.3602,1.3602,1.3602,1.3602,1.3809,1.4292,1.432,1.432,1.432,1.432,1.432,1.432,1.432,1.432,1.432,1.432,1.432,1.432,1.432,1.432,0.0,0.0,-2.0955,-1.8287,-1.7026,-1.5843,-1.3642,-1.2181,-1.1009,-1.0,-0.9961,-0.9883,0.0,0.0,0.0,0.0,0.0,0.0,0.0,0.0,0.0,0.0,0.0,0.0,0.0,0.0,0.0,0.0,0.0,0.0,0.0,-1.7404,-1.7445,-1.7388,-1.6242,-1.4885,-1.3327,-1.19,-1.0478,-0.9056,-0.9236,-0.935,-0.9412,-0.9595,-0.7355,-0.3223,-0.3223,-0.0806,0.323,0.323,0.323,0.323,0.323,0.323,0.3431,0.5642,0.7553,0.956,1.1979,1.2884,1.289,1.289,1.289,1.289,1.289,1.289,1.289,1.289,1.289,1.2906,1.2988,1.3096,1.3151,1.3037,1.3096,1.3129,1.2928,1.295,1.3026,1.308,1.3216,1.3346,1.3433,1.3466,1.351,1.3591,1.3602,1.3602,1.3602,1.3602,1.3602,1.3602,1.3602,1.3602,1.3602,1.3896,1.4151,1.4309,1.432,1.432,1.432,1.432,1.432,1.432,1.432,1.432,1.432,1.432,1.432,1.432,1.432,1.432,-2.166,-2.1667,0.0,-1.9265,-1.8059,0.0,-1.4833,-1.3051,-1.1522,-1.0184,-0.964,-0.9233,0.0,0.0,0.0,0.0,0.0,0.0,0.0,-0.7211,0.0,0.0,0.0,0.0,0.0,0.0,0.0,0.0,0.0,0.0,0.0,0.0,-1.7016,-1.6572,-1.5291,-1.3919,-1.246,-1.1049,-0.9838,-0.9007,-0.9195,-0.9326,-0.9412,-0.8795,-0.6648,-0.3122,-0.2417,-0.0101,0.323,0.323,0.323,0.323,0.323,0.323,0.333,0.4738,0.6648,0.9163,1.2779,1.3484,1.289,1.289,1.289,1.289,1.289,1.289,1.2879,1.2835,1.2884,1.296,1.2999,1.3151,1.3276,1.3156,1.3221,1.3249,1.3053,1.3075,1.3145,1.3189,1.3319,1.3428,1.345,1.3537,1.3602,1.3602,1.3602,1.3602,1.3602,1.3602,1.3602,1.3602,1.3602,1.3673,1.3847,1.4292,1.4504,1.4336,1.432,1.432,1.432,1.432,1.432,1.432,1.432,1.432,1.432,1.432,1.432,1.432,1.432,1.432]}]]